GFSNGP_prec_cloud_003.txt.gz
Cloud_Cover
100 100 100 100 100 100 100 100 100 100 100 100 100 69 58 94 24 8 5 5 5 7 31 61 91 89 92 81 11 60 96 51 10 5 2 1 0 0 0 0 0 0 0 3
100 100 100 100 100 100 100 100 100 100 100 96 100 100 100 51 5 5 5 5 9 64 93 82 67 54 17 5 5 5 5 5 5 4 0 0 0 0 2 4 5 6 6 50
100 100 100 100 66 16 5 20 5 33 100 100 88 57 58 76 100 51 76 98 97 28 5 5 5 5 5 5 5 5 5 5 5 5 4 4 4 3 4 5 5 5 5 4
100 100 100 52 60 70 74 72 93 100 100 100 100 100 96 75 38 79 20 5 6 13 28 5 5 5 5 19 12 5 5 5 5 5 2 0 0 1 1 4 5 8 21 82
60 100 100 100 100 100 100 100 89 99 91 100 74 12 5 5 5 5 5 5 28 71 68 96 58 88 65 7 5 5 5 5 5 5 0 0 0 0 2 0 0 0 5 5
13 8 53 84 78 48 98 99 96 24 4 5 5 5 5 5 5 28 54 93 97 99 29 30 70 12 23 17 5 5 5 5 5 5 5 0 0 0 0 0 0 0 0 0
7 49 27 62 28 23 21 22 6 18 6 5 5 5 6 58 72 80 98 100 98 89 96 5 5 5 5 5 5 5 5 5 5 5 3 0 0 0 0 0 0 0 0 0
100 100 100 6 5 24 14 5 5 5 24 49 52 8 11 90 79 95 100 92 98 97 33 5 43 5 5 5 5 5 5 5 5 1 0 0 0 0 0 0 0 0 0 0
82 74 5 3 2 3 5 5 4 5 5 5 83 98 100 100 98 94 34 95 100 100 56 88 44 5 5 5 5 2 5 5 5 0 0 0 0 0 0 0 0 0 0 0
69 30 2 1 4 2 1 1 1 4 5 36 66 68 41 93 100 100 100 100 100 90 100 100 56 75 96 54 5 5 5 2 0 0 0 0 0 0 0 0 0 1 5 5
5 3 3 2 4 5 5 4 4 5 5 5 5 5 5 29 99 100 100 100 94 100 100 95 87 93 100 31 5 4 0 0 0 0 0 0 0 0 0 0 5 67 34 83
4 1 2 0 3 4 5 5 5 5 5 4 0 3 19 99 100 100 100 94 99 99 100 85 45 21 30 5 2 0 0 0 0 0 0 0 0 0 0 4 5 7 61 98
5 5 5 5 0 5 5 5 0 3 0 28 99 38 15 79 100 83 47 100 52 17 13 5 5 33 73 99 44 5 5 2 0 0 0 0 0 5 5 3 5 5 70 98
5 5 5 1 0 0 0 48 97 100 100 100 100 91 99 54 26 76 78 11 4 1 5 5 5 60 46 8 5 5 3 0 0 0 0 4 5 25 65 94 90 5 5 63
5 4 5 5 2 20 93 100 100 100 99 53 46 45 46 93 81 64 28 5 2 5 5 5 5 5 5 5 4 0 0 0 0 2 5 14 33 25 82 89 67 44 6 5
7 9 21 54 83 99 100 100 100 70 22 66 52 89 43 28 16 9 3 3 5 5 5 44 24 39 5 2 0 0 0 0 5 5 7 5 11 81 81 82 84 90 96 96
5 5 38 84 96 21 74 8 100 100 91 100 85 8 48 28 5 3 5 5 5 53 87 8 5 2 0 0 0 0 0 0 4 5 8 79 100 96 68 100 100 100 98 100
100 45 61 51 5 12 45 52 100 100 89 5 5 5 5 5 0 4 3 5 5 5 5 0 0 0 0 0 0 0 3 5 5 44 90 86 100 100 93 98 99 94 100 99
95 100 79 34 5 10 72 66 90 14 5 5 5 5 5 0 0 0 0 5 2 0 0 0 0 0 0 0 0 5 5 5 85 98 100 96 92 51 97 95 94 97 100 85
100 99 91 69 87 94 99 68 5 5 5 12 5 5 0 0 1 0 0 0 0 0 0 0 0 0 0 0 4 46 68 100 100 100 100 100 100 88 74 99 100 100 82 62
100 100 100 100 100 99 60 11 5 5 5 5 4 0 0 5 5 5 0 0 0 0 0 0 0 0 0 8 75 100 100 100 100 100 100 100 100 100 100 100 99 53 7 75
100 100 99 79 43 10 5 5 5 5 19 4 1 4 5 5 5 4 1 0 0 0 0 2 4 0 67 100 100 95 96 100 100 100 100 99 100 100 88 65 27 10 58 30
100 78 12 5 5 5 5 5 5 5 5 5 5 5 5 5 5 5 0 1 0 0 5 0 3 25 100 100 92 96 67 20 9 49 71 67 72 74 69 68 91 95 89 87
15 5 5 5 5 5 6 5 5 5 5 5 5 5 5 5 5 5 5 0 0 0 4 2 5 66 100 60 7 5 5 61 75 54 7 82 60 64 75 100 98 67 73 97
5 5 14 13 44 18 41 46 44 45 5 5 28 86 65 5 5 5 0 0 0 5 5 4 5 5 5 5 5 20 65 78 96 100 100 100 100 98 99 99 100 100 98 100
40 80 83 72 76 96 98 73 58 5 5 5 98 98 59 5 5 5 0 0 0 2 0 0 4 22 19 7 51 87 100 100 100 100 100 94 86 92 94 99 100 95 70 17
72 78 82 96 100 100 100 28 5 5 32 39 58 79 48 5 5 2 0 0 0 1 5 5 5 28 88 88 99 97 100 100 100 100 100 100 100 99 93 96 87 91 46 65

GFSNGP_prec_cloud_006.txt.gz
Cloud_Cover
28 5 39 86 100 100 100 100 100 100 100 100 100 100 100 100 100 100 100 100 100 100 100 79 46 11 5 5 5 8 70 97 79 17 4 4 3 0 0 0 0 0 0 0
100 100 100 100 100 100 100 100 100 100 100 100 100 100 100 100 70 5 3 0 0 0 1 5 5 5 5 22 12 6 5 5 5 5 5 5 2 0 0 0 0 0 0 0
100 100 100 100 100 100 100 100 100 100 100 100 100 46 5 5 5 5 0 2 5 30 25 33 5 5 5 5 5 5 5 5 5 5 5 5 0 0 0 0 0 0 0 0
100 100 67 98 82 97 81 100 100 100 100 100 84 10 5 5 4 2 5 8 24 5 5 5 26 5 72 5 5 5 5 5 5 5 4 1 0 0 0 0 0 0 0 0
100 100 100 100 96 100 100 100 100 100 100 42 11 5 5 4 4 5 3 3 4 5 14 18 78 99 97 18 5 5 5 5 5 5 4 1 0 0 0 0 0 0 0 0
100 100 100 100 100 100 100 100 96 24 13 5 5 5 5 5 2 2 2 5 88 71 89 100 99 64 5 5 5 5 5 5 5 5 0 0 0 0 0 0 0 0 0 0
84 100 100 100 100 66 57 6 5 5 5 3 2 3 4 5 5 5 5 12 54 99 96 66 100 52 50 72 39 5 5 5 5 5 5 2 1 0 0 0 0 0 0 0
75 48 12 15 13 10 5 5 5 4 3 5 5 5 5 5 5 6 43 75 92 100 87 48 100 85 91 40 5 5 5 5 5 5 5 1 0 0 1 2 3 0 0 1
18 13 8 16 83 85 5 5 6 12 56 22 5 5 4 5 5 57 97 100 100 100 100 100 100 96 9 5 5 5 5 5 5 4 5 5 34 20 5 5 1 0 5 56
71 34 44 73 94 82 59 5 7 10 5 5 4 5 5 0 6 84 87 100 100 100 100 99 86 89 5 5 5 3 0 0 4 5 14 75 45 3 0 0 3 24 100 100
99 14 5 5 23 62 77 65 38 9 5 5 5 5 5 8 6 46 100 100 100 100 93 95 50 5 4 3 5 0 1 5 24 10 5 2 0 0 0 3 65 100 91 100
86 44 7 5 5 5 5 5 5 5 3 1 2 5 17 82 98 16 82 100 78 45 5 23 26 4 4 5 0 0 0 1 2 0 0 0 0 0 0 5 18 79 88 100
6 5 5 5 5 3 0 0 0 0 0 0 5 34 100 100 100 100 46 7 5 5 16 23 5 5 5 0 0 0 0 0 0 0 0 0 0 5 39 5 5 5 53 98
5 5 5 4 0 2 0 67 92 77 68 82 100 100 100 100 92 28 5 5 5 48 5 5 32 16 0 0 0 0 0 0 0 0 0 4 5 41 84 87 88 17 5 50
5 3 4 5 5 5 92 100 100 100 100 100 94 80 68 30 5 5 5 5 5 5 5 40 20 0 0 0 0 0 0 0 0 4 5 5 5 5 71 92 91 26 57 21
5 7 48 66 91 88 86 98 100 100 95 50 14 20 5 5 5 5 5 5 5 73 69 10 1 0 0 0 0 0 0 0 5 5 5 5 5 48 94 88 94 91 100 94
5 5 68 10 84 94 5 39 89 34 98 32 48 5 5 5 5 5 5 21 79 18 5 0 0 0 0 0 0 0 0 1 5 5 5 5 80 98 87 98 98 76 61 52
9 78 96 43 9 19 7 5 16 22 88 14 5 5 5 5 5 5 16 12 5 2 4 4 0 0 0 0 0 0 5 5 5 5 5 35 97 100 86 45 74 100 97 74
100 100 100 79 47 12 5 5 5 23 5 5 5 5 5 5 6 22 6 5 5 0 4 5 0 0 0 0 4 5 5 5 5 57 99 100 86 78 98 100 98 97 100 100
99 71 46 30 62 41 5 5 5 5 5 5 5 5 5 5 5 5 5 5 5 4 5 0 0 0 0 0 5 26 36 85 98 100 100 100 100 100 100 96 100 100 100 94
99 95 42 5 21 5 5 5 5 5 5 5 6 5 5 5 5 5 1 2 5 5 3 0 0 0 0 6 79 87 70 90 100 100 100 100 100 92 100 100 84 66 96 100
5 5 8 5 5 5 5 5 5 5 5 7 5 5 5 3 3 5 5 4 5 5 0 0 0 0 9 85 77 5 82 82 46 19 10 65 100 97 88 85 81 83 92 94
25 14 9 5 15 11 6 5 16 37 12 5 5 5 5 5 5 5 0 5 5 5 3 0 1 5 57 100 44 5 5 5 5 29 74 88 100 86 92 100 100 100 97 99
34 33 20 12 10 40 26 9 6 5 5 5 5 5 5 5 5 5 5 5 5 2 2 0 2 6 71 16 1 5 5 8 24 5 5 82 88 95 100 100 96 94 100 96
42 48 46 16 19 5 5 5 5 5 5 5 5 5 5 5 4 1 1 5 5 1 0 0 4 5 5 5 5 5 5 71 99 100 100 92 77 99 99 97 94 100 100 100
5 5 5 5 41 48 20 5 5 5 5 5 21 39 5 5 5 5 5 5 2 1 0 0 2 5 5 5 27 73 94 100 100 100 100 74 79 89 98 99 99 86 87 81
11 22 66 76 85 76 42 5 5 5 5 5 6 14 5 5 5 5 5 3 0 0 1 4 5 5 54 59 87 88 100 100 100 100 100 100 100 97 97 99 100 92 99 84

GFSNGP_prec_cloud_009.txt.gz
Cloud_Cover
82 9 3 5 6 11 5 94 14 34 4 0 47 100 100 100 100 100 100 100 100 100 100 100 100 95 31 5 5 5 6 6 11 5 5 3 0 0 0 0 0 0 0 0
100 100 5 5 5 44 100 34 5 17 94 97 100 100 100 100 100 100 100 100 100 100 95 6 19 12 5 5 5 5 5 5 3 5 5 5 5 0 0 0 0 0 0 0
98 59 42 4 6 7 14 22 100 100 100 100 100 96 99 98 100 100 95 49 53 76 66 31 5 5 5 5 65 99 96 12 5 5 5 5 5 1 5 1 0 0 0 0
100 95 53 100 77 59 76 100 100 100 100 100 40 35 49 12 5 5 3 1 1 4 1 1 5 5 40 86 77 54 5 5 5 5 5 5 5 5 5 0 0 0 0 0
100 92 100 100 100 100 100 100 100 100 100 100 100 79 18 5 5 3 5 5 5 0 5 5 11 79 98 89 51 43 56 76 58 7 5 5 5 5 0 0 0 0 0 0
100 100 100 100 100 100 100 100 100 100 100 100 100 100 26 5 5 5 5 6 5 5 36 100 100 72 7 29 100 87 29 64 59 5 5 4 0 0 0 0 0 0 0 0
100 100 100 100 100 99 87 100 100 100 100 96 53 14 10 6 25 79 45 32 11 68 72 88 67 100 100 100 100 66 83 10 5 2 0 0 0 0 0 0 0 0 0 0
100 100 100 100 100 100 100 100 100 100 77 26 20 30 34 41 11 16 59 7 5 7 46 88 86 100 100 92 55 13 5 4 4 0 0 0 0 0 0 0 0 0 0 1
100 100 100 100 100 100 100 100 80 20 37 50 67 28 10 11 17 54 7 5 8 70 23 56 100 100 65 5 5 5 4 0 0 0 0 0 0 0 0 0 0 1 5 47
100 100 100 100 100 92 98 100 83 58 11 7 5 18 88 38 5 5 5 8 6 39 100 100 97 44 5 5 5 5 0 0 0 0 0 0 0 0 0 0 0 5 70 99
100 86 49 99 75 77 89 26 5 17 10 6 31 31 24 13 5 6 88 100 100 100 100 79 5 5 5 5 8 1 0 0 0 0 0 0 0 0 0 0 18 99 97 99
59 6 16 51 58 55 5 11 36 8 23 53 8 5 5 5 42 99 100 100 100 81 6 5 5 5 5 5 0 0 0 0 0 0 0 0 0 0 1 5 5 68 100 100
99 97 87 82 62 34 37 9 55 28 5 5 1 0 2 93 100 100 100 86 8 5 5 10 5 5 5 5 4 0 0 0 0 0 0 0 0 5 45 16 54 5 69 100
100 98 47 23 5 5 5 77 93 94 66 40 25 41 100 100 100 100 23 5 5 5 6 67 19 5 5 3 0 0 0 0 0 0 0 4 5 5 53 94 100 78 5 49
8 38 37 5 14 6 49 84 93 90 100 100 100 100 100 100 91 36 5 5 5 20 15 5 5 5 3 0 0 0 0 0 0 4 5 5 5 5 18 100 100 84 80 59
64 95 100 94 100 88 48 10 14 99 100 100 54 23 30 16 5 2 3 5 11 14 5 5 5 2 0 0 0 0 0 0 5 5 5 5 5 62 100 98 98 100 100 97
5 5 35 6 48 16 5 5 57 100 47 6 5 6 2 5 5 4 5 5 6 5 5 5 1 0 0 0 0 0 0 1 5 5 5 5 66 100 96 100 98 100 100 62
5 5 5 5 5 5 5 5 5 10 5 5 5 5 5 5 5 5 5 5 5 5 5 0 0 0 1 0 0 0 2 5 5 5 9 89 100 98 94 95 93 100 95 89
41 48 25 5 5 5 5 5 5 5 5 5 5 5 5 5 5 5 5 5 5 5 2 2 5 5 2 0 0 5 5 5 5 43 98 100 96 94 98 100 100 100 100 100
94 93 92 49 9 5 5 5 5 5 5 5 5 5 5 5 5 5 5 5 5 0 0 0 0 0 0 0 5 5 33 82 100 95 100 99 77 90 99 66 100 100 100 98
100 100 100 96 48 5 5 5 9 5 5 5 5 5 7 5 8 23 5 5 5 5 5 4 0 0 0 5 34 92 67 73 78 93 44 6 6 80 100 100 100 100 100 100
6 5 5 5 6 55 36 36 10 30 31 24 31 20 7 16 8 5 5 4 3 0 0 0 0 5 5 36 65 40 5 5 5 5 5 7 77 100 100 100 100 100 100 100
86 95 69 65 50 36 14 51 77 49 13 53 66 58 6 5 5 5 3 4 3 4 5 5 5 5 5 64 16 5 1 4 5 5 6 62 82 96 100 100 100 100 99 100
72 60 86 75 38 44 34 6 5 5 65 89 97 96 67 5 7 5 5 5 3 5 5 5 5 5 5 5 1 2 5 5 5 5 5 84 96 100 100 100 100 100 100 98
99 85 63 52 33 13 13 5 6 67 90 100 100 100 88 8 3 2 5 5 5 5 5 5 0 4 2 3 5 5 5 10 78 100 100 96 84 97 98 100 100 100 100 99
5 5 5 5 5 5 8 61 97 95 87 98 100 57 5 5 5 5 5 5 3 0 0 0 0 5 5 5 5 5 72 97 100 100 100 86 94 100 99 99 100 100 100 99
39 30 40 5 11 70 98 100 100 100 88 51 9 5 5 5 5 5 4 0 0 0 0 1 4 5 5 8 46 61 96 100 100 100 100 100 95 97 97 100 100 100 99 100

GFSNGP_prec_cloud_012.txt.gz
Cloud_Cover
94 14 18 61 90 86 50 5 0 0 0 0 0 97 85 5 62 74 61 91 100 100 100 100 96 76 78 99 99 46 5 6 9 16 5 5 5 5 5 1 0 0 0 0
88 78 81 5 7 5 5 5 0 0 0 0 18 99 44 100 99 60 100 100 100 100 100 99 100 98 26 10 53 9 5 52 58 5 5 5 5 0 0 0 0 0 0 0
91 99 66 5 5 5 5 35 2 1 6 94 55 67 75 100 100 100 100 100 93 90 95 98 96 43 28 8 5 32 76 55 18 5 5 5 5 5 0 0 0 0 0 0
100 84 35 99 18 4 5 52 95 100 100 100 51 48 99 100 100 96 100 100 100 88 40 61 55 29 5 32 93 100 14 5 9 5 5 5 4 0 0 0 0 0 0 0
100 100 100 100 100 100 97 100 100 100 100 100 100 100 82 82 100 99 100 87 63 72 56 78 12 45 16 17 34 6 59 76 6 5 4 0 0 0 3 5 5 1 0 0
100 100 100 100 100 100 100 100 100 100 94 98 100 98 100 92 67 100 14 82 54 25 6 14 9 9 52 5 5 22 97 7 5 2 0 5 5 5 5 1 0 0 0 0
100 95 100 100 100 100 95 100 100 59 88 100 100 100 85 100 99 99 98 40 8 61 26 8 65 100 80 5 22 64 5 4 0 1 5 5 3 5 0 0 0 0 0 0
100 100 100 95 90 93 100 100 100 100 100 100 100 100 100 100 100 100 94 33 6 5 86 100 100 62 11 60 38 4 0 5 6 16 4 3 5 0 0 0 0 0 0 1
99 100 100 100 100 100 100 100 100 100 100 100 100 100 100 100 100 47 8 58 44 33 68 24 5 43 51 5 0 0 3 5 20 6 5 5 0 0 0 0 0 0 5 45
92 100 100 100 100 100 100 100 100 100 100 100 100 100 89 32 12 80 44 17 5 93 97 100 100 65 4 0 6 26 22 5 5 5 5 1 0 0 0 0 0 7 99 96
94 100 100 100 100 100 100 100 100 100 100 99 85 12 6 35 48 44 34 5 14 58 100 100 46 2 5 5 5 5 0 5 5 5 0 0 0 0 0 0 26 100 96 100
100 85 88 100 100 100 100 89 49 61 62 9 5 50 59 56 45 44 5 67 53 100 95 13 5 5 5 5 4 1 5 5 5 0 0 0 0 0 4 6 61 7 74 100
5 5 10 12 10 6 17 13 28 5 6 51 53 70 54 57 16 37 86 92 90 14 5 2 0 3 4 0 2 3 5 5 2 0 0 0 4 5 6 5 5 5 52 100
7 51 9 5 5 32 98 100 100 92 86 38 61 73 95 100 40 6 19 28 5 1 0 0 1 0 0 0 0 3 5 3 0 0 1 5 5 5 5 41 83 50 9 95
44 24 25 43 64 26 57 73 64 18 7 37 98 100 100 24 5 5 5 5 2 3 0 0 0 0 0 5 5 5 5 0 0 4 5 5 5 5 18 97 100 100 99 78
88 99 100 100 100 100 67 25 5 5 23 100 100 83 18 5 5 5 5 5 5 5 0 0 0 0 2 5 4 5 0 0 5 5 5 5 5 88 100 100 100 100 100 100
93 99 100 100 63 8 5 5 5 5 92 73 7 5 5 5 5 5 5 5 5 1 0 0 0 3 4 5 2 0 0 3 5 4 5 5 94 100 100 100 100 100 100 86
100 100 100 34 73 37 5 5 5 5 59 5 5 5 5 5 5 5 5 5 0 3 5 2 0 5 5 0 0 0 2 5 5 5 8 96 100 95 43 93 100 100 99 94
80 52 75 36 5 5 5 5 5 5 5 5 5 5 5 5 5 5 5 5 5 5 5 5 5 2 0 1 0 1 5 5 5 27 100 84 85 93 56 85 100 100 100 96
29 84 56 5 5 5 5 5 5 5 5 5 5 5 5 5 5 5 5 5 5 5 5 5 0 0 0 0 4 5 5 26 56 71 82 88 12 5 45 76 100 100 100 100
68 26 5 5 5 5 5 5 5 5 5 5 7 24 14 5 5 5 19 39 5 5 5 0 0 0 0 3 8 57 5 5 5 5 5 5 5 35 100 100 100 100 100 100
90 61 61 74 88 62 6 5 8 5 5 8 36 37 36 43 43 9 5 9 5 5 0 0 0 0 5 5 5 5 5 5 5 5 5 7 70 100 100 100 100 100 100 100
95 97 100 99 100 82 49 8 5 18 56 63 21 5 14 5 5 5 5 62 16 0 0 0 0 3 5 5 5 4 1 2 5 5 5 42 84 100 100 100 100 100 100 100
72 94 92 93 38 5 5 5 8 55 15 5 5 5 5 5 28 78 14 5 1 2 0 1 1 5 5 3 0 0 5 5 5 5 5 89 90 100 100 100 100 100 94 87
45 40 18 5 5 5 5 5 5 5 5 5 5 5 11 9 5 5 5 5 5 3 0 0 0 0 0 1 5 5 5 5 17 100 99 84 90 100 100 100 100 100 100 95
50 8 5 5 5 5 5 5 5 7 9 41 52 60 73 50 5 5 5 5 0 0 0 0 0 5 5 5 5 5 5 5 68 88 100 83 99 100 100 100 100 95 100 100
64 30 25 5 5 5 5 47 82 90 84 96 99 80 60 5 5 5 4 0 3 4 0 1 4 5 5 5 5 5 6 72 99 100 100 100 100 99 100 100 100 100 100 100

GFSNGP_prec_cloud_015.txt.gz
Cloud_Cover
100 100 36 67 2 1 6 2 5 30 13 0 0 0 0 0 0 3 5 5 5 5 84 100 88 99 100 84 56 76 83 63 63 84 56 31 18 5 5 5 5 0 0 0
77 92 5 5 5 5 5 84 36 5 0 0 0 0 0 0 5 5 5 71 21 52 83 100 100 61 69 78 80 94 99 96 99 85 5 5 5 5 5 4 0 0 0 0
76 100 68 5 10 4 18 48 56 5 2 0 0 0 3 0 8 54 100 99 100 97 97 99 57 58 53 74 88 100 100 98 20 5 5 4 2 5 0 0 0 0 0 0
94 73 39 80 9 5 5 12 5 65 92 4 0 2 2 4 94 96 100 100 100 100 97 100 85 92 98 82 100 100 42 5 5 5 0 0 0 0 0 0 0 0 0 0
89 12 48 88 100 100 99 73 5 64 99 43 5 5 5 75 97 100 100 99 98 100 100 100 86 46 94 100 100 11 5 5 4 0 0 0 0 0 0 0 0 0 0 0
100 100 100 100 100 86 48 98 100 100 100 88 76 78 100 100 100 100 100 100 100 100 97 56 67 100 100 100 28 5 5 3 2 0 0 0 0 0 4 0 0 0 0 0
92 63 94 100 100 90 99 95 100 91 100 98 100 100 100 100 100 100 100 100 99 100 95 100 100 100 100 83 8 5 3 0 1 0 0 0 0 0 0 1 0 0 0 0
100 100 100 100 78 88 100 100 100 100 100 100 100 100 100 100 100 100 100 99 97 100 100 100 100 100 78 5 5 1 0 5 0 0 0 0 0 0 0 0 0 0 0 3
100 100 100 100 100 100 92 98 99 99 100 100 100 100 100 100 100 95 62 41 77 100 58 100 100 68 68 5 1 2 4 0 0 0 0 0 0 0 0 0 0 0 5 14
100 100 100 100 100 100 100 100 100 100 100 100 82 79 84 64 48 10 41 100 57 29 54 62 100 98 25 5 5 5 0 0 0 0 0 0 0 0 0 0 4 5 52 85
92 66 81 7 5 46 100 100 100 97 98 93 84 75 68 66 24 80 75 50 18 16 19 83 100 53 4 4 2 0 0 0 0 0 0 0 0 0 0 5 22 77 65 99
21 5 5 5 37 13 6 32 86 26 5 64 82 80 26 67 72 74 96 98 57 80 100 82 5 3 0 0 0 0 0 0 0 0 0 0 0 0 5 5 11 32 91 100
89 100 100 22 5 4 4 5 28 60 79 67 46 71 72 67 100 95 100 84 38 77 7 5 0 0 0 0 0 0 0 0 0 0 0 0 5 5 5 5 5 53 92 100
57 5 4 5 5 5 8 39 57 94 77 51 57 75 100 94 91 38 5 5 10 1 0 3 5 5 0 0 0 0 0 0 0 0 0 5 5 5 5 18 90 59 38 100
5 5 5 5 50 93 97 100 99 96 80 64 97 100 66 29 26 5 5 5 3 5 5 5 4 2 0 0 0 0 0 0 0 3 5 5 5 5 20 96 100 100 84 43
12 6 61 100 100 100 100 100 100 54 97 100 63 85 14 5 5 5 5 5 4 2 0 5 1 0 0 0 0 0 0 0 4 5 5 5 10 60 100 100 100 100 99 99
100 100 100 100 100 100 73 59 100 100 66 63 54 8 5 5 5 4 5 3 5 5 3 0 0 0 4 0 0 0 0 3 5 5 5 11 72 99 100 99 80 100 100 81
100 100 99 100 84 50 62 92 100 77 60 72 5 5 5 5 5 5 5 5 5 1 4 5 5 5 5 0 0 0 0 5 5 5 8 90 100 79 8 83 76 100 100 97
79 58 84 80 84 94 73 23 5 5 5 5 5 5 5 5 5 5 5 5 4 5 5 5 5 5 3 0 0 0 2 5 5 5 68 54 74 38 5 40 100 100 100 100
65 43 8 10 8 5 5 5 5 5 5 5 5 5 5 5 5 5 5 5 5 5 5 5 5 4 0 0 4 5 5 5 5 5 13 45 6 5 12 92 100 100 100 100
66 74 58 24 9 26 45 20 24 22 5 5 5 5 6 18 31 40 17 5 5 5 5 5 5 0 0 5 5 5 5 5 5 5 5 5 5 12 95 100 100 100 100 100
80 50 32 25 22 32 28 7 5 5 10 32 57 91 94 98 71 18 7 5 5 5 5 5 2 0 5 5 5 5 5 5 4 5 5 5 37 98 100 100 100 100 100 100
77 60 75 89 92 92 41 12 5 9 62 94 99 86 77 48 6 5 5 5 5 5 5 5 3 2 5 5 2 0 0 0 5 5 5 20 88 100 100 100 100 100 100 100
100 100 100 100 87 11 5 35 43 47 59 58 32 7 5 5 5 5 5 5 5 5 5 4 0 4 5 0 0 0 5 5 5 5 5 89 96 100 100 100 100 100 100 100
98 100 99 87 27 34 51 46 9 5 5 6 5 5 5 5 50 56 59 68 12 5 3 0 0 0 0 0 5 5 5 5 17 99 99 92 90 100 100 100 100 100 100 100
100 96 68 39 12 6 14 12 8 5 8 6 54 70 23 5 5 5 5 5 3 0 0 0 0 5 5 5 5 5 5 5 30 62 100 98 100 100 100 100 100 100 100 100
82 51 35 21 54 40 14 6 35 42 69 69 58 19 5 5 5 5 5 5 5 0 0 1 4 5 5 5 5 5 5 18 90 100 100 98 98 100 100 100 100 100 100 100

GFSNGP_prec_cloud_018.txt.gz
Cloud_Cover
1 0 1 11 53 5 1 28 6 5 5 0 5 5 0 0 0 0 0 0 0 1 3 5 5 5 5 60 65 84 36 5 5 60 55 29 51 36 46 5 1 3 2 0
5 5 4 4 5 0 0 2 0 4 3 0 5 2 0 0 0 0 4 5 5 4 2 5 5 34 64 89 94 29 5 40 28 26 100 67 67 5 3 0 4 0 0 0
79 6 70 8 26 78 47 0 0 0 51 4 4 0 0 0 0 4 5 2 0 5 5 5 64 98 25 74 49 49 25 62 51 67 21 5 5 1 2 0 0 0 0 0
58 62 62 42 12 5 5 4 0 3 3 4 3 0 0 0 0 5 5 2 4 5 39 100 95 90 76 100 85 70 29 21 38 46 9 2 0 0 0 0 0 0 0 0
90 6 30 59 7 5 4 5 5 5 5 5 5 5 5 5 3 52 45 30 86 100 100 100 100 100 100 71 85 79 41 51 5 5 0 0 0 0 0 0 0 0 0 0
96 80 100 54 5 5 4 5 5 5 5 5 37 6 5 12 98 95 99 100 100 100 100 100 100 97 98 39 100 57 18 5 5 0 0 0 0 0 0 0 0 0 0 0
100 100 90 100 92 85 90 100 64 98 84 73 74 61 87 100 100 100 100 100 100 100 100 100 98 29 77 100 100 40 8 5 1 0 0 0 0 0 0 0 0 0 0 0
98 95 92 65 96 84 74 56 48 94 98 87 61 92 86 100 100 100 100 100 100 99 96 58 67 96 100 100 22 5 3 2 0 0 0 0 0 0 0 0 0 0 0 0
100 100 95 87 84 97 74 82 90 100 100 100 100 100 100 100 100 100 100 100 98 50 24 42 98 100 6 6 5 5 4 0 0 0 0 0 0 0 0 0 0 0 0 5
100 100 100 100 100 100 100 100 100 100 100 100 100 100 100 100 100 100 98 80 78 79 82 100 93 32 5 5 5 2 0 0 0 0 0 0 0 0 0 0 0 1 5 5
100 100 100 100 100 100 100 100 100 100 100 100 100 100 100 100 100 100 100 100 94 76 64 28 5 5 5 5 3 0 0 0 0 0 0 0 0 0 0 0 5 5 5 67
100 91 94 93 100 100 100 100 100 100 71 31 85 100 99 99 100 100 100 96 16 6 5 5 5 5 4 0 0 0 0 2 4 0 0 0 0 0 0 5 6 25 62 99
86 63 50 64 51 5 5 5 5 3 4 5 86 92 100 100 100 100 83 31 5 5 5 5 4 0 0 1 0 0 0 0 0 0 0 0 0 0 0 0 5 64 89 100
5 5 57 41 5 5 5 5 0 0 5 56 100 93 96 100 100 80 12 5 5 5 5 5 5 2 5 3 1 0 0 0 0 0 0 0 1 5 5 5 11 18 68 96
5 5 5 1 4 5 5 4 3 5 55 76 83 88 100 100 76 26 5 5 5 5 5 5 5 5 5 5 1 0 0 0 0 0 0 3 5 5 5 55 93 96 79 69
5 5 5 2 1 28 4 5 39 70 99 100 99 80 25 11 54 25 5 5 5 5 5 5 5 5 4 0 0 0 0 0 0 0 2 5 5 5 30 84 97 99 100 98
5 15 13 99 96 73 92 92 100 100 96 58 53 55 70 6 5 5 5 5 5 5 5 5 5 3 5 0 3 4 0 0 2 5 5 5 5 48 91 98 99 96 100 100
5 21 56 88 99 97 100 97 97 100 88 89 97 25 5 12 31 9 5 5 5 5 5 5 5 5 5 5 5 0 0 0 4 5 5 5 26 85 92 84 95 100 100 100
80 74 74 97 84 93 100 100 93 97 100 77 19 81 43 8 14 10 14 8 5 5 5 5 5 5 5 5 3 0 2 5 5 5 5 5 7 45 27 76 100 100 100 100
100 100 84 81 100 100 100 99 100 99 76 100 83 56 38 7 39 20 5 5 5 5 5 5 5 5 5 5 0 5 6 5 5 5 5 5 5 5 7 79 100 100 100 100
94 98 100 100 100 94 99 88 100 100 99 88 32 28 77 53 26 5 5 5 5 5 5 5 5 5 5 1 5 5 5 5 5 4 5 5 5 23 68 100 100 100 100 100
99 100 99 81 99 100 100 90 69 66 28 10 36 27 37 21 5 5 5 5 5 5 20 40 5 5 4 5 5 5 4 0 0 1 5 5 31 95 100 100 100 100 100 100
100 100 94 95 95 68 54 40 13 18 24 5 8 10 12 9 5 5 5 5 18 64 24 5 5 4 5 5 4 0 0 0 4 5 6 71 100 100 100 100 100 100 100 100
74 60 42 14 9 11 6 5 5 6 49 76 30 6 5 5 5 5 47 60 7 5 5 0 0 4 5 0 0 0 5 5 5 54 98 100 100 100 100 100 100 100 100 100
61 53 82 94 85 33 18 56 84 32 14 14 6 12 5 5 19 14 5 5 5 5 4 0 0 0 0 1 5 5 5 5 63 100 100 100 100 100 100 100 100 100 100 100
94 99 100 100 100 100 99 78 40 16 7 32 22 5 5 25 9 5 5 5 5 5 0 0 0 4 5 5 5 5 6 72 100 100 100 100 100 100 100 100 100 100 100 100
100 100 100 100 100 93 71 8 35 68 27 15 17 40 51 16 5 5 5 5 5 2 0 0 0 4 5 5 5 5 93 100 100 100 100 100 100 100 100 100 100 100 100 100

GFSNGP_prec_cloud_021.txt.gz
Cloud_Cover
100 100 100 100 99 98 72 74 5 5 7 6 51 9 0 5 4 0 0 0 0 0 0 0 0 0 1 1 4 5 8 61 46 5 52 54 42 5 5 5 5 5 4 0
100 100 100 68 56 5 33 6 6 38 5 56 5 5 5 3 5 0 0 0 0 1 5 5 3 2 5 3 5 26 80 47 5 98 100 26 5 5 5 5 5 0 0 0
97 29 5 3 5 5 76 22 24 11 93 11 1 1 2 2 5 1 0 0 5 5 5 0 0 0 5 5 64 95 62 75 100 100 92 34 5 7 5 5 1 0 0 0
90 76 83 5 0 0 1 4 0 0 5 5 2 0 1 0 5 0 0 0 5 5 3 0 2 5 66 100 85 71 96 100 100 88 10 5 5 5 2 0 0 0 0 0
90 81 54 7 3 2 0 3 5 5 5 5 0 4 0 0 4 1 0 5 5 4 4 31 73 96 100 100 99 99 100 100 71 6 5 2 1 0 0 1 1 0 0 0
62 64 88 55 5 5 4 5 5 2 3 5 5 5 9 5 5 5 5 5 12 86 74 100 100 100 100 100 93 98 58 5 5 5 4 0 0 2 5 1 0 0 0 0
100 95 68 34 27 5 5 11 5 5 5 5 5 5 66 8 34 61 75 95 97 94 100 100 100 100 98 90 13 5 5 10 5 2 0 0 5 2 0 0 0 0 0 0
100 99 100 67 94 74 99 51 5 9 75 84 13 28 87 80 74 92 100 100 100 100 100 100 98 96 77 58 41 37 53 5 5 5 3 4 0 0 0 0 0 0 0 0
91 100 100 98 87 50 69 26 96 75 40 18 70 84 98 84 99 100 100 100 100 100 100 96 69 88 93 76 88 62 5 5 5 1 0 5 0 0 0 0 0 0 0 0
100 100 100 91 64 86 100 100 100 100 100 100 100 100 100 100 100 100 100 97 95 81 51 84 100 98 70 79 90 5 5 5 3 5 5 3 0 0 0 0 0 0 2 5
100 100 100 100 100 100 100 100 100 100 100 100 100 100 100 100 100 100 100 100 77 94 100 96 100 100 100 81 6 5 5 5 5 5 0 0 0 0 0 0 1 5 5 23
100 100 100 100 100 100 100 100 100 100 100 100 100 100 100 100 85 29 5 10 24 94 100 100 100 100 74 21 5 5 5 5 5 4 3 0 0 0 0 0 2 5 26 94
100 100 100 100 100 100 79 58 70 95 95 100 74 30 8 8 5 5 5 91 100 100 100 100 86 60 6 5 5 5 5 5 5 3 0 0 0 0 0 0 0 2 23 78
63 6 14 7 5 5 17 22 5 5 5 2 2 0 5 5 8 85 100 100 99 100 98 70 18 15 40 27 5 5 5 5 4 0 0 0 0 0 0 0 3 5 5 63
6 5 5 5 18 12 5 5 5 5 2 3 5 5 30 81 100 100 98 100 84 31 5 17 36 17 5 5 5 5 5 0 0 0 0 0 0 0 1 5 5 5 5 5
5 8 5 5 5 5 5 5 5 4 4 28 93 89 100 100 100 100 79 11 5 24 49 67 17 5 5 5 5 4 0 0 0 0 0 0 0 4 5 5 5 5 5 5
12 80 100 100 24 5 5 5 5 7 75 100 100 100 100 85 48 17 6 36 54 72 58 5 5 5 5 5 3 5 5 0 0 0 1 5 5 5 5 5 5 5 5 58
36 10 5 7 5 6 11 75 71 100 100 100 100 73 32 5 11 44 47 70 71 65 30 29 12 5 2 5 5 5 5 0 0 4 5 5 5 5 5 5 5 18 23 74
89 52 10 9 41 53 89 100 100 100 100 70 78 62 54 53 55 55 70 68 36 19 6 5 5 5 5 5 5 5 1 3 5 5 5 5 4 5 5 5 5 5 89 88
87 98 40 87 99 100 100 100 77 78 98 100 100 92 69 69 78 61 34 10 6 5 5 2 5 5 5 5 5 4 5 5 5 5 0 3 0 0 5 5 48 93 100 100
100 99 93 94 100 100 100 85 100 100 100 79 67 53 34 5 5 5 5 5 5 1 4 5 5 5 5 5 4 5 5 5 0 0 0 0 2 5 5 8 91 100 99 100
100 100 100 100 100 100 100 100 97 91 93 54 13 5 17 7 6 5 5 5 4 5 5 5 5 5 3 5 5 3 3 0 0 0 0 4 5 25 83 100 100 100 100 100
100 100 100 100 100 100 100 100 100 88 96 96 59 15 21 5 5 5 5 5 5 5 5 5 5 5 4 4 0 0 0 0 0 3 5 5 78 97 100 100 100 100 100 100
100 100 100 100 100 100 77 52 97 100 96 43 11 30 27 5 18 5 5 5 5 5 5 5 5 5 5 1 0 0 0 0 5 5 47 99 100 100 100 100 100 100 100 100
100 100 99 74 41 17 84 100 100 70 18 14 9 8 71 68 67 74 26 18 6 5 5 4 0 0 0 0 0 0 3 5 11 97 99 100 98 100 100 100 100 100 100 100
99 99 93 84 34 29 88 77 35 5 6 24 81 100 100 96 96 75 42 34 6 5 0 0 0 1 3 3 5 5 5 5 45 83 100 100 100 100 100 99 100 100 100 100
62 70 76 85 89 86 50 23 68 94 100 100 100 100 100 100 65 33 9 5 5 2 0 0 0 1 5 5 5 5 6 70 93 100 100 100 100 100 100 100 100 100 100 100

GFSNGP_prec_cloud_024.txt.gz
Cloud_Cover
100 100 99 100 100 95 5 22 5 35 5 5 5 4 0 0 5 5 5 0 0 0 0 0 0 0 0 4 0 2 3 2 5 78 88 100 100 100 100 100 100 100 49 5
100 100 100 100 100 45 5 5 5 5 5 80 12 5 2 5 3 1 0 5 0 0 0 0 0 5 5 3 0 0 5 40 99 100 88 100 100 100 100 99 49 27 5 1
100 100 100 100 100 99 100 40 40 46 84 61 20 14 5 5 1 3 0 0 0 0 0 1 5 5 3 0 4 27 95 100 100 85 100 100 100 99 38 5 5 4 0 0
37 61 78 89 81 65 100 72 35 62 45 7 5 5 40 5 0 2 0 4 1 0 0 5 5 5 0 5 9 81 100 100 100 100 100 100 39 5 5 5 5 0 1 0
99 77 94 100 58 93 8 37 13 6 4 3 4 4 0 0 5 4 0 2 4 5 5 5 5 8 71 98 100 100 100 100 100 100 66 5 12 46 18 5 2 0 0 0
100 97 37 55 6 5 7 14 4 5 5 5 0 0 4 3 5 5 5 5 18 56 92 99 96 100 100 100 100 100 100 100 93 6 5 19 5 5 5 0 0 0 0 0
91 85 94 100 88 38 32 55 5 5 1 0 0 0 3 5 5 10 23 60 62 62 98 99 100 100 100 100 100 100 74 6 12 7 5 5 5 5 5 4 1 0 0 0
98 75 74 41 91 98 91 88 16 5 5 5 5 5 32 19 25 43 34 53 98 100 100 100 80 84 100 98 63 7 10 27 5 5 18 31 5 5 5 0 0 0 0 0
99 100 100 100 81 100 80 80 60 47 33 35 41 75 100 100 100 99 100 100 100 100 95 99 100 80 84 99 85 76 40 5 71 100 52 5 5 3 0 0 0 0 0 0
77 100 100 100 77 78 100 64 80 99 100 95 53 79 99 100 100 100 100 100 100 100 100 100 96 86 63 85 86 21 90 100 97 8 5 5 5 5 5 1 0 0 0 5
100 90 94 100 99 100 100 100 100 100 100 100 100 100 100 100 100 100 100 100 100 100 82 20 35 67 81 96 100 100 91 42 5 5 5 5 5 5 3 0 0 0 5 5
100 100 100 100 100 100 100 100 100 100 100 100 100 100 100 100 100 100 100 90 18 7 5 20 62 99 100 100 91 45 5 5 5 5 5 5 5 2 0 0 0 2 5 52
100 100 100 100 100 100 100 100 100 100 100 100 100 100 100 100 75 14 6 3 5 5 89 99 100 100 98 63 16 5 5 5 5 5 5 0 0 0 0 0 0 0 5 5
100 100 100 100 100 100 100 100 82 26 48 35 22 5 5 4 1 3 16 86 84 100 98 69 78 75 38 37 6 5 5 5 5 3 0 0 0 0 0 0 0 0 0 5
100 100 100 100 100 100 100 100 76 5 5 5 5 0 0 4 5 9 65 95 100 82 58 41 42 45 6 5 5 5 5 3 0 0 0 0 0 0 0 0 3 5 5 5
22 92 100 97 100 100 59 6 5 23 69 5 4 4 5 5 40 96 98 94 65 44 63 44 13 5 5 5 5 4 0 0 5 0 0 0 0 0 0 5 5 5 5 5
34 100 100 99 50 41 95 42 59 96 68 5 5 5 39 98 100 100 63 53 60 35 5 5 5 5 5 5 5 0 2 5 5 0 0 0 0 0 5 3 4 5 5 5
5 5 34 5 15 74 57 40 72 29 5 26 82 89 100 100 100 47 50 7 5 5 5 5 5 5 5 2 0 4 5 5 0 0 0 0 0 4 0 0 0 5 5 5
56 40 28 12 5 5 15 6 12 87 99 88 97 100 95 54 65 51 5 22 5 5 5 5 5 2 0 4 5 5 5 0 1 5 4 0 0 0 0 0 4 5 10 80
100 100 100 71 5 13 14 81 99 85 95 100 100 85 58 33 48 30 38 8 5 5 5 5 4 4 5 5 5 3 0 0 3 0 0 0 0 0 0 3 19 89 100 100
100 100 100 90 96 100 100 100 100 100 100 100 85 62 99 78 70 63 38 63 10 5 5 5 5 5 5 5 5 0 0 0 0 0 0 0 0 1 5 5 79 100 100 100
100 100 100 100 100 100 100 100 100 100 75 67 100 100 100 100 91 74 100 89 10 5 5 5 5 5 5 5 0 0 0 0 0 0 0 0 5 5 10 64 94 100 100 100
100 100 100 100 100 98 78 43 62 98 100 100 100 99 99 89 93 100 76 9 5 5 5 5 17 6 5 1 0 0 0 0 0 0 3 5 24 97 100 100 100 100 100 100
100 100 100 100 100 95 91 100 100 100 100 100 100 99 100 100 100 100 93 54 66 57 8 6 5 5 5 0 0 0 0 0 3 5 10 98 97 94 100 100 100 100 100 93
100 100 100 100 100 100 100 100 100 100 100 100 100 100 100 100 94 70 100 92 16 5 5 5 5 5 1 0 0 0 3 5 5 88 67 63 91 92 97 100 100 100 100 92
100 100 92 98 100 97 92 88 100 100 100 100 100 100 98 86 100 98 44 6 15 5 5 5 5 5 0 0 3 5 5 5 6 52 99 88 96 100 100 100 100 100 100 100
100 99 97 94 99 97 86 88 92 90 100 98 86 99 100 100 70 68 86 87 19 6 5 5 4 0 0 4 3 2 5 5 54 100 99 27 80 100 100 100 100 100 100 100

GFSNGP_prec_cloud_027.txt.gz
Cloud_Cover
100 100 100 100 100 100 100 100 100 100 100 100 18 2 0 0 0 2 5 5 5 0 5 5 5 5 0 5 2 1 5 4 1 9 75 50 94 73 98 100 100 82 88 95
100 100 100 100 87 100 100 100 100 100 100 100 14 4 0 0 3 5 5 0 0 0 4 5 5 1 0 4 5 5 5 0 5 30 98 82 83 100 100 86 100 100 32 7
100 100 100 100 100 100 100 100 100 67 80 5 5 4 4 5 5 5 1 5 2 3 5 5 3 0 5 5 5 5 2 5 38 100 100 100 100 100 97 100 86 33 12 5
100 100 98 84 98 84 100 100 57 75 100 6 5 5 5 5 5 5 5 1 0 1 4 5 4 5 5 5 13 66 67 100 89 100 100 100 100 100 49 5 5 5 5 5
76 87 99 97 90 80 100 25 25 5 78 9 4 5 5 5 5 5 5 4 5 1 4 5 10 5 5 10 98 93 99 100 100 100 100 100 95 28 5 5 5 5 6 5
75 100 100 97 67 98 52 19 99 74 83 39 5 2 2 0 0 0 2 5 5 5 5 5 7 71 100 93 79 98 100 100 100 100 100 98 14 5 5 5 5 6 3 5
100 100 100 100 100 55 43 58 79 58 20 5 5 4 3 1 1 5 5 5 5 6 5 58 43 11 16 65 96 100 100 100 100 100 94 39 6 5 5 5 5 5 5 2
100 99 93 70 98 83 71 91 94 98 81 28 5 4 5 5 5 5 5 10 41 56 25 74 60 46 31 57 93 100 94 100 94 57 5 5 19 56 25 5 5 5 0 0
45 98 38 32 5 39 18 5 5 5 5 5 5 5 5 5 8 63 58 45 77 54 52 54 60 89 65 98 69 100 100 91 43 44 63 82 39 12 5 5 4 0 0 0
95 100 77 100 100 98 12 14 7 6 11 5 23 40 21 75 90 100 100 100 100 100 100 100 98 71 59 92 100 98 32 22 95 100 94 66 5 5 5 1 0 0 0 5
100 72 74 73 67 92 96 98 94 85 93 100 100 100 100 100 100 100 100 100 100 100 100 94 50 82 83 97 42 9 80 100 97 72 16 5 6 5 1 0 0 0 5 5
100 100 100 100 100 100 97 90 99 96 100 100 100 100 100 100 100 100 100 100 100 95 13 5 57 41 10 5 74 100 70 68 22 5 5 5 5 1 0 0 0 0 5 5
100 100 100 100 100 100 100 100 100 100 100 100 100 100 100 100 100 100 100 35 6 5 5 5 49 21 62 100 84 46 6 5 5 5 5 5 0 0 1 2 0 0 2 5
100 100 100 100 100 100 100 100 100 100 100 100 100 97 78 6 5 4 2 5 5 26 91 92 64 94 98 28 5 5 5 5 5 5 2 0 0 0 0 0 0 0 0 4
100 100 100 87 88 100 100 100 91 100 98 68 10 9 5 0 0 4 9 52 37 70 60 49 85 42 5 5 5 5 5 5 5 2 0 0 5 0 0 0 0 0 0 0
100 100 100 100 100 100 97 69 88 99 89 90 75 35 5 5 5 17 93 100 79 46 34 16 5 5 5 5 5 5 5 5 2 0 4 1 0 0 0 0 0 0 0 0
100 100 100 100 100 100 89 83 100 87 94 100 82 80 5 8 83 95 100 99 42 16 5 5 5 5 5 54 5 5 5 5 5 5 0 0 0 0 0 0 0 0 0 8
100 100 100 97 76 48 30 6 47 100 100 97 91 38 95 74 80 100 100 57 45 46 56 8 37 92 80 91 75 30 5 5 5 5 2 0 0 0 0 0 0 2 5 8
35 100 87 9 39 14 6 15 100 100 100 42 92 94 71 92 100 100 93 64 83 68 27 94 100 100 100 96 78 7 5 5 5 5 0 0 0 0 0 0 5 12 74 97
45 94 100 100 100 96 89 100 100 73 81 95 98 100 100 100 97 100 79 85 48 76 100 100 100 100 100 66 5 5 5 5 5 5 2 0 0 0 0 5 73 87 100 100
100 100 100 100 100 88 100 88 62 72 94 100 100 100 100 100 97 99 82 86 99 100 100 100 100 99 44 13 22 5 5 5 5 0 0 0 0 3 5 5 56 100 100 100
100 100 100 100 88 98 100 100 100 100 100 100 100 100 84 100 88 78 91 100 100 100 100 96 100 87 68 64 28 10 5 5 3 0 0 0 5 10 66 95 100 100 100 100
100 100 100 100 100 100 100 100 100 100 100 69 51 92 98 100 99 100 100 100 100 94 98 100 97 42 22 53 18 5 5 1 0 0 5 5 55 94 80 100 100 100 100 100
100 100 100 100 100 100 100 100 99 79 90 100 100 100 100 100 100 100 100 99 83 96 99 74 43 14 24 5 5 5 0 0 5 5 5 64 8 5 74 100 100 100 100 98
100 100 100 100 100 100 100 100 100 100 100 100 98 92 100 100 100 99 93 98 93 88 40 16 18 7 5 5 4 0 2 5 5 67 6 54 92 100 100 100 100 100 99 86
100 100 100 100 99 100 99 94 99 98 80 85 100 100 100 94 73 69 60 33 22 41 7 5 5 5 2 0 3 0 1 5 5 6 97 92 82 73 99 100 100 100 100 100
100 100 100 100 100 88 68 76 85 89 84 73 75 73 68 48 21 5 5 5 5 5 5 1 0 0 0 2 0 2 5 5 33 89 33 16 80 100 100 100 100 100 100 100

GFSNGP_prec_cloud_030.txt.gz
Cloud_Cover
100 100 100 100 100 100 100 100 100 100 100 100 100 100 100 99 5 5 5 5 5 20 59 46 77 73 12 5 5 5 5 5 5 5 5 16 36 32 99 72 24 75 84 58
100 100 100 100 100 100 100 100 100 100 100 100 100 100 100 99 6 5 5 5 5 55 89 66 41 7 5 4 5 5 5 5 10 5 40 100 90 85 87 49 85 68 60 30
100 100 100 100 100 100 100 100 100 100 100 100 100 100 100 26 5 5 6 17 51 23 47 50 8 5 5 4 5 5 5 62 63 68 100 89 64 88 100 100 89 90 89 28
100 100 87 93 80 100 100 100 91 100 100 100 100 100 100 61 5 5 6 60 37 49 66 67 27 5 4 5 5 5 73 77 78 100 80 95 98 84 98 45 78 98 38 5
100 100 100 57 62 66 94 100 77 90 17 100 100 84 59 64 51 6 5 5 18 57 16 5 5 5 5 5 5 76 85 80 100 97 91 76 93 30 36 98 57 5 5 5
92 31 62 98 82 51 50 72 15 5 12 5 5 79 100 98 38 74 63 48 5 5 5 5 5 5 5 25 72 65 100 100 48 61 80 6 62 100 92 6 7 41 5 5
100 100 69 49 58 100 100 100 71 29 5 5 72 97 68 100 48 5 5 5 5 5 5 5 5 5 11 90 100 99 46 5 44 52 17 100 99 31 5 40 43 21 5 5
99 96 100 100 100 100 100 100 99 80 89 100 100 89 11 5 5 5 5 5 4 4 5 5 26 84 99 88 14 5 5 62 44 39 90 65 16 5 5 5 5 5 5 5
84 66 99 100 100 100 100 100 100 100 100 100 80 82 95 54 6 5 5 5 5 5 5 7 20 10 6 5 5 5 5 41 64 62 6 5 5 5 5 5 5 5 4 0
7 19 42 9 100 100 100 100 98 99 96 82 82 72 60 6 5 5 12 5 5 5 5 5 5 5 5 5 5 8 62 77 32 5 5 5 5 5 5 5 5 0 0 1
88 84 93 98 93 98 100 100 100 100 98 100 100 100 100 100 100 83 28 5 5 5 5 5 5 5 5 5 43 80 43 5 5 7 5 5 5 7 39 5 2 2 5 5
100 100 100 100 100 100 100 100 100 100 100 100 99 98 66 40 18 20 22 5 19 15 5 5 5 5 5 23 51 5 5 16 12 5 5 5 72 99 24 5 13 5 0 5
100 100 100 100 100 100 100 100 100 98 99 78 98 100 79 26 14 12 33 27 23 6 0 5 5 6 74 6 5 25 10 5 5 5 39 90 100 75 94 97 11 2 0 4
100 100 100 100 100 100 100 100 100 100 100 100 100 96 49 46 9 5 6 3 1 4 5 22 61 58 11 13 10 20 49 20 28 86 100 100 100 98 76 5 5 0 0 3
100 100 100 100 100 100 100 100 100 100 99 43 5 5 5 5 5 5 4 5 6 59 71 67 57 15 56 9 59 52 5 22 93 100 100 100 89 11 5 5 0 0 0 0
100 100 100 100 100 89 78 68 75 100 93 76 51 12 21 5 5 5 3 40 98 100 95 84 88 25 51 83 40 5 48 99 92 100 100 100 85 39 5 4 0 0 0 0
100 99 100 100 91 99 93 100 88 65 73 69 100 100 72 18 5 4 55 96 66 58 92 94 70 37 55 5 26 88 40 67 100 100 100 64 28 5 5 3 0 0 4 5
100 99 100 97 71 74 64 100 85 67 100 100 100 93 85 5 23 90 72 94 71 98 100 78 37 5 5 5 38 8 89 100 100 87 51 20 5 5 0 0 0 5 5 10
100 99 97 97 62 60 65 33 50 100 100 100 98 73 6 21 58 95 99 95 93 94 38 51 32 60 7 5 17 98 100 90 37 26 18 5 5 0 0 4 5 20 28 97
100 100 94 53 19 75 75 86 100 100 100 97 14 32 42 77 78 85 98 90 30 52 74 71 19 5 5 49 100 86 48 41 58 8 5 4 0 4 5 13 92 73 100 100
96 97 97 100 98 75 65 100 100 100 99 100 98 76 73 100 96 60 64 46 59 50 51 16 7 26 53 81 76 38 29 5 5 5 4 0 5 5 6 76 99 100 100 100
97 93 93 80 100 89 93 100 100 97 85 85 87 99 98 96 72 76 90 100 73 37 6 6 42 81 63 29 20 5 5 5 5 1 2 5 5 43 55 92 100 100 100 100
100 99 100 98 99 100 100 97 98 100 100 100 100 100 100 83 92 100 79 40 13 40 48 66 26 33 29 5 5 5 5 1 0 5 5 9 5 40 63 100 100 100 100 100
100 100 100 100 100 100 100 100 100 100 100 100 100 100 89 100 80 61 56 60 42 6 12 34 7 5 5 1 0 0 5 5 5 5 11 43 19 70 100 100 100 100 100 99
100 100 100 100 100 100 100 100 100 100 100 100 99 90 92 93 95 86 94 91 61 26 11 5 5 5 4 0 0 5 5 5 5 42 5 51 98 100 98 93 100 100 100 94
100 100 100 100 100 100 100 100 100 100 94 69 77 92 99 100 100 99 82 23 5 5 5 5 5 5 0 2 2 0 2 5 5 6 89 71 65 77 98 100 100 100 100 100
100 100 100 100 100 100 100 100 99 98 99 100 100 100 100 100 85 12 5 5 5 5 5 5 4 0 0 2 0 2 5 5 37 87 76 52 90 100 100 100 100 100 99 100

GFSNGP_prec_cloud_033.txt.gz
Cloud_Cover
100 100 100 100 100 100 100 100 100 100 100 100 100 96 84 57 100 100 52 98 100 5 5 5 5 5 5 22 66 52 44 24 6 5 5 5 5 97 12 6 5 5 62 77
100 100 100 100 100 100 100 100 100 100 100 100 100 91 100 100 100 100 100 100 40 4 4 5 5 5 59 42 14 5 6 5 31 6 5 15 99 75 21 6 27 28 6 5
100 100 100 100 100 100 100 100 100 100 100 100 100 100 100 100 100 100 100 100 51 3 5 5 16 66 27 6 14 30 66 82 12 11 36 100 98 71 65 14 5 5 5 48
100 100 100 100 100 100 100 100 100 100 100 100 100 100 100 100 100 100 100 62 5 5 5 5 5 19 24 54 65 59 34 25 9 78 99 99 56 47 5 33 47 61 96 20
100 100 100 100 100 100 100 100 100 100 100 100 100 100 100 100 100 100 59 34 51 9 32 38 5 23 24 33 53 38 12 5 66 99 99 45 6 5 64 72 94 86 7 5
100 100 100 100 99 100 100 100 99 98 100 100 100 100 100 100 92 54 7 6 17 5 5 5 12 52 19 5 5 20 14 89 100 88 5 5 5 50 92 100 64 5 5 5
100 100 99 100 100 100 100 94 99 77 94 100 100 100 100 97 58 65 60 28 44 19 12 5 5 5 5 10 68 70 91 97 36 5 5 10 86 100 73 7 5 5 5 4
100 100 100 100 100 100 100 100 91 100 100 100 100 94 100 100 100 100 98 67 8 16 5 5 6 20 29 30 55 64 30 9 5 5 55 82 92 15 5 5 5 5 5 5
100 100 100 100 100 100 100 100 88 63 90 80 83 100 100 100 100 100 28 5 5 5 5 5 5 30 16 8 5 5 5 5 5 5 68 40 5 5 5 5 5 5 5 5
100 100 69 97 100 100 100 100 100 100 100 100 100 100 100 99 84 15 39 75 72 74 70 26 53 14 81 44 5 5 5 5 47 72 5 5 5 16 6 5 5 5 6 6
100 99 100 86 98 45 62 71 96 68 96 100 100 98 73 85 98 100 100 100 100 100 99 69 91 82 9 5 5 5 42 85 23 5 5 5 5 5 5 21 37 8 5 5
100 100 100 100 100 90 70 100 100 100 94 95 99 100 100 100 100 100 100 100 96 64 25 9 24 5 5 5 5 35 48 36 14 5 5 5 5 44 42 66 52 15 5 5
100 100 100 100 100 100 100 100 100 100 100 100 100 100 100 100 98 74 10 5 21 57 65 5 5 5 5 11 77 83 83 58 36 5 5 5 48 86 99 100 48 21 5 5
100 100 96 100 100 100 100 100 100 100 100 100 96 98 96 62 92 71 60 42 18 5 5 4 5 8 72 99 100 98 89 36 5 5 27 74 84 35 6 5 5 14 4 0
100 100 100 100 99 98 100 100 100 100 100 96 80 89 100 60 6 5 5 5 5 4 5 8 71 87 97 73 96 90 5 11 47 5 25 7 5 5 5 5 5 1 0 0
100 100 100 100 97 100 99 100 100 99 100 100 100 54 26 18 5 5 5 5 4 5 75 76 54 82 86 67 37 25 44 26 5 5 5 5 5 5 5 5 2 0 0 4
100 100 100 100 99 100 80 95 75 100 100 100 97 92 93 81 11 5 5 5 63 43 5 5 64 70 8 69 71 44 6 5 5 5 5 5 5 5 5 0 0 0 5 12
100 100 100 100 100 100 98 100 100 100 100 100 100 83 61 45 5 5 11 79 6 17 66 59 85 100 89 62 57 39 11 5 5 5 5 5 4 1 0 0 3 5 5 5
100 100 100 100 100 100 100 97 100 100 100 100 100 100 97 82 6 5 5 49 92 75 100 100 100 84 60 79 28 7 5 5 5 5 5 1 0 0 2 5 18 53 56 80
100 100 100 100 100 99 100 100 100 100 100 100 100 100 28 59 91 98 91 79 96 100 100 96 72 62 45 43 6 5 5 5 5 3 0 0 0 5 5 38 91 89 99 100
100 100 100 100 100 100 95 67 100 100 100 100 99 100 100 100 100 100 75 100 100 100 82 59 52 48 56 6 6 5 5 4 0 1 2 4 5 5 49 74 96 100 100 100
100 100 100 100 100 100 100 100 100 100 100 100 98 100 100 100 100 100 100 100 100 82 69 60 75 21 8 17 5 3 0 0 0 5 5 5 10 76 87 100 100 100 100 100
100 100 100 100 100 100 100 100 100 100 99 100 100 100 98 91 100 100 100 97 68 76 71 33 8 5 5 5 5 4 2 4 5 5 5 58 56 72 96 100 100 100 100 100
100 100 100 100 100 100 100 100 100 100 100 100 100 100 100 100 100 99 89 88 74 58 56 40 20 6 5 5 5 5 5 5 5 21 12 41 56 86 100 100 100 100 100 97
100 100 100 99 100 100 100 100 100 100 100 100 100 100 100 100 86 72 59 55 66 98 50 45 50 32 15 5 5 5 5 5 33 64 11 68 91 88 90 90 100 100 100 96
100 100 100 100 100 100 100 100 100 94 100 99 97 92 100 95 73 60 68 97 83 55 53 44 57 32 30 5 5 0 5 5 5 51 70 81 77 74 92 97 100 100 100 100
100 100 100 100 100 100 100 100 100 100 90 78 89 90 78 69 85 98 62 65 54 64 64 72 57 49 10 5 2 5 5 9 37 54 30 40 70 88 100 100 100 100 100 100

GFSNGP_prec_cloud_036.txt.gz
Cloud_Cover
100 100 100 100 100 100 100 100 94 25 99 100 100 100 100 100 79 99 88 24 5 4 30 62 5 45 94 13 5 30 97 100 50 5 5 5 5 8 20 44 92 71 66 5
100 100 100 100 100 100 100 100 100 13 39 63 89 100 100 46 92 100 100 100 99 69 100 100 100 99 29 6 71 100 100 40 28 5 52 37 36 51 78 76 70 8 4 3
100 100 100 100 100 100 100 100 90 64 100 100 100 60 34 66 100 100 100 100 92 97 100 100 100 67 32 100 100 100 99 72 79 72 84 71 44 95 89 99 44 5 5 5
100 100 100 100 100 100 100 100 100 100 100 100 100 92 76 100 100 100 100 93 82 100 100 100 99 14 79 100 100 100 87 61 53 90 76 91 100 80 99 28 5 5 5 5
100 100 100 100 100 100 100 91 100 100 100 100 100 100 100 100 100 98 100 100 100 100 100 100 52 88 92 100 100 80 44 90 80 51 89 100 100 77 9 5 5 5 43 18
100 100 100 100 100 100 100 100 98 100 100 100 100 100 100 100 100 100 100 100 100 100 100 94 77 60 84 62 62 42 44 38 86 100 100 99 13 5 3 5 30 97 5 5
100 100 100 100 100 100 100 100 100 100 100 100 100 100 100 100 100 100 100 100 100 100 80 100 96 71 75 79 76 32 88 98 93 100 95 8 5 5 5 70 12 5 5 5
100 100 100 100 100 100 100 100 100 100 100 100 100 100 97 100 100 100 100 100 100 100 78 75 94 99 90 58 77 86 38 61 100 69 6 3 6 75 92 35 5 5 5 5
100 100 100 100 100 100 100 100 100 86 99 100 100 100 100 100 100 100 100 100 100 100 98 100 100 98 99 88 56 59 83 96 42 5 6 68 99 74 6 14 5 5 5 56
100 100 100 100 100 100 100 100 90 62 26 93 100 100 100 100 100 100 100 100 100 100 100 100 100 100 98 79 100 100 63 5 8 77 98 89 80 64 70 32 5 5 5 5
100 100 100 100 100 100 100 100 100 100 100 100 100 100 100 100 100 99 100 100 100 100 100 100 100 100 100 100 55 6 5 4 68 41 26 57 56 69 16 5 5 5 4 5
100 73 99 100 100 100 100 100 100 100 100 100 100 100 97 98 100 100 100 100 100 100 100 100 100 100 100 65 8 4 6 5 5 5 5 5 34 5 5 5 5 0 0 4
100 100 100 100 100 100 100 100 100 100 100 100 100 100 100 100 100 100 100 100 100 100 100 100 100 31 5 5 5 5 5 5 5 5 5 5 5 5 6 5 1 0 0 0
100 100 100 100 100 100 100 100 100 100 100 100 100 100 100 100 100 100 100 100 100 100 75 10 5 5 5 5 5 5 5 5 5 5 6 5 5 5 5 2 2 3 0 0
100 100 100 100 100 96 100 100 100 100 100 100 100 100 100 100 100 100 100 100 97 85 16 5 5 5 5 5 5 5 13 56 23 5 5 9 7 5 0 0 0 0 0 0
100 100 100 100 100 100 100 100 100 100 100 100 100 100 100 100 100 96 96 97 26 8 5 5 5 5 5 5 7 47 13 5 5 5 5 5 5 1 0 0 0 0 0 5
99 100 100 100 100 100 100 100 100 100 100 100 100 100 100 100 100 100 100 87 33 5 5 5 5 7 24 18 16 5 5 5 8 5 5 5 3 0 0 0 1 5 5 12
100 100 100 100 100 100 100 100 100 100 100 100 100 100 100 100 100 100 92 36 5 5 5 20 88 52 34 16 5 5 5 6 5 5 5 5 0 0 0 5 5 5 5 7
100 100 100 100 100 100 100 100 100 100 100 100 99 99 100 94 77 54 60 29 35 12 63 89 64 47 49 34 5 5 5 5 5 5 2 0 0 1 5 5 5 5 10 83
100 100 100 100 100 100 100 100 100 100 100 100 100 100 94 99 100 72 86 86 32 94 85 93 87 83 69 24 6 5 5 5 5 5 4 5 5 5 5 27 63 30 86 74
100 100 100 100 100 100 100 100 100 100 100 100 100 100 100 100 100 99 85 68 100 100 99 70 66 36 8 5 5 5 5 5 5 13 32 12 5 7 39 32 74 96 94 100
100 100 100 100 100 100 100 100 100 100 100 100 100 100 100 100 97 81 100 100 100 88 80 63 29 5 12 14 5 5 6 49 62 32 5 5 29 81 90 94 100 100 100 94
100 100 100 100 100 100 100 100 100 98 100 100 100 99 100 100 100 100 100 97 94 57 50 27 7 24 16 5 17 44 56 45 35 50 10 62 67 78 94 100 99 88 93 100
100 100 100 100 98 100 100 100 96 96 93 99 100 100 100 100 100 99 84 45 32 39 32 32 28 9 11 56 57 30 58 67 39 31 54 55 61 74 99 97 98 89 100 98
100 100 100 100 97 100 100 100 100 100 100 100 100 99 100 88 82 66 52 83 82 46 31 43 7 34 59 49 28 43 26 5 7 80 42 67 89 97 82 80 87 100 100 94
100 100 100 100 100 100 100 100 100 100 100 100 100 100 76 89 100 100 98 59 13 47 23 5 17 40 41 29 6 5 5 5 18 58 66 79 79 68 71 79 97 100 100 100
100 100 100 100 100 100 100 100 100 100 100 100 100 100 99 89 77 55 33 33 25 15 5 5 5 8 2 4 5 5 5 20 45 57 63 59 54 62 70 93 100 100 100 99

GFSNGP_prec_cloud_039.txt.gz
Cloud_Cover
100 87 100 100 100 100 100 76 100 97 75 92 100 100 100 100 100 100 84 67 23 22 83 98 100 100 100 100 100 100 100 100 99 79 68 69 56 21 61 100 99 26 64 37
100 100 100 100 100 100 100 100 100 50 45 100 100 100 100 100 100 100 100 85 26 55 100 100 100 100 100 100 94 96 88 100 100 53 71 47 52 100 100 100 44 81 85 94
88 100 100 99 100 100 100 100 100 100 94 100 100 100 100 100 100 100 100 100 94 98 100 95 75 44 72 53 18 66 100 100 56 93 72 100 100 100 92 92 73 99 71 5
100 100 91 100 100 100 100 100 100 100 100 100 100 100 100 100 100 100 100 100 100 69 54 43 59 100 100 100 100 100 99 88 100 100 100 96 78 85 98 90 95 9 5 1
100 100 100 100 100 100 100 100 100 100 100 99 100 100 100 100 100 100 100 89 22 18 41 88 100 100 100 100 100 100 100 95 100 99 100 100 99 98 100 28 5 5 5 5
100 100 100 100 100 100 100 100 100 100 100 100 100 100 100 100 100 100 100 100 100 100 100 100 100 100 100 100 100 100 73 86 100 100 98 100 100 38 5 5 5 5 17 72
100 100 100 100 100 100 100 100 100 100 100 100 100 99 100 100 100 100 100 100 100 100 100 100 100 100 100 100 100 89 100 100 81 88 100 94 14 5 5 5 27 81 96 32
100 100 100 100 100 100 100 100 100 100 100 100 100 100 100 100 100 100 100 100 100 100 100 100 100 100 100 100 100 100 99 100 96 100 91 9 34 9 7 67 66 32 34 39
100 100 100 100 100 100 100 100 100 100 100 100 100 100 100 100 100 100 100 100 100 100 100 100 100 100 100 100 100 100 100 97 100 61 42 7 5 5 51 15 5 5 5 5
32 81 100 100 100 100 100 100 100 100 100 100 100 100 100 100 100 100 100 100 100 100 100 100 100 100 100 100 100 100 100 100 54 34 5 5 5 5 5 5 5 5 5 5
80 47 83 100 96 80 100 100 100 100 100 100 100 100 100 100 100 100 100 100 100 100 100 100 100 100 100 100 100 99 85 96 44 5 5 5 5 5 5 5 5 5 5 5
86 94 100 100 100 100 100 100 100 100 100 100 100 100 100 100 100 100 100 100 100 100 100 100 100 100 100 100 100 63 10 5 5 5 5 5 5 5 5 5 5 5 1 3
100 100 100 100 100 100 100 100 100 100 100 100 100 100 100 100 100 100 100 100 100 100 100 100 78 82 98 71 36 6 5 5 5 5 4 5 5 5 5 5 5 5 0 0
100 100 98 100 95 100 94 99 100 100 100 100 100 100 100 100 100 100 100 100 99 95 86 98 100 100 86 23 5 5 5 5 5 5 5 5 5 5 5 5 5 5 0 0
100 64 97 100 100 100 100 100 100 100 100 100 100 98 94 99 96 100 97 81 99 87 100 100 98 95 33 5 5 5 5 5 5 5 5 5 5 5 5 2 0 0 0 0
80 100 100 84 100 100 100 100 100 100 100 84 100 100 96 100 100 100 93 100 100 100 100 85 39 5 5 5 5 5 5 5 5 5 5 5 5 5 4 4 5 4 4 5
100 100 100 100 100 100 100 100 100 100 100 100 100 100 100 100 100 100 100 100 75 62 72 5 5 5 5 5 5 5 6 35 53 28 5 5 5 5 5 5 5 5 5 8
100 100 100 100 100 100 100 100 100 100 100 100 100 100 100 100 100 92 62 69 81 99 44 5 5 5 5 7 35 62 63 38 7 5 5 4 5 5 5 5 5 7 10 5
98 100 100 100 100 100 100 100 100 100 100 100 100 100 100 100 92 80 100 100 97 85 82 10 7 39 85 77 71 60 61 17 5 5 5 5 5 5 14 5 40 57 5 5
98 100 100 100 100 100 100 100 100 100 100 100 100 100 100 100 100 100 100 100 100 76 39 58 98 97 72 55 74 32 5 5 5 5 5 5 5 6 5 21 70 8 42 40
100 100 100 100 100 100 100 100 100 100 100 100 100 100 100 100 100 100 93 84 99 66 73 87 77 38 9 9 6 5 5 5 5 5 5 5 5 11 65 62 70 85 86 98
100 100 100 100 100 100 100 100 100 100 100 100 100 99 85 86 91 92 100 98 75 76 60 48 11 7 6 5 5 5 5 5 5 5 5 5 43 75 92 96 98 100 100 100
100 100 100 100 100 100 100 100 100 100 100 100 100 100 98 91 100 94 81 70 66 55 24 23 39 5 5 5 5 5 5 5 5 5 5 35 74 88 99 100 100 100 97 100
100 100 100 100 100 100 100 100 100 100 99 100 100 98 93 90 62 72 50 68 68 56 31 6 5 8 5 5 5 5 2 5 5 5 10 51 29 64 91 96 96 99 100 95
100 100 100 100 96 99 85 97 91 90 82 100 99 77 40 53 68 83 81 80 56 32 12 30 17 5 5 4 5 5 5 5 7 12 5 22 72 89 81 80 88 100 100 79
100 100 100 100 100 100 98 100 99 78 91 99 100 98 68 72 64 60 42 40 44 44 28 8 13 5 5 5 5 5 5 5 5 34 43 64 80 64 65 64 76 80 84 99
100 100 100 100 100 100 100 100 97 89 81 82 99 94 68 56 65 46 47 48 52 36 24 7 5 18 5 3 5 5 5 8 28 57 65 27 39 59 63 66 69 82 97 100

GFSNGP_prec_cloud_042.txt.gz
Cloud_Cover
76 96 98 97 92 100 100 100 100 100 100 98 100 100 100 100 100 100 90 96 100 100 100 100 100 100 100 98 100 100 100 100 100 99 96 100 100 100 86 66 68 56 89 100
100 84 46 100 100 100 100 100 100 100 100 100 99 100 100 100 100 100 100 100 100 100 100 100 100 100 100 100 100 100 100 100 100 100 95 100 100 87 100 100 100 100 100 24
84 65 69 96 100 100 100 100 100 100 88 100 100 100 100 100 100 100 100 100 100 100 100 100 100 100 100 100 100 100 100 100 100 100 99 95 100 98 100 100 100 80 60 91
100 99 90 98 100 100 100 100 100 100 100 100 100 100 100 100 100 100 100 100 100 100 100 100 100 100 100 100 100 100 97 100 98 68 79 100 100 100 100 100 98 92 99 57
100 100 95 100 100 100 100 100 100 100 100 86 100 100 100 100 100 100 100 100 100 100 100 100 100 100 100 100 100 95 72 81 100 100 100 100 100 100 100 100 98 58 5 5
100 100 92 100 100 100 100 100 100 99 100 99 95 100 100 100 100 100 100 100 100 100 100 100 100 100 100 94 65 100 100 100 100 100 100 100 100 100 100 97 60 9 5 13
100 100 100 96 100 100 100 100 100 100 100 100 100 100 100 100 100 98 98 100 99 91 74 56 41 49 100 100 100 100 100 100 100 100 100 100 100 100 96 40 29 66 16 5
100 100 97 100 100 85 100 100 88 100 100 100 100 100 100 100 100 96 100 100 97 100 100 100 100 100 100 100 100 100 100 100 100 100 100 100 100 70 77 90 30 5 5 5
58 100 100 100 100 100 95 100 100 100 100 100 100 100 100 100 100 100 100 100 100 100 100 100 100 100 100 100 100 100 100 100 100 100 100 70 68 67 41 5 5 5 5 2
28 100 99 71 97 100 98 100 100 100 100 100 100 100 100 100 100 100 100 100 100 100 100 100 100 100 100 100 100 100 100 100 99 85 77 62 12 5 5 5 5 0 0 0
100 88 81 26 85 96 100 100 100 100 100 100 100 100 100 100 100 100 100 100 100 100 100 100 100 100 100 100 100 100 100 100 94 64 23 8 5 5 5 0 0 0 4 5
14 71 6 100 98 100 99 100 100 100 100 100 100 100 100 100 100 100 100 100 100 100 100 100 100 100 100 100 100 100 86 64 46 62 52 6 5 1 1 4 5 5 5 5
99 8 83 100 100 100 90 100 100 100 89 100 100 100 100 100 100 100 100 100 100 100 100 100 100 100 100 96 87 90 65 51 27 5 5 2 5 5 5 5 5 5 5 5
100 92 100 100 84 94 100 100 100 98 100 100 100 100 100 100 100 100 100 100 100 100 100 100 100 96 84 74 55 41 19 5 5 5 5 5 5 6 22 6 5 5 2 0
100 86 75 88 100 97 100 100 100 100 100 100 100 100 100 100 100 100 100 100 100 100 100 100 90 90 94 37 8 5 5 5 5 5 5 5 8 7 5 5 5 4 0 5
100 100 99 100 100 100 100 100 100 100 100 100 100 100 100 100 100 100 100 100 100 100 100 81 77 17 28 5 5 5 5 5 5 5 9 7 9 16 5 5 2 0 0 5
100 100 100 100 100 100 100 100 100 100 100 100 100 100 100 100 100 100 100 100 100 100 68 30 21 56 5 5 5 5 5 5 5 6 13 5 5 5 5 0 0 4 5 5
100 100 100 86 100 100 100 100 100 100 100 100 100 100 99 100 100 100 100 100 69 63 42 54 41 5 5 5 5 5 5 5 7 17 6 5 5 1 0 4 5 5 5 5
100 100 100 95 98 100 100 100 100 100 100 100 100 100 98 100 100 100 80 64 53 27 51 62 13 5 5 14 12 34 17 5 7 6 5 5 2 0 5 5 5 5 5 5
100 100 100 100 100 100 100 100 100 99 100 100 100 100 100 100 87 83 95 99 97 56 8 5 8 29 68 57 40 34 47 39 5 5 5 0 0 5 5 5 5 5 5 5
100 100 100 100 100 100 100 100 100 100 100 99 100 98 75 88 100 100 100 100 73 9 17 67 98 82 25 30 60 57 6 5 5 3 0 0 5 5 5 6 8 56 74 86
100 100 100 100 100 100 100 100 100 100 100 100 100 100 100 100 100 100 100 78 64 81 95 100 60 38 58 57 34 8 5 5 1 0 1 5 8 37 66 78 96 100 100 100
100 100 100 100 100 100 100 100 93 94 100 100 100 100 100 100 100 100 98 99 100 95 100 81 69 79 62 14 5 5 5 4 4 5 5 7 90 100 93 98 100 100 100 100
96 100 100 100 100 100 100 98 90 100 100 100 100 100 100 100 100 97 85 81 82 69 58 72 66 39 5 5 5 5 5 5 5 5 5 78 66 91 100 100 100 100 100 100
100 100 100 100 100 100 100 98 100 100 99 100 100 100 100 99 70 80 88 96 91 89 53 42 22 5 5 5 5 5 5 5 5 7 5 26 94 100 100 100 100 100 100 100
100 100 100 100 100 100 100 100 99 100 100 100 100 100 100 96 80 82 87 91 61 54 20 5 5 5 5 5 5 5 5 5 5 5 58 88 97 97 88 81 90 100 100 100
100 100 100 100 100 100 100 100 100 100 100 100 100 100 98 94 73 95 100 96 54 13 5 5 5 5 6 16 5 5 5 5 5 34 71 59 83 96 92 93 100 100 100 100

GFSNGP_prec_cloud_045.txt.gz
Cloud_Cover
100 92 62 70 96 100 100 100 100 99 100 97 100 100 100 100 100 100 100 54 48 5 95 100 100 99 100 100 100 100 76 98 98 100 100 100 100 87 69 90 100 100 100 100
100 65 62 83 91 98 100 100 100 100 100 100 100 100 100 100 100 100 100 99 100 100 100 100 100 100 100 100 100 100 97 95 100 100 98 92 23 52 82 92 100 100 100 100
57 13 5 37 27 88 100 100 100 100 97 100 100 100 100 100 100 100 100 100 100 100 100 100 100 100 100 100 100 100 100 100 100 100 68 62 76 82 100 100 100 100 100 100
79 69 85 100 99 100 100 100 100 80 70 100 100 100 100 100 100 100 100 100 100 100 100 100 100 100 100 100 100 100 100 100 100 100 80 94 100 100 100 100 100 100 100 100
79 92 100 100 100 84 100 100 100 100 97 100 100 100 100 100 100 100 100 100 100 100 100 100 100 100 100 100 100 100 100 100 100 100 100 98 100 100 100 100 100 100 100 100
100 86 80 100 80 100 94 100 100 100 100 98 100 100 100 100 100 100 100 100 100 100 100 100 100 100 100 100 100 100 100 100 100 100 100 100 100 100 100 100 100 100 100 100
100 99 82 98 87 79 100 91 100 100 100 100 100 100 100 100 100 100 100 100 100 100 100 100 100 100 100 100 100 100 100 98 86 99 100 100 100 100 100 100 100 100 100 100
100 100 51 86 100 100 100 100 92 100 100 100 100 100 100 100 100 100 100 100 100 100 100 100 100 100 98 76 81 90 89 100 100 100 100 100 100 100 100 100 100 100 100 47
100 18 7 67 100 100 100 100 96 88 100 100 100 100 100 100 100 100 100 100 100 100 93 76 85 98 100 100 100 100 100 100 100 100 100 100 100 100 100 100 100 98 98 90
100 73 49 24 71 96 89 100 93 93 100 100 100 100 100 100 100 100 100 100 100 100 100 100 100 100 100 100 100 100 100 100 100 100 100 100 100 100 100 100 100 100 71 9
97 8 7 32 40 100 99 94 99 97 91 100 100 100 100 100 100 100 100 100 100 90 100 100 100 100 100 100 100 100 100 100 100 100 100 100 100 100 100 95 39 8 5 4
95 68 40 11 84 79 96 92 100 99 100 100 99 97 100 100 100 100 100 100 100 100 100 100 100 100 100 100 100 100 100 100 100 100 100 100 100 66 5 5 5 5 5 5
100 100 14 38 100 90 59 98 95 100 78 100 100 100 100 100 100 100 100 100 100 100 100 100 100 100 100 100 100 100 100 100 100 100 100 96 29 6 5 5 5 5 5 5
99 68 100 99 100 27 82 100 100 100 100 100 100 100 100 100 100 100 100 100 100 100 100 100 100 100 100 100 100 100 100 100 99 57 5 5 5 5 5 5 5 5 5 5
98 92 100 100 96 72 97 100 100 100 100 100 100 100 100 100 100 100 100 100 100 100 100 100 100 100 100 100 92 96 95 60 29 5 5 5 5 5 5 5 5 5 5 0
98 66 100 100 100 100 100 100 100 100 100 100 100 100 100 100 100 100 100 100 100 100 100 100 100 100 100 78 89 87 23 5 5 5 5 5 5 5 5 5 5 4 0 0
81 92 100 100 100 100 100 100 100 100 100 100 100 100 100 100 100 100 100 100 100 100 100 100 96 60 68 83 63 16 5 5 5 5 7 30 7 5 5 5 0 0 0 1
52 100 100 100 100 100 100 100 100 100 100 100 100 100 100 100 99 100 100 100 100 100 99 98 64 68 66 20 5 5 5 5 9 29 7 5 5 5 0 0 0 5 5 4
96 100 100 100 100 96 100 100 100 100 100 100 100 100 99 100 95 100 100 100 97 99 99 96 88 62 13 5 5 5 13 43 13 5 5 5 0 0 0 0 4 5 5 5
100 100 100 100 100 100 100 100 100 100 100 100 100 100 100 100 100 100 100 98 92 98 98 93 84 33 7 27 63 54 41 6 5 5 5 0 0 0 0 5 5 5 5 5
100 100 100 100 100 100 100 100 100 100 100 100 100 100 100 100 100 81 97 99 91 100 96 72 54 96 96 45 20 22 5 5 5 5 0 0 0 2 5 5 7 54 83 82
100 100 100 100 100 100 100 100 100 100 100 100 96 97 92 79 76 98 82 78 100 98 90 70 53 50 47 22 5 5 5 5 1 0 0 0 5 5 58 62 66 92 100 100
80 99 100 100 94 100 96 100 70 83 100 100 98 100 100 91 81 100 69 66 100 94 64 63 61 14 5 5 5 5 5 4 3 0 3 5 5 66 78 77 91 99 100 99
100 100 100 100 100 100 100 100 98 94 92 86 97 100 71 61 50 73 67 70 82 79 83 40 10 8 5 21 27 5 5 5 2 5 5 5 6 69 92 94 76 69 77 81
88 84 85 70 70 71 89 98 95 94 88 96 100 100 100 100 79 50 76 100 89 78 56 25 14 5 6 20 5 6 5 5 5 5 5 5 43 83 76 70 46 69 96 91
76 79 90 90 74 96 65 78 97 95 100 100 98 97 99 89 70 95 80 61 58 58 69 54 68 80 84 64 35 6 5 5 5 5 5 5 59 43 63 42 35 58 79 92
96 95 100 100 100 100 100 100 100 100 100 100 100 100 91 82 90 100 85 84 92 100 96 98 100 100 100 100 87 6 5 5 5 5 5 5 5 37 67 57 73 93 99 96

GFSNGP_prec_cloud_048.txt.gz
Cloud_Cover
71 100 100 28 10 28 79 78 100 100 100 100 82 100 45 23 100 100 100 74 100 53 41 100 97 100 100 100 100 81 5 32 100 100 100 100 100 100 100 100 100 100 100 100
93 98 9 7 61 48 100 100 100 100 100 85 100 100 100 100 100 100 100 94 38 4 93 100 100 100 100 100 100 79 10 100 100 100 100 100 100 100 100 100 100 100 100 100
100 14 56 55 9 18 33 99 100 100 97 91 100 100 100 100 100 100 100 86 22 60 100 100 100 100 100 96 100 100 100 100 100 100 100 100 100 100 100 100 100 100 99 100
89 82 93 80 99 38 20 92 100 100 100 100 100 100 100 100 100 100 100 100 100 100 100 100 100 100 100 100 100 100 100 100 100 100 100 100 100 100 100 99 100 98 100 100
77 100 86 100 93 20 80 73 100 100 100 100 100 100 100 100 100 100 100 100 100 100 100 100 100 100 100 100 100 100 100 100 100 100 100 100 100 100 100 100 92 100 100 100
100 91 36 100 63 42 100 100 100 100 100 43 96 100 100 100 100 100 100 100 100 100 100 100 100 100 100 100 100 100 100 100 100 100 100 100 100 100 100 100 100 100 100 100
100 100 73 84 25 97 100 93 100 100 100 100 100 96 100 100 100 100 100 100 100 100 100 100 100 100 100 100 100 100 100 100 100 100 100 100 100 100 100 100 100 100 100 100
100 100 55 25 10 86 100 98 100 98 98 100 98 100 100 100 100 100 100 100 100 100 100 100 100 100 100 100 100 100 100 100 100 100 100 100 98 100 100 100 100 100 100 100
84 98 94 6 6 76 100 55 98 100 79 99 100 48 98 100 100 100 100 100 100 100 100 100 100 100 100 100 100 100 100 100 100 100 100 100 100 100 100 100 100 100 100 100
100 100 49 56 77 84 64 19 80 100 100 100 100 100 100 100 100 100 100 100 100 100 100 98 100 100 100 100 100 100 100 100 100 100 100 100 100 100 100 100 100 100 90 12
100 87 55 37 82 47 66 89 99 100 94 100 100 99 100 100 100 100 100 100 100 100 100 100 100 100 100 100 100 100 100 100 100 100 100 100 100 100 100 100 75 9 5 5
100 92 86 52 11 59 56 88 100 99 74 100 100 100 100 100 100 100 100 100 100 100 100 100 100 100 100 100 100 100 100 100 100 100 100 100 100 100 49 6 5 5 5 5
100 100 70 91 44 85 80 72 99 98 100 88 100 100 100 100 100 100 100 100 100 100 100 100 100 100 100 100 100 100 100 100 100 100 100 99 32 6 13 23 5 5 5 5
100 98 100 89 98 95 64 77 83 100 100 100 100 99 99 100 100 100 100 100 100 100 100 100 100 100 100 100 100 100 100 100 95 90 68 21 14 11 5 5 5 5 6 5
100 100 100 78 67 100 69 92 100 100 96 91 100 100 100 100 100 100 100 100 100 100 100 100 100 100 100 100 100 100 100 66 80 55 7 19 6 5 5 5 5 5 4 0
100 100 100 94 100 100 100 85 100 100 100 100 100 100 100 100 100 100 100 100 100 100 100 100 100 97 100 100 100 99 70 50 15 11 25 10 6 7 5 5 5 2 0 0
100 100 87 86 100 100 100 100 100 100 100 100 100 100 100 100 100 100 100 100 100 100 100 99 100 88 77 57 98 100 79 39 17 5 5 5 5 5 5 3 0 0 0 1
100 100 98 100 100 100 100 100 100 100 100 100 100 100 100 100 100 100 100 98 99 97 98 92 74 56 85 99 96 84 43 5 5 5 5 5 5 5 3 0 0 0 0 0
95 99 100 100 100 100 100 100 100 100 100 100 99 100 99 100 100 100 100 100 96 99 90 100 93 99 89 92 81 58 44 30 13 5 5 5 5 2 0 0 0 0 3 5
100 100 100 100 100 100 100 100 100 100 100 100 100 100 100 100 96 94 99 100 100 100 86 94 99 85 97 72 43 32 7 5 5 5 5 5 0 1 0 1 5 5 5 5
100 100 100 100 100 100 100 100 100 100 100 100 100 100 100 100 100 100 100 100 100 100 100 99 98 74 70 41 9 16 5 5 5 5 4 0 0 0 5 5 5 5 8 32
100 100 100 100 100 100 100 100 100 100 100 98 98 100 100 100 100 99 90 83 78 62 60 73 58 68 62 44 53 12 5 5 5 5 5 0 2 20 6 32 18 11 9 22
100 100 100 100 100 100 100 100 100 100 100 100 100 100 100 100 100 99 91 62 57 57 79 72 99 78 68 73 21 5 5 5 5 5 5 5 5 49 59 15 51 33 5 5
100 100 100 100 100 100 100 100 100 100 100 100 100 100 100 100 100 92 88 95 87 98 93 98 68 63 69 30 5 5 5 5 5 5 9 6 8 32 52 51 30 5 8 16
100 100 100 100 100 100 100 100 100 100 100 100 100 100 100 100 100 100 100 100 86 81 93 58 40 62 74 65 27 5 5 5 5 5 5 5 30 55 58 32 16 14 94 18
100 100 100 100 100 100 100 100 99 98 100 100 100 100 100 100 100 100 100 100 99 93 92 59 71 85 48 5 5 5 5 5 5 5 5 8 14 53 50 5 5 5 31 23
98 100 100 100 100 100 100 100 100 100 100 100 100 100 100 100 100 100 100 100 100 100 73 60 71 49 5 5 5 5 5 5 10 5 19 43 36 24 7 36 22 7 57 73

GFSNGP_prec_cloud_051.txt.gz
Cloud_Cover
36 64 75 10 14 64 98 52 82 7 39 12 100 95 98 99 97 96 100 100 100 100 100 24 91 94 29 98 99 100 99 83 100 100 100 99 100 100 100 100 100 100 100 100
6 46 75 45 95 90 34 51 97 98 77 100 100 100 100 100 100 100 100 100 100 100 57 72 5 60 100 100 100 100 100 100 100 100 100 100 100 100 100 100 100 100 100 100
98 100 100 93 15 19 26 20 100 100 84 100 100 100 100 100 100 100 100 100 100 100 90 6 17 96 100 100 100 100 100 100 100 46 100 100 100 100 100 100 100 100 100 100
100 92 40 5 7 77 26 80 100 100 100 100 100 88 100 100 100 100 100 100 100 100 67 89 100 100 100 100 100 100 100 100 93 100 100 100 100 100 100 100 100 100 100 100
89 27 10 85 100 85 7 76 98 100 70 100 85 53 100 100 100 100 100 100 100 100 100 100 100 100 100 100 100 100 100 100 100 100 100 100 100 100 100 100 100 100 100 100
100 47 67 99 88 67 8 75 78 100 100 100 89 93 99 100 100 100 100 100 100 100 100 100 100 100 100 100 100 100 100 100 100 100 100 100 100 100 100 100 100 100 100 100
100 59 39 100 82 66 75 59 100 100 100 100 99 100 100 100 100 100 100 100 100 100 100 100 100 100 100 100 100 100 100 100 100 100 100 100 100 100 100 100 91 99 100 100
100 73 70 68 22 57 9 97 79 100 100 100 96 100 100 100 100 100 100 100 100 100 100 100 100 100 100 100 100 100 100 100 100 100 100 100 100 100 100 100 100 100 99 100
64 98 100 27 12 15 12 5 43 97 100 100 100 100 100 100 100 100 100 100 100 100 100 100 100 100 100 100 100 100 100 100 100 100 100 100 100 100 100 100 100 100 100 100
94 97 83 32 5 29 64 64 23 75 100 97 100 100 100 100 100 100 100 100 100 100 99 100 100 100 100 100 100 100 100 100 100 100 100 100 100 100 100 100 100 100 100 84
100 100 94 19 39 69 32 31 53 63 42 100 100 100 100 100 100 100 100 100 100 100 100 100 100 100 100 100 100 100 100 100 100 100 100 100 100 100 100 100 100 82 31 56
100 100 100 56 7 5 59 11 77 31 93 100 100 100 100 100 100 100 100 100 100 100 100 100 100 100 100 100 100 100 100 100 100 100 100 100 100 100 100 97 32 47 62 19
100 100 88 5 13 88 44 51 94 89 100 100 98 99 100 100 100 100 100 100 100 100 100 100 100 100 100 100 100 100 99 76 93 98 100 100 100 82 14 46 58 68 12 8
100 100 52 55 39 91 95 100 100 100 100 100 100 98 100 100 100 100 100 100 100 100 100 100 100 100 98 100 100 100 100 100 100 100 100 64 17 23 58 73 24 5 5 5
99 18 89 94 99 85 100 83 100 100 100 100 100 93 98 100 100 100 100 100 100 100 100 100 100 100 95 100 100 98 83 48 42 9 12 35 26 31 5 5 8 37 8 3
82 100 88 100 97 100 100 100 97 100 92 100 100 100 100 100 100 100 100 100 100 100 100 100 98 100 100 100 72 86 96 57 12 18 8 5 5 11 37 50 20 4 0 0
100 100 97 100 44 73 100 100 100 100 96 100 100 100 100 100 100 100 100 100 100 100 100 98 100 100 92 100 86 66 100 77 69 47 5 30 25 5 5 5 0 0 0 1
90 89 97 100 34 62 100 100 100 100 100 100 100 100 100 100 100 100 100 100 100 100 100 100 100 97 89 66 97 81 71 34 18 7 5 5 5 5 4 0 0 0 0 0
91 100 100 100 99 100 100 100 100 100 100 100 100 100 100 100 100 100 100 100 100 100 100 100 100 100 100 67 56 64 28 6 5 5 5 5 5 4 0 0 1 4 5 5
97 100 100 100 100 100 100 100 100 100 100 100 100 100 99 100 100 100 100 100 100 99 100 100 100 87 61 44 39 17 27 5 5 5 5 5 5 0 0 5 5 5 5 5
100 100 100 100 100 99 100 100 100 100 100 100 100 100 100 100 100 100 76 100 100 100 100 87 53 41 35 21 37 42 6 21 5 5 5 5 3 5 5 6 6 5 6 46
100 100 100 100 100 100 100 100 100 100 98 99 98 96 90 88 93 92 96 99 92 90 60 25 39 44 70 84 96 42 22 5 5 5 5 5 6 24 59 68 52 5 30 33
100 100 100 100 99 100 100 100 100 100 100 100 100 100 100 95 99 100 100 88 86 60 28 36 90 100 100 100 94 24 6 5 5 5 6 48 53 65 70 64 59 61 60 51
100 100 100 100 100 100 100 100 100 100 100 100 100 100 100 100 100 100 90 78 97 99 72 95 100 100 100 81 46 62 5 5 5 5 12 7 27 60 67 64 66 56 55 70
100 100 100 100 100 100 100 100 100 100 100 100 100 100 100 100 100 100 100 100 100 100 97 100 100 100 100 91 55 52 5 5 6 42 5 15 50 69 66 63 61 61 66 52
100 100 100 100 100 100 100 100 100 100 100 100 100 100 100 100 100 100 100 100 100 100 100 100 100 100 99 63 90 23 5 5 5 14 22 45 55 65 56 38 58 61 30 46
100 100 100 100 100 100 100 100 100 100 100 100 100 100 100 100 100 100 100 100 100 100 100 100 100 100 84 82 57 5 5 8 12 5 61 60 53 57 51 37 56 55 41 58

GFSNGP_prec_cloud_054.txt.gz
Cloud_Cover
100 100 98 99 98 100 50 93 90 5 47 5 69 100 100 100 83 100 88 67 100 100 100 100 100 100 100 100 100 100 100 87 98 56 26 82 100 100 100 100 100 100 100 100
100 100 54 59 100 11 5 99 70 54 15 100 100 100 100 100 100 100 100 100 100 100 100 100 75 29 5 5 97 96 100 100 100 100 100 100 100 100 100 100 100 100 100 100
100 100 96 14 52 98 27 31 92 99 92 100 96 100 100 100 100 100 100 100 100 100 100 100 44 11 12 89 100 100 100 100 100 100 91 100 100 100 100 100 100 100 100 100
100 100 76 100 67 34 39 43 86 100 100 100 100 99 100 100 100 100 100 100 100 100 96 94 100 100 100 100 100 100 100 100 100 100 100 100 100 100 100 100 100 100 100 100
99 100 99 11 5 59 45 75 100 100 100 83 100 65 100 100 100 100 100 100 100 100 100 100 100 100 100 100 100 100 100 100 100 100 100 100 100 100 100 100 100 100 100 100
100 97 45 21 100 67 53 42 40 100 95 98 100 100 99 98 100 100 100 100 100 100 100 100 100 100 100 100 100 100 100 100 100 100 100 100 100 100 100 100 100 100 100 100
96 100 35 100 100 39 31 43 86 97 78 99 100 96 100 99 100 100 100 100 100 100 100 100 100 100 100 100 100 100 100 100 100 100 100 100 100 100 100 100 100 100 100 100
97 98 98 100 98 38 72 97 77 74 100 80 100 100 100 99 95 98 100 100 100 100 100 100 100 100 100 100 100 100 100 100 100 100 100 100 100 100 100 100 100 100 76 100
35 34 14 98 33 99 85 60 72 74 50 100 67 100 100 100 100 100 100 100 100 97 100 100 100 100 100 100 100 100 100 100 100 100 93 100 100 100 95 95 84 100 100 100
45 92 91 50 64 98 68 38 74 83 77 86 100 100 100 100 100 100 100 100 100 100 100 100 100 100 100 100 100 100 100 100 96 95 89 100 100 100 100 100 100 100 100 100
20 100 74 88 72 98 13 5 88 97 90 58 100 100 100 100 99 100 100 86 83 55 100 100 100 100 100 100 100 100 100 100 100 100 100 100 100 100 100 100 100 100 80 46
57 61 92 100 98 15 5 5 64 96 89 84 100 100 100 100 100 100 92 100 100 100 87 84 100 100 100 100 100 100 100 100 100 100 100 100 100 100 96 67 46 8 5 43
60 96 53 79 48 55 9 7 43 63 76 100 100 100 100 100 100 100 100 100 100 92 100 100 100 100 100 100 100 100 66 89 100 100 65 50 40 11 5 5 5 7 31 31
97 100 95 12 15 16 75 64 43 96 100 100 100 100 100 100 100 100 100 100 100 100 100 100 100 100 100 100 98 74 93 65 29 14 5 5 5 5 30 70 68 63 29 5
80 100 100 100 8 6 59 55 98 99 100 100 100 100 100 100 100 100 100 100 100 100 100 100 100 100 97 71 40 11 26 7 5 5 5 6 22 63 77 58 7 5 5 5
97 100 100 100 10 82 100 99 86 100 96 98 100 100 100 100 100 100 100 100 100 100 100 100 100 99 100 100 50 31 32 8 5 5 5 43 69 50 29 5 5 5 5 5
76 100 100 100 100 88 100 99 100 82 86 100 100 88 100 100 100 100 100 100 100 100 100 100 100 100 86 21 8 37 47 8 5 5 24 58 5 26 6 5 5 5 1 1
78 100 71 100 97 98 100 100 100 100 98 100 100 100 100 100 100 100 100 100 100 100 100 100 100 77 40 30 19 28 35 14 5 10 10 5 5 5 5 5 5 4 1 1
95 100 100 100 100 100 100 100 100 100 100 100 100 100 100 100 100 100 100 100 100 100 100 86 68 54 61 58 85 41 5 5 14 28 5 5 5 5 5 5 5 5 5 5
85 100 100 100 100 100 100 100 100 100 100 100 100 100 100 100 100 100 100 100 98 90 76 72 70 100 100 72 45 31 33 37 13 5 5 5 5 5 5 5 5 5 5 5
100 100 100 100 100 79 100 100 100 100 100 100 100 100 100 100 100 99 100 100 96 97 94 100 100 95 60 36 50 70 86 24 24 17 18 11 5 5 5 6 6 5 5 5
100 100 100 100 100 98 99 100 92 96 96 100 100 99 100 100 100 100 100 100 100 100 97 87 98 58 72 52 91 100 100 61 54 30 5 7 10 28 46 69 66 29 30 47
100 100 100 100 100 100 100 100 100 100 99 80 88 95 98 100 100 100 100 100 100 100 100 100 73 80 64 88 100 100 100 70 63 30 29 57 60 65 68 71 72 67 68 51
100 100 100 100 100 100 100 100 100 100 100 100 100 100 100 100 100 100 100 100 100 100 96 73 70 60 62 100 100 87 24 30 10 5 42 11 48 58 69 71 72 64 60 72
100 100 100 100 100 100 100 100 100 100 100 100 100 100 100 100 100 100 100 100 100 92 91 74 68 36 92 100 98 79 69 45 5 5 35 24 51 69 68 66 62 60 69 62
100 100 100 100 100 100 100 100 100 100 100 100 100 100 100 100 100 100 100 100 100 100 99 64 68 47 97 100 100 100 94 18 34 13 25 61 66 66 64 56 59 60 29 40
100 100 100 100 100 100 100 100 100 100 100 100 100 100 100 100 100 100 100 100 100 100 100 79 93 100 100 100 100 100 69 81 60 16 65 66 63 63 55 56 60 56 47 62

GFSNGP_prec_cloud_057.txt.gz
Cloud_Cover
100 100 100 100 100 100 80 63 35 16 5 30 90 99 92 99 70 100 96 32 5 9 32 84 68 100 24 37 100 90 100 100 100 100 100 100 100 100 100 100 100 100 100 100
100 100 100 100 100 100 100 100 5 52 80 100 96 100 100 100 63 100 90 52 52 99 100 100 100 15 13 64 15 71 100 100 100 100 100 100 100 100 100 100 100 100 100 100
100 100 100 100 100 100 96 100 68 74 99 100 97 100 100 100 95 65 100 94 100 100 100 100 100 67 99 77 100 93 100 100 100 100 100 100 100 100 100 100 100 100 100 100
100 100 100 100 99 82 53 38 64 99 100 100 100 100 100 100 98 100 100 100 100 100 100 100 100 100 100 100 100 100 100 100 100 100 100 100 100 100 100 100 100 100 100 100
100 100 77 6 68 100 61 92 98 88 100 78 100 97 89 60 47 82 100 100 100 100 100 100 100 100 100 100 100 100 100 100 100 100 100 100 100 100 100 100 100 100 100 100
100 98 38 99 98 99 100 82 98 70 96 86 86 73 100 100 30 13 99 100 100 100 100 100 100 100 100 100 100 100 100 100 100 100 100 100 100 100 100 100 100 100 100 100
100 99 94 38 92 100 99 94 100 82 75 100 100 100 100 99 18 63 100 100 100 100 100 100 100 100 100 100 100 100 100 100 100 100 100 100 100 100 100 100 100 100 100 100
100 96 68 15 100 100 92 100 100 89 78 99 86 100 100 100 82 40 100 100 100 100 100 100 100 100 100 100 100 100 100 100 100 100 100 100 100 100 100 100 99 100 100 100
21 45 32 100 100 99 93 100 89 64 86 98 74 99 100 100 79 58 68 100 90 100 100 100 100 100 100 100 100 100 100 100 100 100 100 100 100 100 100 100 100 91 87 72
21 98 98 100 100 100 88 100 5 58 98 94 74 100 100 97 95 77 89 100 100 96 100 100 100 100 100 100 100 100 100 100 100 100 100 100 100 100 100 100 100 100 100 100
97 100 73 100 98 100 100 51 28 45 79 100 60 100 100 100 51 64 100 100 84 100 100 100 100 100 100 100 100 100 100 100 100 100 100 100 100 100 100 100 100 100 95 84
82 79 86 76 94 100 93 49 42 34 78 93 96 100 100 100 98 36 68 97 75 100 100 100 100 100 100 100 92 100 100 100 100 100 100 95 82 100 80 68 64 58 85 92
82 96 70 78 98 72 58 7 10 74 86 92 99 100 100 100 100 100 100 84 86 91 89 100 100 100 100 100 100 100 94 100 76 76 94 100 96 53 7 15 56 59 42 6
100 100 100 98 78 100 61 26 6 79 77 72 88 100 100 100 100 100 100 98 87 96 100 85 76 92 88 100 100 85 97 93 100 100 85 37 5 10 5 5 5 5 13 6
94 83 89 99 48 78 51 12 80 26 24 41 85 92 100 100 100 100 100 100 100 100 100 90 98 100 100 100 100 75 58 74 78 46 59 10 5 10 52 17 32 23 5 14
98 98 100 100 100 98 99 14 68 100 90 78 46 82 100 100 100 100 100 100 100 100 100 100 100 100 100 98 60 45 59 29 5 6 29 49 14 5 5 5 5 5 5 5
100 100 100 100 100 100 100 24 100 100 99 99 72 89 94 100 100 100 100 100 100 100 100 100 91 78 100 100 98 68 35 12 5 14 58 49 5 5 5 5 5 5 5 5
49 72 100 100 100 100 100 100 100 75 97 100 100 99 94 100 100 100 100 100 100 100 100 100 100 100 100 100 88 48 10 17 15 42 31 7 5 5 5 15 5 5 5 5
100 100 99 100 100 100 100 100 100 92 100 100 100 100 100 100 100 100 100 100 100 100 100 100 100 100 69 81 75 100 24 29 6 5 5 5 5 5 5 5 5 5 5 5
100 100 99 100 100 100 50 98 100 100 100 100 100 100 100 100 100 100 100 100 100 100 100 100 100 83 76 38 68 50 30 6 5 5 5 5 5 5 5 5 5 5 5 5
100 100 100 100 100 100 100 100 100 100 100 100 100 100 100 100 100 100 100 100 100 100 100 100 100 99 100 59 40 40 6 5 5 5 5 5 5 5 5 6 6 5 5 5
100 100 100 100 100 100 100 100 100 100 100 100 100 100 99 91 100 100 100 100 100 100 100 100 100 90 46 42 93 32 6 5 5 5 5 7 7 23 41 69 61 13 42 60
100 100 100 100 100 100 100 100 97 100 90 82 98 100 100 100 100 100 100 100 100 100 99 70 32 40 76 79 91 87 52 35 7 12 54 51 61 64 66 67 66 65 69 56
100 100 100 100 100 100 100 100 100 100 100 92 83 100 100 100 76 76 98 100 100 100 100 81 79 52 98 83 89 78 64 50 32 71 54 12 62 59 68 63 64 57 59 43
100 100 100 100 100 100 100 100 100 100 100 100 100 99 86 95 100 100 100 100 97 98 92 96 92 54 87 73 58 99 99 92 85 61 82 51 44 62 61 61 57 56 80 78
100 100 100 100 100 100 100 100 100 100 100 100 100 100 100 100 94 95 100 100 100 100 100 100 100 100 93 90 100 100 100 100 89 42 53 59 100 63 63 67 67 83 54 40
100 100 100 100 100 100 100 100 100 100 100 100 100 100 100 100 100 100 100 100 100 100 100 100 100 100 100 100 100 100 100 100 98 100 100 100 93 92 82 94 100 58 41 54

GFSNGP_prec_cloud_060.txt.gz
Cloud_Cover
100 100 100 100 100 100 100 100 100 100 64 59 53 21 29 89 100 23 11 27 40 26 9 5 26 22 92 11 5 5 5 5 91 100 100 100 100 100 100 100 100 100 100 100
100 100 100 100 100 100 100 100 96 67 52 100 100 99 100 100 100 22 6 59 53 54 9 98 54 28 5 5 5 5 28 20 100 100 100 100 100 100 100 100 100 100 100 100
100 100 100 100 100 100 85 71 5 5 81 100 100 100 100 97 100 99 92 100 100 94 81 59 99 100 65 51 89 52 100 100 100 100 100 100 100 100 100 100 100 100 100 100
100 100 100 100 100 100 100 41 41 86 100 100 99 100 100 100 81 21 8 100 100 100 40 100 100 100 100 100 100 100 100 100 100 100 100 100 100 100 100 100 100 100 100 100
100 100 100 100 100 100 100 100 63 97 92 100 100 100 98 96 100 10 5 65 100 100 100 100 100 100 100 100 100 100 100 100 100 100 100 100 100 100 100 100 100 100 100 100
82 84 100 100 100 99 92 99 100 88 91 100 100 94 100 100 100 6 53 85 100 100 100 100 100 100 100 100 100 100 100 100 100 100 100 100 100 100 100 100 100 100 100 100
100 92 100 95 85 93 91 96 100 100 92 96 86 90 100 100 100 21 100 100 100 100 100 100 100 100 100 100 100 100 100 100 100 100 100 100 100 100 100 100 100 100 100 100
99 96 62 5 77 99 98 94 100 99 72 87 98 98 100 90 100 34 99 100 100 100 100 100 39 90 100 100 100 100 100 100 100 100 100 100 100 100 100 100 100 100 100 84
16 74 36 100 93 95 96 90 99 92 22 86 100 100 100 30 88 51 100 98 100 100 100 100 99 100 100 100 100 100 100 100 100 100 98 100 100 100 100 100 100 100 100 100
17 80 57 92 100 100 100 36 73 83 72 48 92 100 100 100 99 100 100 100 100 100 100 100 100 100 100 100 100 100 100 81 85 88 100 100 100 98 100 96 100 100 100 100
50 54 97 84 100 100 100 89 53 68 96 62 58 100 100 100 100 100 100 99 100 100 100 100 100 100 100 100 100 100 100 100 100 100 100 100 100 100 100 100 100 95 76 68
89 71 70 35 100 100 100 99 77 80 70 86 72 97 100 100 98 100 98 68 100 100 99 100 100 100 100 99 67 88 100 95 100 100 100 98 90 78 73 48 44 55 80 67
95 58 28 49 62 100 100 100 98 78 43 79 80 100 96 100 100 100 95 61 100 100 95 100 100 100 95 100 100 100 100 99 79 81 75 71 50 90 77 53 84 31 5 8
80 62 85 98 77 80 85 98 79 30 11 5 83 95 100 100 100 100 95 77 72 99 100 100 90 88 86 92 100 95 87 73 93 45 49 59 51 48 64 29 5 5 5 5
62 55 92 93 83 43 72 64 100 54 55 16 19 52 100 100 100 100 100 86 93 96 91 76 91 100 100 100 80 76 86 63 38 56 65 59 40 5 5 5 5 5 5 5
73 100 100 87 97 100 99 100 75 58 26 52 49 60 73 100 100 100 100 100 98 100 100 100 100 100 100 100 100 99 97 99 88 41 6 5 5 5 5 5 5 5 5 5
100 100 100 100 100 100 100 100 100 100 40 51 50 59 75 99 100 100 100 100 100 100 100 100 100 100 100 100 100 100 100 100 6 5 5 11 12 5 5 5 5 5 5 5
100 92 75 73 76 76 100 100 100 100 100 100 91 100 100 97 100 100 100 100 100 100 100 100 100 99 100 100 100 100 100 89 7 10 29 32 5 5 5 5 5 7 10 5
100 100 100 100 97 74 99 100 100 100 100 100 91 100 92 100 100 100 100 100 100 100 100 100 100 100 100 100 100 100 100 58 42 18 12 8 6 5 10 16 42 37 5 5
100 100 100 100 83 93 81 100 100 100 100 100 100 100 100 100 100 100 100 100 100 100 100 100 100 100 100 100 100 100 40 43 44 47 35 44 41 57 46 55 80 9 5 5
100 100 100 100 100 100 100 100 100 100 100 100 100 100 100 100 100 100 100 100 100 100 100 100 100 100 100 100 77 97 82 80 72 53 61 29 66 68 72 72 34 5 5 14
100 100 100 100 100 100 100 100 100 100 100 100 100 100 100 100 100 100 100 100 100 100 100 100 100 100 89 81 90 75 82 100 98 37 5 46 70 58 49 61 52 8 67 73
100 100 100 100 100 100 100 100 100 100 100 100 100 100 100 100 100 100 100 100 100 100 100 100 92 100 100 90 79 76 92 90 27 5 6 42 40 66 59 20 51 69 100 100
100 100 100 100 100 100 100 100 100 100 100 100 100 100 100 74 98 99 100 100 100 100 100 99 86 83 79 86 63 59 72 43 48 23 11 11 61 63 64 52 58 100 100 80
100 100 100 100 100 100 100 100 100 100 100 100 100 100 100 100 94 100 100 100 100 100 100 97 100 100 100 98 99 80 89 72 66 98 84 35 31 51 62 83 100 96 38 56
100 100 100 100 100 100 100 100 82 91 100 100 100 100 100 100 100 100 100 100 100 100 100 100 100 100 100 100 100 96 90 73 100 100 98 79 73 84 71 84 95 47 7 26
100 100 100 100 100 100 100 100 100 100 100 100 100 100 100 100 100 100 100 100 100 100 100 100 100 100 100 100 100 100 100 100 100 95 100 99 95 100 98 52 22 71 23 50

GFSNGP_prec_cloud_063.txt.gz
Cloud_Cover
100 100 100 100 100 100 100 100 99 100 100 100 100 100 97 90 22 89 83 5 17 98 5 5 5 5 5 5 3 0 0 0 16 53 84 99 100 100 100 100 100 100 100 100
100 100 100 100 100 100 100 100 100 99 99 100 100 100 100 100 100 100 100 100 94 100 35 5 5 5 5 5 4 0 5 0 28 100 100 100 100 100 100 100 100 100 100 100
100 100 100 100 100 100 100 100 100 100 74 100 100 100 100 100 100 100 66 24 100 100 99 5 5 5 5 5 5 76 59 100 96 100 100 100 100 100 100 100 100 100 100 100
100 100 100 100 100 100 98 92 53 84 100 100 100 100 100 100 100 100 84 44 67 100 98 13 5 5 5 5 41 59 98 100 100 99 100 100 100 100 100 100 100 100 100 100
100 100 100 100 100 100 80 63 62 91 100 100 100 97 91 86 100 100 55 17 98 100 100 100 95 83 62 97 90 100 100 100 100 100 100 100 100 100 100 100 100 100 100 100
72 57 92 100 98 93 89 99 100 96 100 100 100 90 90 100 100 100 38 26 90 100 100 100 100 96 100 99 100 100 100 100 100 100 100 100 100 100 100 100 100 100 100 100
89 74 8 93 96 100 99 100 100 100 94 100 79 66 95 100 100 87 6 96 100 100 100 100 100 100 100 100 100 100 100 100 100 100 100 100 100 100 100 100 100 100 100 100
98 85 77 52 88 100 99 84 100 99 96 11 100 100 100 100 6 5 18 58 100 100 100 96 80 100 100 100 100 100 100 100 100 100 100 100 86 79 82 100 100 100 100 98
54 92 72 87 100 95 99 100 100 100 100 28 100 100 100 91 54 100 96 100 100 65 100 98 96 100 100 100 100 100 100 100 97 62 66 99 100 100 100 100 100 100 100 100
51 94 52 100 58 100 94 100 100 83 31 15 88 88 100 100 100 100 100 98 100 100 100 100 100 100 100 100 99 72 56 43 6 34 83 100 100 100 100 98 85 82 58 53
30 9 64 93 84 100 95 100 96 66 60 44 71 89 97 90 99 100 100 100 96 97 99 100 100 100 99 100 75 34 6 21 95 100 100 79 19 5 7 35 37 40 38 46
5 6 8 5 89 75 93 100 99 78 64 33 73 62 98 100 100 96 100 100 98 71 87 100 100 100 100 93 50 92 100 100 100 100 98 48 26 49 57 56 56 57 57 55
8 96 84 58 100 33 81 100 99 50 59 67 20 78 83 100 100 100 100 94 96 69 98 100 100 100 68 10 71 100 100 100 100 100 90 69 81 65 75 86 79 42 11 24
55 77 24 66 98 46 78 88 44 100 100 94 84 12 68 72 100 100 100 94 100 82 100 100 98 48 74 74 100 100 100 100 99 68 19 9 40 66 53 21 5 5 5 5
46 35 69 28 44 94 100 66 84 100 100 100 56 25 20 100 100 100 100 99 99 90 100 100 100 100 95 96 99 100 100 90 12 40 28 54 36 23 5 5 5 5 5 6
85 99 99 100 99 88 100 100 91 100 95 96 61 16 96 100 100 100 100 100 100 100 99 90 94 100 100 100 100 100 78 62 74 75 28 12 5 5 5 5 5 5 5 5
100 73 70 100 39 94 100 100 100 100 100 100 100 76 90 100 100 100 100 100 100 100 100 100 100 100 100 97 79 100 76 67 56 82 35 5 5 5 5 5 5 5 41 34
77 100 100 100 100 70 74 92 100 100 100 100 100 100 100 100 100 100 100 100 100 100 100 100 100 100 100 100 93 68 70 66 55 46 13 5 6 5 15 6 9 40 12 5
100 100 100 100 100 100 98 90 95 100 100 100 100 100 100 100 100 100 100 100 100 100 100 100 100 100 100 100 100 99 86 62 51 13 8 38 48 29 6 5 5 5 5 16
100 100 100 100 100 100 96 74 93 73 100 100 100 100 90 100 75 100 100 100 100 100 100 100 100 98 100 100 98 100 85 69 58 29 30 43 15 5 5 5 5 7 23 5
100 100 100 100 100 100 100 100 90 85 98 100 100 100 100 100 100 100 100 100 100 100 100 100 100 100 100 100 100 99 75 63 44 44 28 37 12 5 5 5 9 35 5 5
100 100 100 100 100 100 100 100 100 100 100 100 100 100 100 100 100 100 100 100 100 100 100 100 100 100 100 100 100 100 67 90 34 45 20 53 23 7 43 50 13 5 5 5
100 100 100 100 100 100 100 100 100 100 100 100 100 100 100 100 100 100 100 100 100 100 100 100 100 100 100 100 100 100 76 54 69 52 66 80 88 51 27 54 32 5 9 35
100 100 100 100 100 100 100 100 100 100 100 100 100 100 100 100 100 100 100 100 100 100 100 100 100 100 100 100 100 100 100 82 88 83 86 82 100 96 92 65 44 76 99 95
100 100 100 100 100 100 100 100 100 100 100 100 100 100 100 100 100 100 100 100 100 100 100 100 100 100 100 100 100 100 100 74 77 90 100 100 100 99 81 78 65 54 79 90
100 100 100 100 100 100 100 100 100 100 100 100 100 100 100 100 100 100 100 100 100 100 100 100 100 100 100 100 100 100 100 100 100 93 100 100 98 95 99 91 94 89 5 7
100 100 100 100 100 100 100 100 100 100 100 100 100 100 100 100 100 100 100 100 100 100 100 100 100 100 100 100 100 100 100 100 100 98 100 100 100 100 100 85 43 56 60 11

GFSNGP_prec_cloud_066.txt.gz
Cloud_Cover
80 33 91 100 100 100 100 100 100 79 98 100 100 100 100 100 100 100 34 66 53 81 78 5 5 5 5 2 0 1 0 0 1 13 60 81 100 100 100 100 100 100 100 100
100 100 100 100 100 100 100 94 8 27 40 99 100 91 99 70 100 100 99 100 90 44 90 7 5 5 5 5 5 5 12 3 10 54 98 70 99 100 100 100 100 100 100 100
100 100 100 100 100 100 100 100 100 100 100 100 100 100 100 100 100 100 100 100 87 39 93 98 6 5 5 5 5 5 78 82 23 56 72 94 94 91 99 100 100 100 100 100
100 100 100 100 100 100 100 100 100 100 100 100 100 100 100 100 100 100 100 100 11 93 98 94 18 38 50 16 18 16 92 54 52 52 78 94 100 100 100 100 100 100 100 100
100 100 100 100 100 100 100 100 100 97 100 100 100 100 80 85 80 100 100 79 7 25 85 100 98 81 94 94 82 77 42 100 90 98 97 100 100 100 100 100 100 100 100 100
100 100 100 100 100 87 80 98 100 100 99 100 100 94 89 83 100 100 72 51 88 100 100 98 88 100 100 100 100 99 100 100 100 100 100 100 100 100 100 100 100 100 100 100
99 100 100 100 100 97 96 92 99 92 98 100 89 76 79 100 100 51 5 19 100 100 100 88 96 100 100 100 100 100 100 100 100 100 100 100 100 100 96 89 92 100 97 98
65 84 72 59 90 98 98 99 98 100 96 100 96 94 100 100 100 19 5 16 97 100 100 100 98 98 100 100 100 100 100 100 100 100 100 77 49 61 92 97 100 100 99 98
93 90 73 88 94 87 100 100 100 100 79 77 100 100 100 100 60 49 44 64 100 100 100 100 100 100 100 100 100 100 100 100 89 86 9 5 42 61 90 74 47 6 5 12
67 48 52 45 71 100 100 100 100 100 61 98 100 67 97 100 83 76 93 88 100 91 100 100 100 100 100 100 100 100 98 33 5 5 5 9 60 58 66 65 46 7 5 5
19 10 59 34 72 100 99 100 100 100 88 62 55 87 99 96 55 60 45 76 100 100 100 100 100 100 100 100 96 50 5 5 7 49 100 49 51 72 78 51 5 5 5 5
20 56 7 5 76 42 100 85 99 100 53 50 10 37 77 100 73 66 49 59 100 100 100 100 99 95 78 48 42 5 5 27 91 100 96 100 83 52 5 5 5 13 36 44
11 15 14 56 65 36 30 44 93 100 72 85 35 19 52 100 100 99 87 95 98 100 100 100 100 40 69 7 44 28 71 100 100 100 100 92 44 9 6 15 45 39 29 15
5 10 5 5 5 5 50 42 57 100 75 71 70 67 85 64 100 100 100 88 100 100 100 82 73 65 48 78 100 100 100 100 100 100 92 6 5 6 5 5 5 5 6 5
73 49 14 5 5 5 29 67 99 100 100 84 98 100 100 97 79 100 100 100 97 100 81 58 88 100 76 99 100 100 100 100 100 77 18 5 7 14 8 16 5 5 5 5
50 60 93 100 16 20 91 24 72 100 100 100 100 100 100 55 32 100 100 100 100 94 86 92 100 81 31 62 100 67 76 44 11 8 5 5 11 34 32 5 18 5 5 5
100 100 95 84 32 28 67 23 77 100 100 100 100 100 100 100 100 100 100 100 100 100 100 71 76 23 48 100 100 100 100 91 15 5 29 25 35 40 14 5 23 30 5 10
100 93 98 88 100 97 45 21 61 91 82 100 100 100 100 100 100 100 100 100 100 100 100 100 100 90 100 97 99 100 40 60 24 74 48 71 64 41 6 44 55 13 20 27
100 100 100 100 100 97 100 100 84 100 78 72 75 90 86 100 100 100 100 100 100 100 100 100 100 100 100 100 100 97 99 74 86 100 94 62 35 25 50 45 24 13 46 54
100 100 100 100 100 100 100 100 100 61 68 69 74 86 100 100 99 100 100 100 100 100 100 100 100 100 100 100 98 100 70 71 87 100 100 95 48 71 69 41 8 25 66 48
100 100 100 100 100 100 100 100 99 70 64 77 91 88 98 100 100 100 100 100 100 100 100 100 100 100 100 100 100 100 87 84 97 100 100 100 75 86 98 76 37 10 27 52
100 100 99 99 100 100 100 100 100 100 100 100 100 100 100 100 100 100 100 100 100 100 100 100 100 100 100 100 100 100 97 100 100 100 100 100 100 100 100 99 35 45 21 5
100 100 100 100 100 100 100 100 100 100 100 100 100 100 100 100 100 100 100 100 100 100 100 100 100 100 100 100 100 100 100 100 100 100 100 100 100 100 100 76 72 49 13 30
100 100 100 100 100 100 100 100 100 100 100 100 100 100 100 100 100 100 100 100 100 100 100 100 100 100 100 100 100 100 100 100 100 100 97 100 100 100 100 100 99 75 65 77
100 100 100 100 100 100 100 100 100 100 100 100 100 100 100 100 100 100 100 100 100 100 100 100 100 100 100 100 100 100 100 100 100 100 100 100 100 100 100 93 71 63 87 93
100 100 100 100 100 100 100 100 100 100 100 100 100 100 100 100 100 100 100 100 100 100 100 100 100 100 100 100 100 100 100 100 100 100 100 98 100 100 96 93 70 100 100 95
100 100 100 99 99 89 93 100 100 100 100 100 100 100 100 100 100 100 100 100 100 100 100 100 100 100 100 100 100 100 100 100 100 99 100 98 98 73 84 100 100 100 97 6

GFSNGP_prec_cloud_069.txt.gz
Cloud_Cover
6 94 100 100 100 100 100 96 53 98 100 100 100 100 100 94 57 99 100 100 100 100 100 100 100 100 79 29 2 0 0 0 16 12 3 3 51 86 92 100 85 61 85 100
99 100 100 100 100 100 100 100 96 99 92 94 98 100 100 100 100 100 100 100 100 83 36 57 14 5 5 5 5 5 1 0 19 56 80 78 74 45 57 88 65 73 98 100
99 52 57 70 100 85 72 96 100 100 100 97 94 99 100 100 100 100 100 100 98 53 95 100 34 11 5 5 5 5 5 7 31 91 92 100 100 100 100 100 100 100 100 100
100 100 98 99 82 88 99 80 100 91 95 100 88 98 100 96 99 100 100 100 100 100 100 45 94 42 5 5 5 5 20 66 77 100 100 100 100 100 100 100 100 100 100 100
97 100 100 100 100 100 100 97 99 100 100 100 100 100 100 100 100 78 97 100 46 32 6 96 100 72 37 73 50 51 58 100 100 100 100 100 100 100 100 100 100 100 100 100
100 100 100 100 100 100 100 100 100 100 100 100 100 100 100 100 100 100 100 100 100 93 91 88 85 96 100 97 93 100 100 100 100 100 100 100 100 100 100 100 100 100 70 41
100 100 100 100 100 100 100 100 100 100 100 100 97 99 100 100 76 99 11 5 5 70 99 100 100 100 100 100 100 100 100 100 100 100 100 100 100 100 92 80 42 5 5 6
100 100 100 100 100 99 99 100 100 79 73 81 75 100 100 100 100 68 5 31 37 89 100 100 100 96 100 100 100 100 100 100 100 100 100 72 45 22 2 5 5 5 5 5
43 90 100 100 100 93 85 94 100 80 68 14 23 100 100 100 100 93 93 73 60 100 100 100 100 100 100 100 100 100 100 100 82 37 5 5 4 4 5 5 5 5 5 5
85 56 73 63 71 91 100 100 100 100 100 100 100 100 100 100 100 92 69 47 33 48 100 100 100 100 100 100 100 100 70 73 6 5 5 5 24 97 39 13 45 47 7 37
51 72 83 23 49 96 100 100 100 100 100 100 98 92 100 99 100 35 26 69 75 93 100 100 100 100 100 100 100 98 71 16 5 5 11 99 100 100 100 99 60 18 12 11
52 59 16 51 20 35 76 100 100 100 99 100 100 49 53 97 99 95 26 47 100 99 100 100 100 100 100 100 58 5 5 32 30 70 99 100 100 100 100 40 8 11 5 5
54 61 21 35 34 20 52 100 100 100 71 100 100 26 18 95 100 100 84 65 79 56 76 100 100 100 100 89 58 5 69 41 100 100 100 100 100 100 70 29 5 5 5 5
86 98 96 74 54 5 36 59 38 100 46 100 81 31 56 49 78 95 97 100 78 86 73 100 100 100 50 17 5 19 56 65 100 100 100 95 96 68 44 5 5 5 5 5
98 100 100 70 23 5 5 6 5 28 60 100 79 59 58 68 70 80 85 100 100 84 86 97 78 58 39 66 57 5 61 96 97 83 82 27 11 5 16 26 20 10 7 10
100 99 100 92 21 7 28 5 7 38 48 99 98 31 64 48 100 100 100 100 100 98 97 95 65 58 55 77 100 90 92 100 100 97 84 73 61 48 56 57 59 56 28 14
100 98 100 100 100 76 5 5 36 44 74 67 98 100 100 100 100 100 100 100 100 100 100 100 97 95 100 100 87 97 100 96 77 6 39 47 65 67 96 100 74 47 13 11
100 100 100 100 100 95 87 61 60 70 96 64 76 100 100 100 100 100 100 100 100 100 100 100 100 100 100 75 95 100 82 71 64 61 72 78 84 60 26 16 47 69 33 38
96 100 100 100 100 100 100 92 98 100 97 45 47 78 96 100 100 100 100 100 100 100 100 100 100 100 100 100 96 94 99 100 98 95 70 61 56 66 77 88 98 85 67 77
100 100 100 100 100 100 100 100 100 100 100 100 98 52 59 87 90 92 99 96 94 98 100 100 100 100 100 100 100 100 100 100 91 83 99 93 70 66 55 65 100 75 82 61
100 100 100 100 100 100 100 100 100 100 98 100 100 93 50 60 75 96 98 100 100 100 100 100 100 100 100 100 100 100 100 100 100 91 98 98 78 65 75 98 100 100 100 97
100 100 100 100 100 100 100 100 100 100 100 98 91 92 78 93 99 100 100 100 100 100 100 100 100 100 100 100 100 100 100 100 100 100 76 79 91 92 95 100 100 100 100 100
100 100 100 100 100 100 100 89 100 100 100 100 100 100 100 100 100 100 100 100 100 100 100 100 100 100 100 100 100 100 100 100 100 100 100 99 100 100 100 100 100 100 100 100
100 100 100 100 100 100 100 100 100 100 100 100 100 100 100 100 100 100 100 100 100 100 100 100 100 100 100 100 100 100 100 100 100 100 100 100 100 100 100 100 100 100 98 83
100 100 100 100 100 100 100 100 100 100 100 100 100 100 100 100 100 100 100 100 100 100 100 100 100 100 100 100 100 100 100 100 100 100 100 100 100 100 100 100 100 92 79 95
100 100 100 100 100 100 100 100 100 100 100 100 100 100 100 100 100 100 100 100 100 100 100 100 100 100 100 100 100 100 100 100 100 100 100 100 100 100 100 98 100 100 84 98
95 100 100 100 100 100 96 100 100 100 100 100 100 100 100 100 100 100 100 100 100 100 100 100 100 100 100 100 100 100 100 100 100 100 100 100 100 85 76 100 91 81 100 100

GFSNGP_prec_cloud_072.txt.gz
Cloud_Cover
20 6 96 98 95 84 100 88 100 100 100 100 100 100 100 100 100 100 100 100 100 100 100 100 100 100 100 100 100 100 100 100 93 97 100 63 76 24 11 18 23 79 72 90
100 100 100 100 89 50 78 90 100 100 100 100 100 100 100 100 91 100 100 100 100 100 100 100 100 100 100 100 100 100 100 99 80 38 73 96 89 100 100 100 100 100 100 96
5 63 100 100 100 100 100 7 64 100 100 100 100 100 100 100 100 100 100 100 100 100 100 100 100 100 100 100 100 100 89 52 42 88 100 100 100 100 100 100 100 100 100 100
62 6 23 53 82 96 100 100 100 100 100 100 100 100 100 100 100 100 100 100 100 100 95 88 100 100 95 84 30 5 6 36 98 100 100 100 100 100 100 100 100 100 100 100
6 36 80 91 93 94 100 100 100 100 100 100 100 100 100 95 80 93 100 100 100 100 100 91 80 100 32 26 41 41 10 92 96 100 100 100 100 100 100 100 100 100 99 39
98 98 100 100 100 100 100 100 100 100 100 99 100 100 64 100 87 100 100 100 100 100 100 100 100 100 82 100 100 98 100 100 100 100 100 100 100 100 100 100 96 81 21 5
69 100 100 100 100 100 100 100 100 100 100 100 100 84 99 100 100 100 100 100 100 100 81 100 100 100 100 100 100 100 100 100 100 100 100 100 100 78 62 12 4 5 5 5
100 100 100 100 100 100 100 100 100 100 100 100 100 100 100 100 100 100 100 100 100 100 100 100 100 100 100 100 100 100 100 100 100 100 100 98 38 7 3 1 0 3 19 17
40 100 100 100 100 100 100 100 100 100 100 100 100 100 100 100 100 100 27 6 5 76 100 98 91 94 100 100 100 100 100 100 100 70 11 5 4 2 5 5 5 52 85 20
67 87 70 95 100 100 100 100 100 100 100 95 79 85 95 100 100 100 54 5 13 33 98 100 100 100 100 100 100 100 100 100 10 5 5 5 5 5 6 84 100 100 75 5
89 91 70 58 75 83 100 100 99 100 83 100 100 98 98 91 100 99 98 97 71 58 100 100 100 100 100 100 100 100 92 8 6 5 5 5 5 12 90 100 100 100 100 28
93 100 98 99 60 61 90 100 100 100 100 100 100 100 100 100 100 100 84 38 31 85 100 100 100 100 100 100 100 89 100 72 6 5 39 29 48 100 100 100 100 100 85 6
100 99 92 87 74 64 62 69 70 92 100 100 100 100 100 100 100 98 97 67 66 99 100 100 100 100 100 100 97 100 100 54 8 18 58 30 100 100 100 98 89 100 69 36
100 100 100 100 92 66 63 41 38 37 100 100 100 94 100 100 91 70 86 88 97 79 97 100 100 100 100 83 54 65 42 6 5 62 98 100 92 59 98 97 96 59 22 11
100 100 100 100 100 99 32 37 36 55 72 98 100 95 100 100 77 50 70 99 98 100 95 80 98 100 64 56 41 13 5 5 9 30 72 54 81 98 97 58 28 36 46 54
52 96 80 88 100 100 100 48 8 45 15 68 92 66 93 98 63 54 84 100 100 100 100 97 80 54 72 20 63 72 40 77 78 82 100 100 57 22 17 36 64 74 59 9
5 61 10 94 100 100 100 92 10 5 5 5 91 38 100 100 100 100 100 100 100 100 100 100 100 94 98 78 78 65 50 75 90 100 100 72 58 29 19 10 28 12 20 11
68 82 100 100 100 100 100 90 95 86 76 54 26 47 82 97 100 100 100 100 100 100 100 100 100 100 100 100 89 76 93 75 94 100 91 91 71 71 33 38 72 97 67 18
100 100 95 78 62 91 100 100 100 100 86 70 59 29 5 50 94 97 100 100 100 100 100 100 100 100 100 100 100 100 98 96 96 99 100 100 62 48 69 87 75 92 52 44
65 98 97 98 100 100 100 100 100 100 100 100 100 100 100 88 65 99 100 100 100 100 100 100 100 100 100 100 100 100 100 100 99 100 100 99 89 64 70 78 98 71 56 100
100 100 100 100 100 100 100 100 100 100 100 100 99 100 100 100 100 48 82 100 97 99 100 100 100 100 100 100 100 100 100 100 100 100 100 100 100 100 100 100 100 52 100 86
100 100 100 100 100 100 100 100 100 99 100 100 100 100 100 100 100 76 68 89 99 100 100 100 100 100 100 100 100 100 100 100 100 100 100 100 100 100 100 100 94 90 100 94
100 100 100 100 100 100 100 100 99 78 85 100 100 100 100 100 96 91 88 79 100 100 100 100 100 100 100 100 100 100 100 100 100 100 100 100 100 100 100 93 99 100 100 100
100 100 100 100 100 100 100 99 100 99 97 100 100 100 100 100 100 100 100 100 100 100 100 100 100 100 100 100 100 100 100 100 100 100 100 100 100 100 97 100 84 84 100 100
100 100 100 100 100 100 100 100 100 100 100 100 100 100 100 100 100 100 100 100 100 100 100 100 100 100 100 100 100 100 100 100 100 100 100 100 100 100 100 94 94 98 100 91
100 95 100 100 100 100 100 100 100 100 100 100 100 100 100 100 100 100 100 100 100 100 100 100 100 100 100 100 100 100 100 100 100 100 100 100 100 100 98 100 100 100 100 100
62 41 71 87 99 100 100 100 100 100 100 100 100 100 100 100 100 100 100 100 100 100 100 100 100 100 100 100 100 100 100 100 100 100 100 100 100 100 100 100 100 100 100 90

GFSNGP_prec_cloud_075.txt.gz
Cloud_Cover
74 93 5 40 89 96 80 35 89 100 100 100 100 100 100 100 100 100 100 100 100 100 100 100 100 100 100 100 100 100 100 100 100 100 100 100 100 100 100 100 94 77 36 21
100 99 32 62 62 98 97 100 100 100 100 100 100 100 100 100 100 100 100 100 100 100 100 100 100 100 100 100 100 100 100 100 100 100 100 100 100 100 100 100 100 100 100 99
63 89 100 73 68 70 100 99 100 100 100 100 100 100 100 100 100 100 100 100 100 100 100 100 100 100 100 100 100 100 100 100 100 100 100 100 100 100 100 100 100 100 100 100
95 76 43 100 100 98 70 100 100 93 100 100 100 100 100 100 100 100 100 100 100 100 100 100 100 100 100 100 100 100 100 100 100 100 100 100 100 100 100 100 100 100 100 100
99 100 66 5 5 51 100 96 100 65 100 100 100 100 100 100 100 100 100 100 100 100 100 100 100 100 100 100 100 100 100 97 100 100 100 100 100 100 100 100 100 100 96 44
74 24 31 48 21 5 5 71 99 61 100 100 100 100 100 100 100 100 100 100 100 100 100 100 100 100 100 100 100 100 82 100 100 100 100 100 100 100 100 100 41 30 13 5
78 86 90 6 29 80 98 98 76 87 40 91 100 100 99 100 100 100 93 92 91 97 100 100 100 100 100 100 100 100 100 100 100 100 100 100 100 100 21 16 6 5 5 5
100 100 93 100 100 98 96 100 92 89 94 99 98 100 85 88 92 90 100 98 92 100 100 100 100 100 100 100 100 100 100 100 100 100 100 100 75 16 5 5 6 0 0 5
92 68 76 100 100 100 100 100 100 100 100 100 100 100 100 100 100 100 100 100 100 100 100 100 100 100 100 100 100 100 100 100 100 100 70 43 5 5 5 3 0 4 5 5
100 73 83 100 100 100 100 100 100 100 100 100 100 100 100 100 100 100 100 100 100 100 100 100 100 100 100 100 100 100 99 94 80 15 19 5 5 5 5 5 5 5 5 21
100 99 100 100 100 100 100 100 100 100 100 100 100 100 100 100 100 97 94 73 7 5 5 47 100 100 100 100 100 100 100 78 5 2 5 9 5 5 5 5 5 5 18 76
100 100 100 100 42 96 100 100 100 84 51 95 100 96 79 94 100 98 98 100 100 100 50 94 100 100 100 100 98 97 100 16 45 72 98 93 38 6 5 5 8 52 78 100
100 100 100 100 100 100 100 98 90 92 13 56 95 92 85 100 100 100 100 100 100 100 86 99 100 100 100 100 100 83 97 100 100 100 100 64 56 12 65 62 16 14 86 100
100 100 100 100 100 66 98 97 58 57 51 51 48 100 100 91 100 100 100 98 100 98 92 100 100 86 98 100 100 82 100 100 100 100 68 90 42 41 92 89 93 66 30 9
81 100 100 100 100 98 38 53 32 21 5 27 8 90 98 100 100 100 100 100 98 90 69 97 100 65 82 100 92 100 100 100 87 96 99 75 39 93 65 88 40 8 5 5
55 63 93 68 99 100 96 100 98 34 5 10 32 23 100 92 100 100 100 100 100 100 100 100 100 98 96 78 80 100 83 68 59 46 46 41 68 100 93 34 14 16 5 5
30 27 50 78 59 45 97 100 100 92 21 11 45 57 70 96 90 100 100 100 100 100 100 100 100 100 100 98 100 98 84 94 97 95 82 61 76 100 86 79 86 99 67 6
100 100 97 93 97 100 100 100 100 60 92 99 99 81 48 52 100 74 100 100 100 100 100 100 100 87 100 100 100 100 94 97 89 91 85 85 65 61 62 85 32 5 50 90
87 99 100 100 99 89 85 75 100 100 100 100 96 18 21 6 9 46 65 100 100 93 94 100 100 100 100 100 100 100 96 98 100 99 91 85 99 86 92 77 88 71 78 63
84 66 94 98 100 100 100 100 100 100 100 100 100 100 100 100 100 99 35 47 99 98 99 97 100 100 100 100 100 100 100 100 100 100 100 100 100 100 100 100 92 100 99 70
100 100 100 100 100 100 100 100 100 100 99 100 100 100 100 97 100 100 100 96 88 82 75 99 100 100 100 100 100 100 100 100 100 100 100 100 100 100 100 100 100 100 83 98
100 100 97 90 81 87 97 100 83 82 79 98 100 100 100 100 100 100 100 100 51 69 73 93 99 100 100 100 100 100 100 100 100 100 100 100 100 100 100 100 100 100 100 100
100 100 100 100 100 100 100 100 99 100 98 86 100 100 100 100 100 96 97 79 75 69 77 100 100 99 100 100 100 100 100 100 100 100 100 100 100 100 100 100 100 100 100 100
100 100 100 100 100 100 100 100 100 99 87 97 93 95 100 100 100 100 100 100 100 100 100 100 100 100 100 100 100 100 100 100 100 100 100 100 100 100 100 100 100 100 100 100
100 100 100 100 100 100 100 100 100 100 100 100 100 100 100 100 100 100 100 100 100 100 100 100 100 100 100 100 100 100 100 100 100 100 100 100 100 100 100 100 100 100 100 100
100 100 98 100 100 100 100 100 100 100 100 99 100 100 100 100 100 100 100 100 100 100 100 100 100 100 100 100 100 100 100 100 100 100 100 100 100 100 100 100 100 100 100 100
100 91 92 57 100 100 100 100 100 100 100 100 99 100 100 100 100 100 100 100 100 100 100 100 100 100 100 100 100 100 100 100 100 100 100 100 100 100 100 100 100 96 100 100

GFSNGP_prec_cloud_078.txt.gz
Cloud_Cover
100 99 100 97 100 56 40 28 100 100 100 100 92 100 100 100 100 100 100 100 51 100 100 100 100 100 100 100 100 100 100 100 100 100 100 100 100 98 100 100 100 100 100 100
100 100 44 9 5 5 49 100 100 100 100 98 100 100 100 52 54 96 100 100 100 100 95 100 100 100 100 100 100 100 100 100 100 100 100 100 100 100 100 100 100 100 100 100
18 13 78 60 62 34 97 100 100 100 100 97 100 100 100 100 100 100 99 100 100 100 100 100 100 100 100 100 100 100 100 100 100 100 100 100 100 100 100 100 100 100 100 100
90 10 69 100 66 72 91 100 100 100 100 100 100 99 100 100 100 100 100 100 100 100 100 100 100 100 100 100 100 100 100 100 100 100 100 100 100 100 100 100 100 100 100 100
96 90 82 100 75 73 97 92 100 100 100 100 100 100 98 100 99 100 100 100 97 99 100 100 100 100 100 100 100 100 100 100 100 100 100 100 100 100 100 100 100 100 100 78
53 100 100 75 28 5 5 6 94 97 100 100 100 100 100 100 100 100 100 100 80 97 100 100 82 100 100 100 100 100 100 100 100 100 100 100 100 100 100 99 68 12 5 5
52 39 27 51 100 57 54 65 91 41 81 100 100 99 100 100 100 100 100 100 100 100 100 100 100 100 88 100 100 100 100 100 100 100 100 100 100 100 94 43 17 16 5 5
37 95 42 8 8 56 76 100 88 42 52 67 51 85 100 100 100 100 100 100 100 100 100 100 100 100 100 100 100 100 100 100 100 100 100 100 98 69 17 5 5 5 5 5
98 37 99 55 94 98 96 98 100 100 98 98 99 82 98 100 99 99 100 100 100 100 100 100 100 100 100 100 100 100 100 100 100 100 100 100 44 7 5 3 5 0 2 3
80 100 100 61 100 100 100 100 98 100 100 100 100 100 100 100 100 80 100 100 100 100 100 100 100 100 100 100 100 100 100 100 100 100 100 57 5 5 5 5 5 5 5 5
100 99 100 46 98 100 100 100 100 100 100 100 100 100 100 100 95 93 100 99 100 99 100 100 100 100 100 100 100 100 100 100 100 66 26 5 5 5 3 5 5 5 5 5
100 100 100 84 32 100 100 100 100 100 100 100 100 100 100 100 94 93 100 100 100 100 100 100 99 100 100 100 100 100 99 90 57 44 5 5 5 5 15 5 69 7 5 5
100 100 100 100 92 91 100 100 100 100 100 100 100 100 100 100 100 100 100 100 100 95 100 100 100 100 100 100 100 100 100 84 63 69 99 100 100 100 90 7 5 5 5 28
100 100 100 100 97 52 60 88 79 88 93 55 30 40 88 88 88 90 84 84 100 100 100 100 100 100 100 100 100 100 96 67 88 100 100 100 100 84 17 22 6 19 26 7
100 100 100 100 99 63 6 5 5 6 7 6 5 29 6 13 99 100 100 100 100 100 100 100 100 100 100 99 100 100 82 43 70 83 90 100 100 73 59 25 56 48 59 31
98 100 100 100 100 97 48 5 10 6 5 5 5 5 9 10 62 76 100 100 100 100 100 100 100 100 100 100 99 100 100 99 90 83 65 60 70 72 67 72 74 98 90 53
55 92 100 100 100 100 98 48 69 99 97 54 20 22 6 5 17 25 55 100 100 100 100 100 100 100 100 99 100 100 99 100 91 74 71 34 69 63 33 58 36 66 53 57
86 96 100 100 100 100 100 100 100 100 100 100 90 90 79 69 80 72 64 100 91 100 100 100 100 100 100 100 100 100 99 99 100 84 69 98 92 96 100 88 80 60 34 63
87 99 90 99 100 100 99 100 100 100 95 100 100 100 96 69 62 78 90 89 75 94 76 99 96 100 100 100 100 100 100 100 100 100 100 100 100 100 100 100 100 97 76 81
77 76 84 90 100 100 100 100 100 100 100 100 100 100 100 92 97 100 100 98 80 50 56 100 100 100 100 100 100 100 100 100 100 100 91 100 100 100 100 99 99 96 100 100
99 98 87 98 96 98 100 100 96 96 100 100 100 100 100 100 100 100 99 100 100 100 87 72 100 100 100 100 100 100 100 100 100 100 100 100 100 100 100 100 100 100 100 100
100 100 98 99 99 88 99 93 79 62 61 87 95 100 96 100 100 100 100 100 100 100 100 100 77 88 95 100 100 100 100 100 100 100 100 100 100 100 100 100 100 100 100 100
100 100 100 100 100 100 100 98 98 94 91 92 83 84 91 89 100 100 100 100 100 100 100 100 77 95 100 100 100 100 100 100 100 100 100 100 100 100 100 100 100 100 100 100
100 100 100 100 100 100 100 100 100 100 100 100 100 100 99 88 93 96 98 100 100 100 100 100 100 100 100 100 100 100 100 100 100 100 100 100 100 100 100 100 100 100 100 100
100 100 100 100 100 100 100 100 100 100 100 100 100 100 100 94 100 100 100 100 100 99 100 100 100 100 100 100 100 100 100 100 100 100 100 100 100 100 100 100 100 100 100 100
100 100 97 49 84 100 100 100 100 100 100 100 100 100 100 100 100 100 100 100 100 100 100 100 100 100 100 100 100 100 100 100 100 100 100 100 100 100 100 100 100 100 100 100
100 100 99 87 70 56 59 32 87 100 100 100 100 100 100 100 100 100 100 100 100 100 100 100 100 100 100 100 100 100 100 100 100 100 100 100 100 100 100 100 100 100 100 100

GFSNGP_prec_cloud_081.txt.gz
Cloud_Cover
100 100 100 100 100 95 86 58 68 74 59 100 23 100 100 98 100 86 100 100 100 100 100 100 100 100 100 100 100 100 100 100 100 96 74 100 96 97 90 96 100 100 100 100
100 100 100 100 100 100 61 8 73 28 100 100 100 100 100 100 100 82 100 100 100 95 100 100 100 100 100 100 100 100 100 100 100 100 100 100 100 100 100 100 100 100 100 100
94 56 88 40 97 98 100 83 10 70 100 69 100 99 100 99 100 100 96 100 100 100 100 92 92 100 100 100 100 100 100 100 100 100 100 100 100 100 100 100 100 100 100 100
63 36 68 78 33 60 37 17 5 100 98 82 100 100 100 100 100 100 100 100 100 100 100 100 98 73 100 100 100 100 100 100 100 100 100 100 100 100 100 100 100 100 100 100
100 100 74 70 66 79 98 100 100 100 100 100 100 100 100 100 100 100 100 100 100 100 100 100 100 100 100 100 100 100 100 100 100 100 100 100 100 100 100 100 100 100 100 100
42 29 62 27 100 52 99 100 99 100 100 100 100 100 100 100 100 97 100 100 100 100 100 100 100 100 100 100 100 100 100 100 100 100 100 100 100 100 100 100 100 100 100 100
99 61 58 35 34 8 59 4 5 47 100 100 100 91 100 100 100 100 100 100 99 100 100 100 100 100 100 100 100 100 100 100 100 100 100 100 100 100 100 100 100 100 100 100
100 100 24 8 21 6 18 51 60 5 9 27 100 100 100 100 100 66 98 100 100 100 100 100 100 84 74 100 100 100 100 100 100 100 100 100 100 100 100 100 100 100 71 88
52 61 86 54 65 39 86 100 94 100 93 12 6 16 89 92 100 100 100 100 100 100 100 100 96 89 98 100 100 100 100 100 100 100 100 100 100 100 100 100 71 84 12 29
79 99 80 100 95 100 100 100 98 97 100 100 99 87 60 82 87 98 81 100 100 100 100 100 99 100 100 100 100 100 100 100 100 100 100 100 100 100 100 100 58 28 5 5
95 99 100 78 69 100 100 100 100 100 100 100 100 100 100 100 100 100 90 82 96 86 98 19 56 63 82 100 100 100 100 100 100 100 100 100 100 100 81 61 17 5 5 5
100 100 100 47 100 100 100 100 100 100 100 100 100 100 100 100 100 100 97 92 100 100 97 100 94 100 100 100 100 100 100 100 100 100 100 100 100 75 34 5 9 13 5 5
100 100 100 60 98 100 100 100 100 100 100 100 100 100 100 100 100 100 100 100 100 100 100 100 100 100 100 100 100 100 100 100 100 100 96 84 72 45 52 23 5 5 5 5
100 100 100 78 100 100 100 100 99 100 100 100 100 89 100 100 100 100 100 100 100 100 100 100 100 100 100 100 100 100 99 95 71 72 75 68 62 50 18 11 32 48 6 15
100 100 100 100 100 100 100 100 100 85 68 74 90 84 78 71 74 89 92 92 100 100 100 100 100 100 100 100 100 100 100 100 100 100 98 39 23 45 77 98 42 62 88 82
100 100 100 100 100 99 100 100 77 87 87 86 63 63 66 68 67 57 67 76 91 100 100 100 100 100 100 100 100 100 100 100 100 82 47 52 58 11 22 35 72 92 94 81
100 100 100 100 100 100 100 97 100 100 98 100 100 80 55 63 66 54 65 99 100 100 100 100 100 100 100 100 100 100 100 100 100 100 100 100 98 96 44 37 100 100 100 83
62 100 100 100 100 100 100 100 100 100 100 100 100 87 63 61 60 67 77 93 100 100 100 91 99 100 100 100 100 100 100 98 92 91 92 95 100 100 100 100 100 100 100 100
91 100 100 97 100 100 100 100 100 98 96 81 84 100 100 100 100 86 100 100 75 46 58 94 100 100 100 100 100 93 100 100 100 100 92 92 94 98 94 100 100 100 100 100
95 98 100 100 100 100 100 100 98 100 100 100 100 100 100 100 100 100 99 100 90 87 64 80 96 100 100 100 100 100 100 100 100 100 100 99 81 95 98 91 100 100 100 100
100 100 100 98 62 83 100 100 100 100 34 25 89 100 100 100 100 99 85 100 100 94 100 100 100 67 59 100 100 100 100 100 100 100 100 100 100 100 98 100 100 94 100 100
100 100 98 94 93 73 40 23 5 31 29 35 51 50 74 95 97 92 98 100 100 100 100 99 100 100 100 100 100 100 100 100 100 100 100 100 100 100 100 100 100 100 100 100
100 99 100 98 76 75 82 97 100 98 79 74 77 85 95 79 83 98 87 81 100 100 100 100 100 100 100 100 100 100 100 100 100 100 100 100 100 100 100 100 100 100 100 100
100 100 100 100 100 100 100 100 100 90 52 94 96 81 93 85 80 98 98 91 81 93 97 100 100 100 100 100 100 100 100 100 100 100 100 100 100 100 100 100 100 100 100 100
100 100 100 100 100 100 100 100 100 100 100 100 100 100 100 100 100 78 95 74 97 100 80 97 100 100 100 100 100 100 100 100 100 100 100 100 100 100 100 100 100 100 100 100
100 100 100 100 100 100 100 96 100 100 100 100 100 100 100 100 100 100 100 100 100 100 100 100 100 100 100 100 100 100 100 100 100 100 100 100 100 100 100 100 100 100 100 100
100 100 100 97 86 51 23 5 19 23 95 68 93 100 100 100 100 100 100 100 100 100 100 100 100 100 100 100 100 100 100 100 100 100 100 100 100 100 100 100 100 100 100 100

GFSNGP_prec_cloud_084.txt.gz
Cloud_Cover
100 100 100 100 29 5 5 80 62 100 92 95 88 10 86 43 5 5 5 3 25 35 18 21 96 100 100 100 100 100 100 100 100 100 92 100 100 100 82 100 100 94 100 100
100 100 100 100 100 27 34 88 95 100 94 79 7 5 5 7 6 6 55 46 10 39 100 100 99 100 100 100 100 100 100 97 85 100 100 100 100 100 100 100 100 100 100 100
100 100 61 63 61 41 54 32 100 100 100 100 92 29 42 83 69 100 100 72 94 100 86 46 53 98 50 92 100 100 100 100 100 100 100 100 100 100 100 100 100 100 100 100
100 100 100 100 100 100 100 100 100 100 100 100 88 57 54 90 81 100 100 85 100 97 100 96 100 92 100 59 100 76 100 100 100 100 100 100 100 100 100 100 100 100 100 100
100 100 100 100 100 100 100 100 100 100 100 67 66 100 54 100 83 87 100 91 91 100 100 100 100 99 100 100 100 100 100 76 100 100 100 100 100 100 100 100 100 100 100 100
100 57 90 88 100 100 99 100 100 80 69 100 97 99 57 11 100 100 100 100 100 100 100 100 99 100 100 100 88 99 98 96 100 100 100 100 100 100 100 100 100 100 100 100
100 100 98 36 83 100 99 100 100 100 100 100 100 100 100 100 100 95 91 100 100 100 100 100 100 100 100 100 100 100 96 100 100 100 100 100 100 100 100 100 100 100 100 100
100 99 42 8 11 10 40 99 88 54 20 25 79 98 71 100 100 100 100 71 100 100 100 100 100 100 100 100 100 100 100 100 100 100 100 100 100 100 100 100 100 100 100 100
58 5 5 83 28 10 73 100 99 100 14 27 5 12 17 29 92 100 100 100 92 100 100 100 97 95 85 100 100 100 100 100 100 100 100 100 100 100 100 100 100 100 100 100
55 62 71 100 47 27 8 93 95 91 98 66 68 69 100 100 100 100 100 100 100 88 78 97 97 99 98 100 100 100 100 100 100 100 100 100 100 100 100 100 100 100 100 100
52 93 100 80 73 100 100 92 95 98 97 98 100 95 100 100 100 100 100 100 91 88 100 99 100 96 100 100 100 100 100 100 100 100 100 100 100 100 100 100 100 100 100 100
96 100 100 100 92 94 85 100 95 100 100 96 100 100 100 100 100 100 87 81 86 93 100 100 100 100 97 93 98 100 100 100 100 100 100 100 100 100 100 100 100 100 100 91
100 98 100 73 72 100 100 100 100 100 100 100 100 100 100 100 100 100 100 100 100 99 100 100 100 100 94 100 100 100 100 100 100 100 100 100 100 100 100 100 100 96 73 44
92 65 70 56 100 100 98 66 98 100 100 100 100 100 100 100 100 100 100 100 100 100 100 100 100 100 100 100 100 100 100 100 100 100 100 100 99 97 93 73 68 79 99 98
73 74 45 81 100 99 100 100 100 100 100 100 100 100 100 100 96 100 100 100 100 100 100 100 100 100 100 100 100 100 100 100 100 95 100 100 99 79 76 70 76 48 79 72
100 82 85 84 99 100 100 100 100 100 100 100 90 97 100 91 61 62 74 96 100 100 100 100 100 100 100 100 100 100 100 100 100 100 100 100 100 100 76 70 82 98 99 42
86 100 100 100 100 100 100 100 100 100 100 100 100 100 100 100 56 74 86 64 29 6 77 100 100 100 100 94 95 100 100 100 100 100 100 100 100 100 100 100 63 92 78 28
63 76 100 100 100 100 100 100 100 100 100 100 100 100 99 81 78 94 92 64 12 5 77 96 100 100 100 100 100 100 100 100 100 100 100 100 100 100 91 96 100 100 90 83
60 92 100 100 100 100 100 100 100 100 100 99 100 99 100 100 100 100 100 94 65 62 27 63 96 100 100 97 99 99 100 100 100 100 100 100 100 98 100 94 100 99 92 75
100 100 100 100 100 100 100 100 100 100 99 87 44 91 100 100 100 100 100 98 90 100 99 90 96 84 93 97 97 100 100 100 100 100 100 100 100 95 100 98 93 99 100 99
100 100 92 95 95 94 80 98 69 64 54 16 39 99 64 86 99 99 94 96 99 99 84 96 100 100 100 100 100 100 100 100 100 100 100 100 100 100 99 100 100 100 100 100
100 100 100 100 100 100 100 100 84 68 17 5 8 40 86 70 42 74 71 99 94 100 100 100 100 100 100 100 100 100 100 100 100 100 100 100 100 100 100 100 100 100 100 100
100 100 100 100 100 100 100 100 90 86 73 83 99 95 93 76 64 95 87 24 63 90 100 100 100 100 100 100 100 100 100 100 100 100 100 100 100 100 100 100 100 100 100 100
100 100 100 100 100 100 100 100 100 100 100 100 100 100 89 54 43 82 26 6 5 74 84 81 100 100 100 100 100 100 100 100 100 100 100 100 100 100 100 100 100 100 100 100
100 100 100 100 100 100 100 100 100 100 100 100 100 100 100 100 99 62 44 100 97 73 23 49 77 100 100 100 100 100 100 100 100 100 100 100 100 100 100 100 100 100 100 100
100 100 100 100 100 100 100 100 100 100 87 97 99 100 100 100 100 100 100 100 80 100 95 100 100 100 100 100 100 100 100 100 100 100 100 100 100 100 100 100 100 100 100 100
100 97 100 100 100 100 100 100 100 100 73 33 5 19 90 99 87 93 96 44 97 100 100 100 100 100 100 100 100 100 100 100 100 100 100 100 100 100 100 100 100 100 100 100

GFSNGP_prec_cloud_087.txt.gz
Cloud_Cover
100 100 100 100 100 100 100 100 100 100 100 100 100 98 22 5 5 4 0 2 0 0 0 0 0 0 0 60 100 100 99 99 100 100 100 100 100 100 100 48 86 100 95 100
100 100 100 6 52 98 100 100 100 100 100 100 38 50 93 11 4 0 2 4 5 5 4 0 5 5 5 4 5 100 100 99 100 100 100 100 100 100 100 100 100 85 85 100
100 100 100 100 99 100 100 100 100 100 90 28 81 77 45 10 5 4 5 5 5 5 74 5 10 68 15 71 100 55 100 90 100 100 99 100 99 98 98 100 100 100 100 100
100 100 100 100 97 86 91 61 100 98 48 44 73 100 100 94 5 76 5 5 5 5 21 99 97 100 95 100 100 96 85 60 85 100 100 100 100 100 100 100 100 100 100 100
100 100 100 38 5 5 7 5 13 28 57 89 100 100 100 31 22 83 8 5 62 74 9 100 94 89 98 82 60 17 6 32 7 52 68 100 100 100 100 100 100 100 100 100
100 100 100 100 100 100 100 100 100 100 100 100 100 100 100 57 100 88 37 28 92 100 100 100 95 100 100 87 100 98 97 98 97 100 96 97 100 100 100 100 100 100 100 100
100 100 100 100 100 100 100 100 100 100 100 100 100 96 69 72 100 93 100 91 75 100 99 100 83 92 100 100 84 100 100 97 95 98 100 100 100 100 100 100 100 100 100 100
100 100 100 100 99 100 100 100 100 100 100 100 89 100 100 100 100 98 81 94 99 100 76 98 100 100 98 100 97 100 100 100 100 100 100 100 100 100 100 100 100 100 100 100
5 25 54 76 77 98 100 100 100 100 83 97 44 8 6 10 23 100 91 99 100 100 100 90 100 100 100 100 100 100 100 100 100 100 100 100 100 100 100 100 100 100 100 100
5 45 50 23 24 7 31 66 97 33 34 41 45 12 8 64 70 26 22 48 90 100 98 74 54 87 100 100 100 100 99 100 100 100 100 100 100 100 100 100 100 100 100 100
7 10 78 62 30 29 33 78 90 93 76 54 84 89 95 100 100 97 98 86 71 87 100 100 100 89 87 100 100 100 100 100 100 100 100 100 100 100 100 100 100 100 100 100
84 65 78 59 82 93 94 88 100 96 92 93 79 98 80 100 100 100 100 100 100 100 100 100 100 100 100 98 100 100 100 100 100 100 100 100 100 100 100 100 100 100 100 100
14 72 32 71 98 95 100 97 100 100 100 99 100 100 100 100 100 100 100 100 100 88 89 100 100 100 100 100 100 100 100 100 100 100 100 100 100 100 100 100 100 100 100 100
97 82 100 100 100 100 100 99 100 99 100 100 100 100 100 100 100 100 100 100 100 100 100 100 100 100 100 100 100 98 100 100 99 100 100 100 100 100 100 100 100 100 100 100
7 70 100 100 100 100 100 100 100 94 100 100 100 100 100 100 100 100 100 100 100 100 100 100 100 100 100 100 100 100 100 100 100 100 100 100 100 100 100 100 100 100 100 99
47 63 88 100 100 100 100 100 100 100 100 100 100 100 100 100 100 100 100 100 99 100 100 100 100 100 100 100 100 100 100 100 100 100 100 100 100 100 100 100 100 100 100 100
66 60 98 100 100 100 100 100 100 100 100 100 100 100 100 100 100 100 95 99 84 48 64 99 100 100 100 100 100 100 100 100 100 100 100 100 100 100 100 100 100 100 98 98
100 100 88 85 100 100 100 100 100 100 100 100 100 100 100 100 100 96 100 100 92 72 100 88 98 100 100 100 100 100 100 100 100 100 100 100 100 100 100 100 100 100 90 76
100 100 100 100 100 100 100 100 100 100 100 100 100 100 100 100 100 100 100 100 100 100 99 85 99 90 100 95 99 100 100 100 100 100 100 100 100 100 100 100 100 100 100 100
100 100 100 100 100 100 100 100 100 100 100 100 100 100 100 90 87 99 100 100 100 100 100 100 100 97 91 99 100 100 100 100 100 100 100 100 100 100 100 100 100 100 100 100
100 100 100 100 100 95 100 100 100 100 100 100 48 98 100 64 10 32 89 100 100 100 100 98 100 100 100 100 100 100 100 100 100 100 100 100 100 100 100 100 100 100 100 100
100 100 100 100 100 100 100 100 100 94 91 92 75 94 66 61 33 85 72 87 7 35 100 100 100 100 100 100 100 100 100 100 100 100 100 100 100 100 100 100 100 100 100 100
100 100 100 100 100 100 100 100 100 100 100 100 91 40 14 16 52 88 84 92 46 55 100 97 100 100 100 100 100 100 100 100 100 100 100 100 100 100 100 100 100 100 100 100
100 100 100 100 100 100 100 100 100 100 100 98 96 99 100 100 100 100 87 40 28 32 65 21 100 100 100 100 100 100 100 100 100 100 100 100 100 100 100 100 100 100 100 100
100 100 100 100 100 100 100 100 100 100 100 100 100 100 100 100 83 90 100 100 100 95 65 55 44 72 99 100 97 74 97 100 100 100 100 100 100 100 100 86 81 84 92 100
100 100 100 100 100 100 100 100 95 96 100 100 100 100 100 94 94 39 82 100 100 100 100 100 100 62 81 100 96 88 65 98 100 100 100 100 100 100 100 100 100 96 100 100
92 100 97 74 100 74 74 96 100 100 100 100 75 90 86 79 57 57 28 6 5 5 17 57 8 42 100 68 100 97 100 100 100 100 100 100 100 100 100 100 100 100 100 100

GFSNGP_prec_cloud_090.txt.gz
Cloud_Cover
54 19 85 81 84 100 100 100 100 100 100 100 100 100 28 5 4 0 0 0 0 0 0 0 0 0 0 0 4 5 7 93 99 100 100 92 95 25 5 5 5 5 15 16
100 100 100 69 99 100 100 100 100 100 100 100 9 5 5 6 98 20 0 0 0 0 0 0 0 0 0 0 0 0 0 14 12 100 100 100 100 100 100 100 91 100 86 72
100 100 100 25 82 100 100 100 100 100 100 97 10 27 25 100 31 8 12 0 0 0 0 0 5 2 5 0 0 0 0 0 0 43 100 100 98 100 100 100 100 100 100 100
100 100 100 100 62 50 86 100 100 100 100 100 100 100 100 100 100 6 5 2 2 5 5 0 0 7 12 5 6 5 5 4 5 18 22 100 100 98 87 100 100 100 100 100
97 100 100 100 8 66 89 86 100 100 100 100 100 100 100 100 43 15 41 9 5 5 4 26 5 4 80 42 17 92 5 5 5 16 54 59 72 98 100 100 100 100 100 100
98 100 100 100 100 57 93 98 98 83 59 85 78 25 5 5 94 100 100 58 95 5 5 70 100 68 6 80 92 89 80 100 54 78 93 100 100 100 100 100 100 100 100 100
55 31 22 5 5 5 6 41 30 5 5 5 5 6 29 92 100 100 94 41 99 49 96 81 100 100 71 46 75 84 100 100 100 67 96 100 100 100 100 100 100 100 100 100
92 92 93 100 82 58 56 97 68 61 100 86 100 100 100 100 6 58 8 85 98 75 100 96 95 99 81 100 100 86 92 100 100 100 99 100 100 100 100 100 100 100 100 100
100 100 100 100 68 100 100 100 100 100 100 100 100 97 30 14 15 94 100 100 98 10 79 91 100 60 100 100 75 100 99 85 100 100 100 100 100 100 100 100 100 100 100 100
56 80 43 24 28 38 44 71 100 100 100 100 100 82 84 86 89 88 54 40 72 100 7 100 100 59 61 77 99 100 100 100 100 100 100 100 100 100 100 100 100 100 100 100
57 25 5 9 18 5 5 79 83 38 88 61 72 96 49 90 68 100 87 28 50 94 81 21 94 95 63 100 67 98 100 100 100 100 100 100 100 100 100 100 100 100 100 100
83 96 61 66 6 44 68 84 89 44 62 71 50 5 10 7 20 55 57 90 79 86 100 83 100 100 99 100 100 84 88 100 100 100 100 100 100 100 100 100 100 100 100 100
63 37 47 91 97 100 100 100 100 100 100 90 28 28 87 82 88 86 100 100 99 90 85 83 42 100 100 100 100 100 93 100 100 97 100 100 100 100 100 100 100 100 100 100
12 80 84 100 100 100 100 100 100 100 100 100 97 100 100 98 96 100 100 100 100 100 100 100 100 99 100 100 100 100 100 100 95 100 100 100 100 100 100 100 100 100 100 100
86 23 79 99 100 100 100 100 100 100 100 100 100 100 100 100 100 100 100 100 100 100 100 100 100 100 100 100 100 100 100 100 100 100 100 100 100 100 100 100 100 100 100 100
100 77 56 67 80 100 100 100 100 100 100 100 100 100 100 100 100 100 99 100 98 100 100 100 96 100 100 100 100 100 100 100 100 100 100 100 100 100 100 100 100 100 100 100
98 100 13 92 66 84 100 100 100 100 100 100 100 100 100 100 99 100 100 100 58 74 99 89 86 100 100 100 100 100 100 100 100 100 100 100 100 100 100 100 100 100 100 98
89 100 100 100 100 90 74 64 67 100 100 100 100 100 100 100 100 100 100 100 100 100 100 99 100 87 100 100 100 99 100 99 100 100 100 100 100 100 100 100 100 100 100 100
100 100 100 100 100 100 96 58 86 100 100 98 97 100 100 100 100 100 100 100 100 100 100 100 100 100 98 100 100 91 100 100 100 100 100 100 100 100 100 100 100 100 98 84
100 100 100 100 100 100 100 100 98 99 98 76 88 94 100 100 100 100 96 100 98 98 100 100 100 100 100 100 100 100 100 100 100 100 100 100 100 100 100 100 100 100 100 100
100 100 100 100 100 100 100 100 100 100 100 100 83 70 95 99 99 79 96 100 23 27 59 93 100 100 100 100 100 100 100 100 100 100 100 100 100 100 100 100 100 100 100 100
100 100 100 100 100 100 100 100 100 100 100 92 93 98 69 25 6 5 26 64 5 19 95 92 100 100 100 100 100 100 100 100 100 100 100 100 100 100 100 100 100 100 100 100
100 100 100 100 100 100 100 100 100 100 100 100 98 100 91 58 32 63 31 65 66 22 28 72 94 100 100 100 100 100 100 100 100 100 100 100 100 100 100 100 100 100 100 100
100 100 100 100 100 100 100 100 100 100 100 100 100 100 98 99 100 99 92 96 100 100 100 100 100 100 99 92 100 100 100 100 100 100 100 100 100 100 100 100 100 100 100 100
100 100 100 100 100 100 100 100 100 100 97 100 100 100 100 100 100 100 100 100 100 100 85 96 97 100 100 100 98 98 99 100 100 100 100 100 100 100 100 100 100 100 100 100
100 100 100 100 100 100 99 88 100 100 100 79 98 100 100 100 89 94 87 77 82 80 78 87 96 100 97 97 68 89 84 84 90 100 100 100 100 100 100 100 100 100 100 100
53 98 100 100 100 100 100 100 100 97 65 93 100 100 100 95 100 100 70 46 79 55 26 45 31 5 5 8 67 75 82 79 80 89 89 81 100 100 100 100 100 100 100 100

GFSNGP_prec_cloud_093.txt.gz
Cloud_Cover
100 100 100 100 100 100 100 100 100 100 100 100 100 94 100 100 100 5 11 12 6 5 0 0 0 0 0 0 0 0 0 0 2 24 60 90 99 100 100 100 89 92 23 5
100 58 100 100 100 100 100 100 100 100 100 6 9 100 100 100 29 5 5 5 5 5 5 5 0 0 0 0 0 0 0 0 0 4 0 84 100 100 100 100 100 100 80 38
100 76 32 59 100 100 100 100 100 100 91 7 22 99 100 100 100 86 35 5 4 5 4 0 0 0 0 0 0 0 0 0 0 0 0 0 16 82 100 100 100 100 100 99
37 59 63 76 46 50 90 100 100 100 89 85 100 14 53 98 100 100 8 51 100 7 4 0 0 0 0 0 3 2 3 0 0 0 4 2 5 18 86 87 100 93 100 100
100 100 82 89 23 52 38 100 100 100 100 100 12 100 100 72 8 5 23 87 99 6 6 0 0 0 0 0 0 5 5 5 5 5 5 5 43 90 100 100 99 100 100 100
100 100 100 100 84 100 50 75 14 92 100 100 100 100 6 12 35 100 100 100 95 5 5 5 2 0 2 10 33 5 5 95 14 5 10 6 76 100 99 99 100 100 100 100
98 100 100 100 100 100 55 92 6 98 100 100 100 100 100 75 44 54 66 67 82 6 53 15 5 5 6 12 100 30 5 9 55 41 14 85 99 97 100 100 100 100 100 100
90 98 51 98 95 98 84 100 27 83 100 100 100 100 71 98 87 5 5 5 9 82 100 59 6 5 69 28 99 60 100 96 99 29 82 100 100 96 100 100 100 100 100 100
100 100 99 99 98 68 8 12 69 56 5 60 82 75 5 5 5 5 5 5 36 100 19 5 5 5 100 48 34 83 100 89 100 100 100 100 100 100 100 100 100 100 100 100
68 100 100 100 100 100 100 93 51 99 94 100 98 56 22 53 10 20 37 27 53 5 69 100 56 5 5 38 100 28 53 100 97 100 100 100 100 100 100 100 100 100 100 100
79 51 99 100 100 100 100 100 100 100 100 100 100 100 86 96 100 100 88 26 5 5 99 81 63 88 25 65 100 100 100 97 69 98 100 100 100 98 100 100 100 100 100 100
100 97 77 99 99 88 26 30 54 65 42 15 53 98 52 5 23 55 81 95 93 92 93 99 93 79 97 100 100 100 100 100 90 100 100 100 100 100 100 100 100 100 100 100
66 98 89 95 98 94 79 67 93 88 71 82 92 100 90 5 7 75 49 5 52 52 67 60 78 93 52 100 100 100 100 100 100 100 100 100 100 100 100 100 100 100 100 100
100 74 99 100 100 100 100 100 99 100 100 100 100 97 92 85 88 79 100 91 79 97 97 97 96 100 100 100 100 99 100 100 100 100 100 100 100 100 100 100 100 100 100 100
81 100 72 36 92 100 100 100 100 100 100 100 100 100 100 100 100 100 100 100 100 100 100 100 100 100 100 100 100 100 100 100 100 100 100 100 98 100 100 100 100 100 100 100
89 98 100 86 14 79 86 100 100 100 100 100 100 100 100 100 100 100 100 100 100 100 100 100 100 100 100 100 100 100 100 100 100 100 100 100 100 100 100 100 100 100 100 100
100 68 78 100 100 100 91 100 100 100 100 100 100 100 98 100 100 100 100 100 100 100 100 100 100 100 87 90 99 100 100 100 100 100 100 100 100 100 100 100 100 100 100 100
100 100 100 100 100 100 100 100 94 90 100 100 100 100 96 79 88 89 100 100 100 100 100 100 100 100 100 100 100 100 100 100 100 100 100 100 100 100 100 100 100 100 100 100
100 100 100 100 100 100 100 92 75 62 84 88 100 100 100 91 98 99 86 100 100 100 100 100 100 100 100 100 100 100 100 100 100 100 100 100 100 100 100 100 100 100 100 100
100 100 100 100 100 100 100 100 100 97 79 94 83 75 97 100 100 97 98 100 100 100 98 80 99 100 100 99 100 100 100 100 100 100 100 100 100 100 100 100 100 100 100 100
100 100 96 90 100 100 100 100 100 100 100 100 99 91 90 83 93 92 99 100 100 100 88 54 98 100 100 100 100 100 100 100 100 100 100 100 100 100 100 100 100 100 100 100
100 100 100 100 100 100 100 100 100 100 100 100 100 100 100 97 100 98 75 50 74 87 66 19 14 18 90 96 100 100 100 100 100 100 100 100 100 100 100 100 100 100 100 100
100 100 100 100 100 100 100 100 100 100 100 100 100 98 89 74 94 94 100 88 20 33 10 6 5 6 21 10 68 99 100 100 100 100 100 100 100 100 100 100 100 100 100 100
100 100 100 100 100 100 100 100 100 100 100 100 100 100 96 85 98 100 98 100 100 100 100 99 83 99 100 100 100 100 100 100 100 100 100 100 100 100 100 100 100 100 100 100
100 100 100 100 100 100 100 100 100 100 100 100 98 100 100 100 100 100 100 100 100 100 100 100 100 100 100 97 43 92 93 92 84 100 100 100 100 100 100 100 100 100 100 100
50 84 100 94 100 100 100 100 100 100 100 100 100 100 100 98 97 100 100 51 92 86 100 97 66 72 58 44 36 26 34 82 95 73 97 100 100 100 100 100 100 100 100 100
5 4 5 5 22 100 100 100 100 100 100 100 100 100 100 100 100 100 100 100 99 77 81 98 100 100 67 70 56 58 52 14 47 16 48 71 100 100 100 100 100 100 100 100

GFSNGP_prec_cloud_096.txt.gz
Cloud_Cover
91 100 100 100 100 100 100 100 100 100 100 100 100 100 100 100 100 100 100 100 100 17 5 0 0 0 0 0 0 0 0 0 0 0 0 31 100 100 87 36 96 55 89 99
100 100 100 100 100 100 100 100 100 100 100 100 100 100 100 100 100 100 100 100 63 3 5 5 4 0 0 0 0 0 0 0 0 0 0 3 2 100 24 99 100 85 96 100
87 100 100 100 100 100 100 100 100 100 75 100 100 100 100 100 100 100 100 100 100 7 5 6 5 5 5 0 0 0 0 0 0 0 1 3 2 0 0 31 30 0 2 80
66 72 41 99 100 100 100 100 100 100 88 71 71 100 100 100 100 100 100 100 98 32 13 32 4 4 5 0 0 0 0 0 0 1 4 3 0 0 2 12 68 98 100 19
88 95 48 72 60 100 100 100 100 100 100 100 100 100 100 39 98 68 100 100 100 100 100 84 5 98 90 3 0 0 0 0 0 5 5 5 5 5 100 100 100 98 85 52
100 100 90 96 88 98 90 100 100 100 100 100 100 80 83 100 100 95 100 100 100 100 100 57 73 100 36 5 0 0 0 0 5 7 5 5 5 53 100 100 100 100 87 100
98 100 99 21 75 81 77 100 100 100 100 100 98 34 50 77 98 100 100 35 34 97 100 100 100 100 23 5 5 5 5 1 6 42 5 24 16 97 100 100 94 100 100 100
57 71 87 90 100 100 100 100 100 65 96 91 91 100 100 100 94 38 65 13 5 5 60 97 97 84 32 45 6 5 5 5 16 87 60 17 97 100 100 100 100 100 100 100
98 98 100 100 100 100 100 100 100 100 78 93 71 89 100 100 100 100 100 85 10 37 50 61 35 5 5 5 5 5 5 7 17 64 41 75 100 100 100 100 100 100 100 100
87 99 100 100 100 100 100 100 100 100 100 100 100 26 100 100 100 100 95 82 62 30 73 62 72 19 5 5 25 60 40 5 22 77 86 100 100 100 100 100 100 100 100 100
69 93 94 100 100 100 97 99 100 91 100 87 92 100 100 99 100 100 77 39 90 20 39 40 38 7 12 5 13 92 75 84 100 100 100 100 100 100 100 100 100 100 100 100
94 89 99 98 100 100 100 100 100 100 100 100 100 100 100 100 100 100 87 98 93 100 98 54 45 27 48 18 74 100 99 100 100 100 100 100 100 100 100 100 100 100 100 100
100 100 100 97 100 100 100 83 33 66 84 65 46 66 92 100 100 100 84 5 6 43 53 66 65 82 65 7 58 100 100 100 92 100 73 100 100 100 100 98 100 100 100 100
100 100 100 100 100 100 100 100 100 82 66 92 99 100 91 80 74 7 45 9 5 5 29 59 38 33 37 56 55 74 100 100 98 100 100 100 100 100 100 100 100 100 100 100
100 100 100 100 100 100 100 100 100 100 100 100 100 100 91 88 100 94 80 29 5 47 10 47 59 90 92 99 100 100 100 100 100 100 100 100 100 100 100 100 100 100 100 100
71 100 100 100 100 100 100 98 99 100 100 100 100 99 95 99 100 100 100 100 84 56 65 75 84 88 100 100 100 100 100 100 100 100 100 100 100 100 100 100 100 100 98 93
100 82 100 100 100 100 100 100 100 100 100 100 100 100 100 100 99 100 100 100 100 100 100 100 100 100 100 100 100 100 100 100 100 100 100 100 100 100 100 100 100 98 99 92
100 100 100 100 100 100 100 100 100 100 100 100 100 100 100 100 100 100 100 100 100 100 100 100 100 100 100 100 100 100 100 100 100 100 100 100 100 100 100 100 100 100 100 100
100 100 100 100 100 100 100 100 100 100 100 100 100 100 100 100 100 100 99 100 100 100 100 100 100 100 100 100 100 100 100 100 100 100 100 100 100 100 100 100 100 100 100 100
100 100 100 100 100 100 92 100 100 100 100 100 100 100 100 96 100 100 100 100 100 100 100 100 100 100 100 100 100 100 100 100 100 100 100 100 100 100 100 100 100 100 100 100
100 100 100 40 62 78 100 99 100 100 100 100 100 100 100 100 100 100 99 100 100 100 100 100 100 100 100 100 68 79 100 100 100 100 100 100 100 100 100 100 100 100 100 100
100 100 100 100 88 100 100 100 100 100 100 100 100 100 100 100 100 97 88 78 95 99 98 97 100 100 100 100 100 100 54 98 100 100 100 100 100 100 100 100 100 100 100 100
100 100 100 96 79 100 100 100 100 100 100 100 100 100 100 100 85 90 90 90 78 98 100 100 85 72 48 45 81 52 29 46 46 100 100 100 100 100 100 100 100 100 100 100
100 100 100 98 98 100 100 100 100 100 100 100 100 100 100 100 100 100 100 100 91 56 86 100 99 98 100 99 100 100 100 76 97 100 100 100 100 100 100 100 100 100 100 100
90 100 100 100 88 30 98 100 100 100 100 100 100 100 100 100 100 100 100 85 98 100 100 100 93 100 100 100 100 100 100 100 100 100 96 100 100 100 100 100 100 100 100 100
43 62 100 100 100 98 34 83 100 100 100 100 100 100 100 100 100 100 100 100 100 100 100 100 100 100 100 98 71 76 99 98 100 100 100 100 96 99 100 100 100 100 100 100
5 6 5 5 5 5 5 5 31 100 100 100 100 100 100 100 100 100 100 100 100 100 100 100 100 100 100 100 100 100 99 80 78 22 54 23 13 14 88 97 84 100 100 100

GFSNGP_prec_cloud_099.txt.gz
Cloud_Cover
98 100 100 100 100 100 100 100 100 100 96 100 99 79 95 100 100 100 100 100 100 100 100 100 100 97 33 5 3 0 0 0 0 0 4 4 5 1 0 5 20 58 86 100
74 100 100 89 100 100 79 99 100 100 97 100 100 100 100 100 100 100 100 100 100 100 100 100 100 100 27 9 0 0 0 0 0 0 0 0 0 5 5 5 5 5 68 100
99 89 98 100 100 100 100 100 100 100 100 100 100 100 100 100 100 100 100 100 100 100 100 100 100 51 38 5 0 0 0 0 0 0 0 0 3 3 3 0 0 0 11 0
40 100 93 100 100 100 100 100 100 100 100 100 100 100 100 100 100 100 100 100 100 100 100 100 92 42 5 1 0 0 0 0 0 0 0 0 0 2 0 0 0 3 100 52
5 90 100 100 100 100 100 100 100 100 100 100 100 100 100 100 100 100 100 100 100 100 100 100 100 100 51 6 5 43 4 46 7 0 0 2 5 5 5 44 93 100 100 45
78 68 65 36 70 100 100 100 100 100 100 100 92 100 100 100 100 100 100 100 100 100 100 100 100 100 100 100 100 90 30 100 5 1 0 3 5 5 91 100 100 100 95 35
8 92 100 25 61 99 100 100 100 100 100 100 100 100 100 100 100 100 100 100 100 100 100 100 100 100 100 100 100 100 100 86 17 5 0 5 5 87 90 100 100 100 94 100
6 92 99 100 100 99 93 100 65 83 96 100 100 100 100 100 100 97 85 100 100 100 96 100 100 100 100 100 100 100 100 83 7 5 5 26 26 67 100 100 100 100 100 100
36 91 100 80 83 100 100 100 90 96 52 70 77 100 100 100 100 100 86 81 98 100 100 100 100 100 99 61 12 8 49 97 6 6 40 49 94 99 100 100 100 100 100 100
88 44 100 100 100 100 100 100 100 100 100 95 84 99 100 100 100 100 100 100 97 78 79 87 98 100 91 75 7 28 19 8 22 72 68 92 100 100 100 100 100 100 100 100
43 7 23 100 100 100 100 100 100 100 100 100 100 100 100 100 100 99 100 100 100 100 100 100 94 100 92 81 14 34 55 76 98 100 100 100 100 100 100 100 100 100 100 99
64 66 87 95 99 100 100 100 100 100 100 100 100 100 100 100 100 100 100 100 100 100 100 86 64 72 84 38 16 36 81 65 100 100 100 100 100 100 100 100 100 100 100 100
93 99 82 100 100 100 100 100 100 100 100 100 100 100 100 100 100 100 100 100 100 100 100 100 100 100 100 100 97 57 49 16 100 100 100 66 100 100 100 100 100 100 100 100
53 47 78 98 100 100 98 96 100 100 100 100 100 100 100 100 100 100 100 100 100 100 100 100 89 54 69 75 49 50 23 44 52 100 100 100 100 100 100 100 100 100 100 100
5 5 13 100 100 100 100 100 100 100 100 100 100 100 100 99 83 56 62 58 83 94 82 78 90 58 80 97 85 91 81 75 100 100 100 100 100 100 100 100 100 100 100 100
95 69 30 14 100 100 100 100 100 100 100 100 100 100 99 90 88 86 91 100 100 100 100 100 99 100 100 100 100 99 98 100 100 100 100 100 100 100 100 100 100 100 100 100
100 100 100 93 52 100 100 100 100 100 100 100 100 100 100 100 100 100 100 100 100 100 100 100 100 100 100 100 100 100 100 100 100 100 100 100 100 100 100 100 100 100 100 100
100 100 100 100 100 100 100 100 100 100 100 100 100 100 100 100 100 100 100 100 100 100 100 100 100 100 100 100 100 100 100 100 100 100 100 100 100 100 100 100 100 100 100 100
100 100 100 100 100 100 100 100 100 100 100 100 100 100 100 100 100 100 100 100 100 100 100 100 100 100 100 100 100 100 100 100 100 100 100 100 100 100 100 100 100 100 100 100
100 100 100 100 100 99 90 94 100 98 100 100 100 100 100 100 100 100 100 100 100 100 100 100 100 100 100 100 100 100 100 100 100 100 100 100 100 100 100 100 100 100 100 100
100 100 100 100 64 35 33 52 88 100 100 100 100 100 100 100 100 100 100 100 100 100 100 100 100 100 100 100 100 100 100 100 100 100 100 100 100 100 100 100 100 100 100 100
100 100 100 100 100 100 93 37 29 98 100 100 100 100 100 100 100 100 100 100 97 96 100 100 100 100 100 100 100 100 100 100 100 100 100 100 100 100 100 100 100 100 100 100
100 100 100 100 99 100 99 73 78 78 100 100 100 100 100 100 100 100 100 100 100 100 100 100 100 100 87 100 100 100 100 100 100 100 100 100 100 100 100 100 100 100 92 100
80 100 100 100 100 100 100 98 100 84 100 100 100 100 100 100 100 100 100 100 100 100 100 65 95 100 100 99 35 37 81 61 81 90 100 100 100 100 100 100 100 100 100 100
6 69 92 100 100 100 87 98 93 94 83 100 100 100 100 100 100 100 100 100 100 100 100 100 100 90 94 100 97 8 22 30 41 46 92 100 100 100 100 100 100 100 100 100
7 60 18 76 100 100 100 100 27 5 5 12 100 100 100 100 100 100 100 100 100 100 100 100 100 100 100 100 100 94 98 100 99 100 99 92 72 99 100 100 100 97 89 68
56 51 15 24 6 5 5 5 5 5 5 17 5 72 100 100 100 100 100 100 100 100 100 100 100 100 100 100 100 61 49 63 57 82 79 80 100 100 75 39 61 59 76 98

GFSNGP_prec_cloud_102.txt.gz
Cloud_Cover
98 79 100 12 86 88 95 100 45 68 55 50 5 94 99 87 34 5 5 28 100 96 100 100 100 100 100 100 100 100 100 58 5 0 0 0 2 4 5 5 3 0 0 0
100 100 85 100 38 100 96 100 100 96 100 100 99 100 95 100 100 100 100 11 100 100 100 100 100 100 100 100 100 100 100 36 3 0 0 0 0 0 0 0 0 5 5 2
98 100 100 99 100 40 67 93 100 91 100 100 100 100 100 100 100 100 100 100 100 100 100 100 100 99 99 100 100 100 56 5 5 4 0 0 0 1 5 5 5 3 2 0
64 100 91 93 100 81 74 100 98 100 100 100 100 100 100 100 100 100 100 100 100 100 100 100 100 100 100 100 100 100 89 75 20 4 1 0 0 0 0 0 0 4 100 100
66 93 50 72 100 100 100 100 100 100 100 100 100 100 100 100 100 100 100 100 100 100 100 100 100 100 100 100 100 100 100 78 5 5 0 4 2 4 5 4 5 56 100 100
6 8 55 100 100 100 100 100 100 100 100 100 100 100 100 100 100 100 100 100 100 100 100 100 100 100 100 100 100 100 100 8 5 5 7 4 5 5 88 5 68 100 100 97
11 36 39 27 100 100 100 100 100 100 100 100 100 100 100 100 100 100 100 100 100 100 100 100 100 100 100 100 100 100 64 91 100 86 90 87 12 92 45 30 100 100 100 48
5 5 46 11 80 85 71 95 100 100 100 100 100 100 100 100 100 100 100 100 100 100 100 100 100 100 100 100 100 100 100 100 100 100 100 100 100 90 83 94 100 100 99 71
44 30 5 74 19 94 90 90 76 100 97 100 100 100 100 100 100 100 100 100 100 100 100 100 100 100 100 100 100 100 100 100 100 100 100 92 99 85 97 100 100 100 100 100
12 5 27 43 99 92 100 100 100 100 100 97 99 94 100 100 100 100 100 100 100 100 100 100 100 100 100 100 100 100 78 100 97 83 67 72 99 100 100 100 100 100 100 100
5 5 17 68 68 97 100 100 100 100 100 100 100 100 100 100 98 100 100 100 100 100 100 97 100 100 100 100 100 100 96 74 71 86 100 100 100 100 100 100 100 100 100 100
94 28 8 84 85 81 95 99 100 100 100 100 100 100 100 100 100 100 100 100 100 98 100 100 100 100 100 98 98 87 66 87 84 78 80 97 100 100 100 100 100 100 100 100
39 8 63 79 96 100 100 97 100 100 100 100 100 100 100 100 100 100 100 100 96 95 74 75 82 84 16 32 76 100 100 98 99 72 100 98 100 100 100 100 100 100 100 100
5 8 12 5 6 74 93 66 100 100 100 100 100 100 100 100 100 100 100 100 100 100 100 100 100 100 71 96 71 52 48 92 100 99 88 77 100 100 100 100 100 100 100 100
0 7 22 5 5 5 10 69 92 99 100 100 100 100 100 100 100 100 100 100 100 100 100 100 100 100 100 100 100 100 94 44 80 86 85 100 100 100 100 100 100 100 100 100
5 93 84 20 26 93 95 77 73 76 100 100 100 100 100 100 100 98 90 100 100 100 97 94 100 89 94 99 98 100 100 99 100 100 100 100 100 100 100 100 100 100 100 100
100 89 81 100 99 91 100 100 100 100 100 100 100 100 100 100 100 100 100 87 82 100 100 100 100 75 100 96 100 100 100 100 100 100 100 100 100 100 100 100 100 100 100 100
100 100 100 100 100 100 100 100 100 100 100 100 100 100 100 100 100 100 100 100 100 100 100 100 100 100 100 100 100 100 100 100 100 100 100 100 100 100 100 100 100 100 100 100
99 100 100 100 100 100 100 100 100 100 100 87 96 100 100 100 100 100 100 100 100 100 100 100 100 100 100 100 100 100 100 100 100 100 100 100 100 100 100 100 100 100 100 100
100 100 100 100 100 100 96 100 99 100 100 91 76 79 100 100 100 100 100 100 100 100 100 100 100 100 100 100 100 100 100 100 100 100 100 100 100 100 100 100 100 100 100 100
100 100 100 100 100 78 38 62 79 94 86 85 99 91 96 100 100 100 100 100 100 100 100 100 100 100 100 100 100 100 100 100 100 100 100 100 100 100 100 100 100 100 100 100
100 100 100 100 100 100 100 55 33 78 100 94 82 88 100 100 100 100 100 100 100 100 100 100 100 100 100 100 100 100 100 100 100 100 100 100 100 100 100 100 100 100 100 100
100 100 100 100 100 92 98 69 90 97 61 72 96 98 100 100 100 100 100 100 100 100 100 100 100 100 100 100 100 100 100 100 99 100 100 100 100 100 100 100 100 100 100 99
82 86 100 100 100 100 93 77 63 82 53 66 94 100 100 100 100 100 100 100 100 100 100 100 100 100 100 100 100 100 100 98 89 97 99 69 67 77 100 100 97 96 78 75
33 13 24 33 94 100 100 100 92 90 82 74 87 81 94 96 100 100 100 100 100 100 100 100 100 100 100 100 100 100 100 71 71 78 71 80 67 79 52 31 28 68 80 93
58 45 30 57 74 100 100 100 100 100 73 5 6 30 44 77 86 100 100 100 100 100 100 100 100 100 100 100 100 98 74 59 69 100 100 96 87 88 73 77 86 78 79 100
33 75 92 92 100 100 100 100 100 100 96 5 5 9 37 78 100 99 100 100 100 100 100 100 100 100 100 100 100 100 100 100 100 100 100 87 75 60 56 52 74 79 66 83

GFSNGP_prec_cloud_105.txt.gz
Cloud_Cover
100 95 100 100 66 14 5 5 8 12 5 5 91 100 100 100 100 100 100 98 100 100 72 100 100 100 100 48 99 100 100 100 98 20 27 8 30 60 10 5 5 5 4 0
61 86 99 23 33 29 36 9 5 5 80 84 100 97 100 100 100 100 9 8 6 5 5 5 14 100 100 100 80 13 11 79 5 92 100 100 100 100 100 5 4 0 0 0
26 8 70 13 8 24 87 99 62 52 56 100 97 100 75 93 100 100 100 67 95 100 100 100 100 100 100 100 100 79 51 84 24 100 100 100 100 100 95 5 3 0 13 13
99 77 62 96 90 28 60 94 99 55 98 100 100 100 82 11 45 79 79 22 89 58 94 100 100 100 81 92 78 100 100 96 100 100 100 100 100 100 5 5 0 19 100 100
19 32 66 52 74 99 84 47 34 78 63 100 98 94 98 100 100 61 97 94 100 100 100 99 24 100 100 89 100 100 100 100 100 100 100 100 75 56 21 5 1 1 68 100
5 5 41 56 41 27 85 100 80 96 100 96 94 100 45 98 100 100 100 98 38 95 100 100 100 100 100 100 100 100 100 100 100 100 100 100 100 100 97 18 25 40 100 100
5 9 5 21 88 94 91 50 96 99 36 70 100 100 100 100 100 100 100 100 100 98 56 100 100 100 100 100 100 100 100 100 100 100 100 100 100 100 98 79 71 88 100 100
5 5 5 5 5 96 81 100 100 97 100 98 100 100 100 100 100 100 100 100 100 100 100 100 100 100 100 100 100 100 100 100 100 100 100 100 100 100 49 16 81 100 98 54
5 5 5 5 5 5 5 19 86 100 93 100 100 100 68 64 100 100 78 82 100 100 100 100 100 100 100 100 100 100 100 100 100 100 100 100 97 41 79 95 100 100 100 100
5 5 5 5 12 33 5 5 5 11 84 76 98 100 100 77 99 100 100 100 100 90 100 100 100 100 100 100 100 100 100 100 100 100 96 47 99 100 100 100 100 100 100 100
5 5 5 5 5 5 5 5 6 42 42 25 57 100 98 98 96 100 100 100 100 100 100 100 100 100 100 100 100 100 100 100 100 100 100 100 100 100 87 45 62 97 100 100
50 5 14 30 22 45 19 11 6 40 82 100 100 100 86 99 100 100 90 95 100 100 100 100 100 100 100 100 100 100 100 100 100 100 100 100 100 100 95 97 100 88 93 95
5 5 5 5 5 15 5 8 5 5 66 100 100 100 100 100 100 100 100 100 100 100 100 100 100 100 100 100 100 100 100 100 95 90 68 80 100 100 99 50 69 75 93 100
8 5 5 5 5 5 5 5 5 5 14 47 100 100 100 100 100 100 100 100 100 100 100 100 100 100 100 86 96 82 69 85 81 71 68 51 96 100 79 99 96 100 100 100
52 35 4 4 5 5 5 5 16 9 13 35 81 100 100 100 100 100 100 100 100 100 100 100 82 76 67 88 99 98 100 78 82 81 74 99 86 71 100 100 100 100 100 100
12 7 6 39 27 5 5 20 100 100 100 100 97 99 99 100 100 100 100 100 100 100 100 100 100 100 100 100 100 100 100 100 100 100 100 100 100 100 100 100 100 100 100 100
5 5 26 54 100 100 67 86 95 100 100 100 100 100 100 100 100 100 100 100 100 100 100 100 100 100 100 100 100 100 100 100 100 100 100 100 100 100 100 100 100 100 100 100
5 46 100 100 100 100 100 100 100 100 100 100 100 100 100 100 100 100 100 100 100 100 100 100 100 100 100 95 90 66 67 92 97 100 100 100 100 100 100 100 100 100 100 100
5 91 97 100 100 100 100 100 100 100 100 99 98 86 81 74 78 100 100 100 100 100 100 100 100 100 100 100 100 100 88 88 88 100 100 100 100 100 100 100 100 100 100 100
14 97 100 100 100 100 100 100 95 95 100 100 84 63 78 86 82 84 100 100 100 100 100 100 100 100 100 100 100 100 100 100 100 100 100 100 100 100 100 100 100 100 100 100
45 98 100 100 100 100 99 65 70 63 94 30 70 5 6 27 69 66 98 100 100 100 100 100 100 100 100 100 100 100 100 100 100 100 100 100 100 100 100 100 100 100 100 97
96 100 100 100 100 100 100 100 42 97 99 85 100 65 68 60 37 51 66 100 100 100 100 100 100 100 100 100 100 100 100 100 100 100 100 100 100 100 100 100 100 100 100 100
42 100 100 100 100 100 100 100 99 100 100 100 100 78 76 5 5 27 71 94 100 100 100 100 100 100 100 100 100 100 100 100 100 100 100 100 100 100 100 96 99 100 100 100
6 28 48 70 100 100 100 100 97 98 100 100 100 100 100 78 61 73 72 86 100 100 100 100 100 100 100 100 100 100 100 100 100 100 100 100 100 100 100 80 70 59 78 77
5 12 20 62 100 84 85 100 100 100 100 100 100 100 100 87 81 26 6 46 69 100 100 100 100 100 100 100 100 100 100 100 100 100 100 100 96 84 98 62 54 84 90 33
5 5 5 37 62 73 84 97 100 100 100 100 100 100 100 100 98 68 72 14 53 82 100 100 100 100 100 100 100 100 100 100 100 100 100 100 99 100 100 100 100 100 96 68
68 33 81 78 45 32 59 100 100 100 100 100 100 100 100 100 94 14 13 5 21 96 100 100 100 100 100 100 100 100 100 100 100 100 100 100 100 100 100 100 100 100 100 100

GFSNGP_prec_cloud_108.txt.gz
Cloud_Cover
100 100 63 93 13 17 20 100 100 100 100 100 100 100 100 100 100 100 100 100 100 100 100 100 100 100 99 79 5 3 0 1 5 26 99 100 62 12 55 99 73 84 30 5
22 48 46 79 77 45 26 5 37 100 100 100 100 100 100 100 100 100 100 100 100 100 100 100 100 100 100 100 100 77 11 7 87 4 6 52 10 5 5 5 8 5 5 4
5 5 5 12 8 6 75 33 6 81 93 100 100 100 100 100 100 100 100 81 79 100 86 98 87 98 99 99 100 100 94 5 52 43 10 99 52 5 19 51 11 10 52 100
5 11 40 14 67 11 76 88 24 60 72 74 69 100 100 100 100 96 95 80 100 81 26 45 99 88 58 100 100 100 27 79 100 100 99 61 58 4 87 100 80 95 100 100
5 5 5 18 77 90 96 29 73 100 80 93 83 83 83 59 96 76 99 69 44 45 100 94 64 65 14 100 100 100 100 92 100 100 18 47 55 100 60 97 100 76 100 100
5 5 8 49 6 98 92 91 80 81 70 41 99 99 79 88 100 100 100 100 89 62 52 80 96 100 100 100 100 100 89 51 42 55 100 100 100 100 95 100 100 100 100 100
5 8 5 5 5 67 5 5 9 97 87 92 85 59 85 92 98 99 100 100 100 100 100 100 100 100 81 59 40 96 100 100 100 100 100 100 99 96 100 100 100 100 100 100
5 5 22 5 5 5 12 40 7 5 99 100 64 100 100 100 100 100 100 100 100 100 100 100 100 100 100 77 93 100 100 100 100 100 100 100 100 100 100 100 100 100 100 100
54 4 5 5 5 5 5 5 5 5 5 35 100 89 96 72 100 100 100 100 100 100 100 100 100 100 100 100 100 100 100 100 100 100 100 100 100 100 100 100 100 100 100 100
45 21 5 5 5 5 5 5 5 5 5 5 16 99 100 100 100 83 100 100 100 100 100 100 100 100 100 100 100 100 100 100 100 100 100 100 100 100 100 99 100 100 100 100
11 5 5 5 5 5 5 5 5 5 5 5 38 100 99 100 100 100 100 90 100 100 100 100 100 100 100 100 100 100 100 100 100 100 100 100 100 100 100 100 100 100 100 100
52 5 5 5 5 5 5 5 5 5 6 40 100 100 100 78 61 100 100 100 100 100 91 61 92 73 93 99 100 100 100 100 100 100 100 100 100 100 100 100 98 89 84 96
45 5 11 5 5 5 5 5 5 5 6 54 100 100 68 38 16 48 82 84 98 100 100 100 96 78 99 92 100 100 100 100 100 100 100 100 100 100 100 100 100 100 100 100
5 5 56 6 5 5 5 5 4 5 5 5 65 100 100 100 100 100 100 100 100 100 98 100 100 100 100 100 100 100 100 100 100 100 100 100 100 93 86 96 100 100 100 100
5 5 8 5 55 8 5 5 5 5 7 5 26 59 100 100 100 100 100 100 100 100 100 100 100 100 100 100 100 100 100 100 100 100 100 83 51 97 100 95 100 100 100 100
3 5 5 5 5 7 10 5 5 5 92 100 95 95 100 100 100 97 97 100 100 100 100 100 100 100 100 100 100 100 100 100 100 100 100 100 100 100 100 100 100 100 100 100
5 5 5 74 74 88 100 100 99 36 73 100 100 100 100 100 100 100 100 100 100 100 100 100 100 100 100 100 100 100 100 100 100 100 100 100 100 100 100 100 100 100 100 100
3 5 8 31 93 100 100 100 100 100 100 100 100 100 100 100 100 80 70 76 90 100 100 100 100 100 100 100 100 100 100 100 100 100 100 100 100 100 100 100 100 100 100 100
5 5 5 65 100 100 100 100 100 100 100 100 97 100 99 86 15 46 63 69 82 92 100 100 100 100 100 100 100 100 100 100 100 100 100 100 100 89 98 100 100 100 100 100
5 5 6 96 100 100 100 100 100 100 86 100 100 100 100 98 28 7 6 6 13 66 88 100 100 100 100 100 100 100 100 100 100 100 100 100 90 89 94 98 99 98 100 100
5 5 20 98 100 100 100 100 90 87 98 98 100 100 100 100 86 53 58 56 12 54 77 70 100 100 100 100 100 100 100 100 100 100 100 100 100 100 100 100 100 100 100 100
5 5 46 100 100 100 100 100 96 96 100 94 100 100 100 100 100 90 24 14 58 65 90 100 97 100 100 100 100 100 100 100 100 100 100 100 100 100 100 100 100 100 100 100
5 5 8 90 100 100 100 100 100 95 95 100 100 100 100 100 100 98 100 36 25 49 70 88 99 100 100 100 100 100 100 100 100 100 100 100 100 100 100 100 100 100 100 100
5 5 5 5 99 100 100 100 100 92 100 100 100 100 100 100 100 100 100 44 45 62 89 82 98 100 100 100 100 100 100 100 100 100 100 100 100 100 100 100 100 100 100 100
5 12 11 89 100 100 74 66 86 100 100 100 100 100 100 100 100 100 100 76 60 43 5 16 68 100 100 100 100 100 100 100 100 100 100 100 100 100 100 100 100 100 100 100
5 5 5 15 83 76 92 97 80 100 100 100 100 100 100 100 100 100 86 39 66 31 5 5 7 95 100 100 100 100 100 100 100 100 100 100 100 100 100 100 100 100 100 100
69 37 90 37 96 98 96 72 100 100 100 100 100 100 100 100 100 79 24 39 12 5 5 5 18 100 100 100 100 100 100 100 100 100 100 100 100 100 100 100 100 100 100 100

GFSNGP_prec_cloud_111.txt.gz
Cloud_Cover
89 82 100 100 91 100 100 100 100 100 100 100 100 100 100 100 100 100 100 100 100 100 100 100 100 100 100 100 100 100 100 100 100 100 100 100 100 100 100 100 100 100 100 100
100 73 5 6 66 5 100 100 82 100 49 10 10 99 100 100 100 100 100 100 100 100 100 100 100 100 87 100 100 100 100 100 100 100 100 100 100 100 100 100 100 100 100 100
9 9 5 10 7 26 18 94 100 64 94 68 54 17 91 100 41 99 100 90 100 100 100 92 86 100 5 96 100 100 100 100 100 100 100 100 100 100 100 100 100 100 100 100
5 2 10 23 74 84 100 77 17 95 76 99 96 67 19 100 100 99 99 100 50 100 100 100 100 75 97 89 38 70 68 93 100 100 100 100 100 100 100 100 100 100 100 100
5 5 5 5 62 100 97 72 35 99 94 92 58 7 10 35 100 100 100 63 59 100 64 90 97 89 100 33 100 31 5 5 5 11 63 14 5 73 10 5 57 93 78 98
5 5 5 5 5 32 6 81 62 5 5 30 94 100 26 100 100 56 39 100 47 12 100 100 92 100 100 100 67 7 15 100 78 10 72 83 10 74 100 100 100 100 100 77
5 5 5 5 4 5 3 46 54 7 5 5 10 64 72 65 28 80 82 19 99 97 45 12 25 22 7 56 99 100 100 85 21 100 94 5 51 95 82 83 80 88 99 99
5 5 5 5 5 2 4 18 5 5 5 4 2 4 4 4 5 56 98 100 100 98 100 100 100 100 100 64 8 5 78 6 6 77 100 7 95 100 44 98 100 100 100 100
6 5 4 4 5 5 5 5 5 3 1 3 5 5 5 6 5 5 44 25 5 23 89 100 100 100 100 95 89 64 5 26 90 71 98 98 97 100 98 100 100 100 100 100
5 5 5 4 0 5 5 1 7 5 5 3 5 9 100 92 16 38 72 90 87 54 100 100 100 100 100 100 100 86 100 100 100 100 100 100 100 100 99 84 100 100 100 100
5 3 48 5 4 3 5 5 5 5 80 86 65 99 99 100 100 96 89 100 100 100 100 100 100 100 100 100 100 100 100 100 100 100 100 100 100 100 100 100 100 100 100 100
5 5 5 23 5 5 5 5 5 5 5 10 20 87 100 100 93 91 89 62 99 100 64 96 100 100 100 100 100 100 100 100 100 100 100 100 100 100 100 100 100 100 100 100
5 5 4 20 11 30 5 5 8 5 5 5 7 95 100 100 100 99 99 95 93 82 86 100 100 100 100 100 100 100 100 100 100 100 100 100 100 100 100 100 100 100 100 100
2 4 5 5 78 8 6 5 6 11 14 5 27 52 99 100 100 100 100 100 98 100 100 100 100 100 100 100 100 100 100 100 100 100 100 100 100 100 100 100 100 100 100 100
1 5 5 5 6 41 33 26 7 18 5 5 92 20 61 80 54 76 100 100 100 100 100 100 100 100 100 100 100 100 100 100 100 100 100 100 100 100 100 100 100 100 100 100
4 5 48 7 5 73 20 47 60 5 48 5 89 93 89 95 100 100 97 100 96 100 100 100 100 100 100 100 100 100 100 100 100 100 100 100 100 100 100 100 100 100 100 100
5 8 79 5 49 21 82 84 100 99 57 45 37 64 100 100 100 100 100 92 86 86 82 84 77 100 100 100 100 100 100 100 100 100 100 100 100 100 100 100 100 100 100 100
5 5 5 15 5 14 92 100 100 100 100 100 100 100 100 100 100 100 100 90 32 31 19 21 41 69 95 100 100 100 100 100 100 100 100 100 100 100 100 100 100 100 100 100
5 8 5 62 6 26 97 100 100 100 100 100 91 100 100 100 100 100 100 100 47 5 5 12 39 78 82 100 100 100 100 100 100 100 100 100 100 100 100 100 100 100 100 100
4 14 6 33 44 87 88 100 100 100 100 100 89 99 100 100 100 100 100 100 96 96 33 5 35 32 20 34 97 100 100 100 100 100 100 100 100 100 100 100 100 100 100 100
5 7 38 55 22 97 96 100 100 99 100 94 95 100 100 100 100 100 100 100 100 84 62 5 11 5 38 52 43 69 100 100 100 100 100 100 100 100 100 100 100 100 100 100
5 18 22 70 89 23 100 100 100 95 85 95 100 100 100 100 100 100 100 100 100 94 6 20 73 75 42 45 78 100 84 100 100 100 100 100 100 100 100 100 100 100 100 100
5 11 8 83 98 100 62 85 100 100 98 100 100 100 100 100 100 100 100 100 80 64 10 85 100 63 55 69 75 92 100 100 100 100 100 100 100 100 100 100 100 100 100 100
5 5 63 69 100 96 95 100 90 90 100 100 100 100 100 100 100 100 100 100 89 55 93 12 71 78 66 78 100 100 100 100 100 100 100 100 100 100 100 100 100 100 100 100
5 24 74 80 100 98 94 100 78 100 100 99 100 100 100 100 100 100 100 100 96 73 79 80 23 27 5 5 79 98 100 100 100 100 100 100 100 100 100 100 100 100 100 100
5 47 69 88 100 68 100 90 99 95 100 97 100 100 100 100 100 100 100 12 23 79 90 67 9 5 8 5 13 93 100 100 100 100 100 100 100 100 100 100 100 100 100 100
79 40 98 99 100 59 100 100 98 83 100 100 100 100 100 100 100 100 29 5 5 12 18 87 100 99 28 8 6 73 100 100 100 100 100 100 100 100 100 100 100 100 100 100

GFSNGP_prec_cloud_114.txt.gz
Cloud_Cover
100 100 93 100 75 100 100 92 100 100 100 100 100 100 71 100 100 100 87 100 97 100 100 100 100 100 100 100 100 100 100 100 100 100 100 100 100 100 100 100 100 100 100 100
65 97 100 100 69 24 99 99 100 57 100 91 100 100 100 100 100 100 100 100 100 100 100 100 100 100 100 100 100 100 100 100 100 100 100 100 100 100 100 100 100 100 100 100
20 5 5 19 100 80 13 49 92 53 22 100 94 100 88 72 57 100 100 100 74 100 100 100 100 100 100 100 100 100 100 100 100 100 100 100 100 100 100 100 100 100 100 100
4 0 17 89 82 99 79 68 71 100 5 66 100 98 5 7 48 98 100 100 78 100 100 100 100 100 100 100 100 100 100 100 100 100 100 100 100 100 100 100 100 100 100 100
5 5 10 5 45 94 57 48 73 98 62 100 56 90 100 85 5 26 91 93 100 79 100 82 100 100 100 100 100 100 100 100 100 100 100 100 100 100 100 100 100 100 100 100
4 4 5 5 5 5 7 82 5 5 5 5 3 18 98 67 72 41 57 99 29 12 81 94 5 8 98 97 100 100 100 100 100 100 100 100 100 100 100 100 100 100 100 100
5 4 4 0 0 3 4 59 12 5 5 1 0 3 66 49 99 100 70 71 100 98 100 100 90 21 5 100 100 100 100 100 100 100 98 100 100 100 100 100 100 100 100 100
5 5 4 0 1 2 2 5 5 5 5 0 4 5 57 24 54 62 77 48 47 100 100 100 81 95 87 24 40 39 89 100 100 100 93 100 100 100 100 100 100 100 100 100
2 3 0 0 2 3 5 5 4 0 0 0 0 4 5 5 10 6 24 34 5 2 3 82 100 100 82 96 92 100 98 78 33 18 6 9 35 39 9 48 99 100 100 98
1 0 5 5 5 2 0 0 0 0 0 2 2 2 7 5 5 5 5 5 5 26 34 75 98 100 100 100 100 79 82 78 79 96 99 93 31 38 99 94 6 16 45 72
0 2 5 5 7 2 3 0 0 0 0 0 2 3 5 5 14 78 19 5 5 5 5 7 32 41 74 100 100 100 100 100 100 100 100 100 100 100 100 94 84 86 75 65
5 13 5 5 5 60 26 4 5 4 1 0 5 4 5 6 41 44 6 5 5 5 5 5 5 89 91 90 100 100 100 100 100 100 100 100 100 100 100 100 100 100 100 100
5 28 5 5 5 5 5 42 6 38 5 5 4 5 5 34 96 60 69 30 5 20 85 80 97 73 30 100 100 100 100 100 100 100 100 100 100 100 100 100 100 100 100 100
40 9 10 24 5 5 17 18 44 30 18 5 5 13 5 5 6 44 77 37 96 50 44 59 99 100 96 100 96 94 100 100 100 100 100 100 100 100 100 100 100 100 100 100
6 16 5 16 8 12 47 8 24 46 5 6 5 11 5 25 46 53 99 80 92 82 100 100 68 100 99 70 100 100 100 100 100 100 100 100 100 100 100 100 100 100 100 100
71 46 10 58 42 8 7 53 22 60 39 50 8 5 46 41 84 66 95 100 100 100 100 100 100 100 60 14 55 100 100 100 100 100 100 100 100 100 100 100 100 100 100 100
15 9 67 38 54 20 99 12 40 26 76 54 55 64 100 76 95 100 100 100 100 100 100 94 100 88 65 13 5 5 100 100 100 100 100 100 100 100 100 100 100 100 100 100
21 6 86 60 90 92 78 42 100 93 100 100 100 100 100 99 92 99 100 100 100 100 100 72 8 5 5 16 77 22 6 83 100 100 100 100 100 100 100 100 100 100 100 100
32 8 33 28 86 68 99 44 100 100 100 100 100 100 80 54 89 100 100 100 100 100 100 100 7 12 71 72 84 99 100 80 84 100 100 100 100 100 100 100 100 100 100 100
71 5 13 37 95 98 98 61 100 74 100 100 100 100 89 98 69 86 100 100 100 100 100 98 56 100 100 100 100 100 100 100 50 81 73 100 100 100 100 100 100 100 100 100
5 5 5 67 56 96 92 80 98 92 100 100 100 88 65 84 89 90 100 100 100 100 100 94 100 100 96 100 100 100 99 100 100 84 100 100 100 100 100 100 100 100 100 100
5 5 9 65 12 81 99 100 98 100 100 100 100 99 53 98 82 82 100 100 100 100 100 100 100 72 69 75 92 96 71 100 78 84 95 92 87 100 100 100 100 100 100 100
5 5 10 63 8 20 99 100 26 100 100 100 98 92 100 97 100 99 100 100 100 100 72 75 60 71 59 52 31 15 7 86 100 98 98 99 98 100 100 100 100 100 100 100
5 5 5 60 5 19 81 100 37 94 68 100 90 96 100 100 100 100 100 100 100 100 67 82 52 22 56 56 14 11 5 27 95 100 100 100 100 100 100 100 100 100 100 100
5 5 5 37 63 16 70 89 100 95 67 100 100 98 100 100 100 100 100 100 100 100 80 68 68 76 64 7 5 5 5 5 67 100 100 100 100 100 100 100 100 100 100 100
5 5 5 5 32 21 100 84 100 100 100 100 100 85 100 99 99 100 100 100 97 100 5 13 82 78 23 26 59 27 11 5 10 87 100 100 100 100 100 100 100 100 100 100
5 5 25 23 68 100 99 100 100 90 100 95 39 100 100 99 99 100 63 76 62 59 5 8 60 72 100 98 100 100 98 65 5 60 100 100 100 100 100 100 100 100 100 100

GFSNGP_prec_cloud_117.txt.gz
Cloud_Cover
100 100 100 100 93 100 100 100 100 100 100 100 100 100 100 100 100 100 100 100 100 100 100 100 100 100 100 100 100 100 100 100 100 100 100 100 100 100 100 100 100 100 100 100
100 100 96 96 100 100 100 100 100 94 100 100 100 100 100 100 100 100 100 100 100 100 100 100 100 100 100 100 100 100 100 100 100 100 100 100 100 100 100 100 100 100 100 100
31 5 8 62 94 100 71 82 100 72 90 100 100 95 100 100 100 100 100 100 100 100 100 100 100 100 100 100 100 100 100 100 100 100 100 100 100 100 100 100 100 100 100 100
49 1 58 77 85 86 71 76 96 22 21 27 93 100 100 80 100 100 100 100 100 100 100 100 100 100 100 100 100 100 100 100 100 100 100 100 100 100 100 100 100 100 100 100
76 28 8 5 54 94 89 44 71 97 5 5 4 6 100 86 66 84 100 100 100 100 100 100 100 100 100 100 100 100 100 100 100 100 100 100 100 100 100 100 100 100 100 100
5 21 80 5 5 5 48 88 88 100 100 100 100 40 4 32 5 5 43 51 100 100 100 100 100 100 100 100 100 100 100 100 100 100 100 100 100 100 100 100 100 100 100 100
5 25 10 2 4 5 70 76 12 30 49 90 99 100 100 98 100 30 0 4 45 78 80 95 100 100 100 100 100 100 100 100 100 100 100 100 100 100 100 100 100 100 100 100
0 5 45 0 3 40 15 23 5 4 0 0 0 18 26 85 100 100 99 99 40 16 14 9 9 100 100 100 100 100 100 100 99 84 100 100 100 100 100 100 100 100 100 100
5 5 2 0 1 2 12 25 5 0 0 0 0 0 0 0 6 21 100 99 100 92 17 11 8 51 95 98 97 98 100 100 100 100 100 100 100 100 100 100 100 100 100 100
5 47 5 7 4 0 0 0 0 0 0 0 0 0 0 4 4 4 4 3 1 4 5 42 63 86 37 63 60 95 97 81 98 83 79 80 100 100 100 100 100 100 83 84
5 62 82 12 1 14 4 0 0 0 0 0 1 0 5 5 5 5 5 5 5 5 5 3 5 25 6 5 16 86 99 100 100 100 100 100 100 100 100 100 100 100 100 100
40 5 5 15 39 5 5 4 1 0 0 0 0 5 4 5 5 5 5 5 5 5 5 5 5 5 5 5 5 5 15 86 100 100 100 100 100 100 100 100 100 100 100 100
31 57 16 37 10 5 7 5 1 0 0 5 5 5 5 4 5 5 5 5 5 5 16 93 97 99 88 43 50 99 20 43 100 100 100 100 100 100 100 100 100 100 100 100
38 76 91 59 54 94 5 58 23 5 4 5 17 5 5 4 5 5 5 5 9 83 100 49 21 5 12 6 17 21 52 100 96 99 100 100 100 100 100 100 100 100 100 100
35 17 68 87 92 86 100 5 36 11 9 5 4 5 5 13 31 38 25 14 56 60 52 98 81 58 90 70 83 24 46 96 89 100 100 100 100 100 100 100 100 100 100 100
27 14 21 20 62 24 97 100 92 21 8 5 5 12 45 6 23 54 45 5 16 42 92 100 100 100 12 10 5 5 6 5 6 58 57 100 100 100 100 100 100 100 100 100
43 62 19 18 34 5 60 96 74 38 68 12 25 36 100 87 45 75 89 62 37 43 94 100 100 100 73 5 5 5 5 5 68 100 80 73 89 100 100 100 100 100 100 100
89 99 5 18 30 6 17 49 99 88 34 60 94 100 100 100 100 100 70 55 6 93 100 82 100 91 100 5 5 5 45 97 100 100 100 100 99 70 100 100 100 100 100 100
43 34 5 6 53 52 81 52 100 99 76 100 93 100 99 93 87 77 36 90 51 58 82 100 100 89 100 40 46 100 100 100 100 100 100 100 100 100 79 97 100 100 100 100
16 9 5 5 9 28 62 58 90 51 65 100 99 96 100 100 58 99 91 62 68 38 92 87 100 94 100 68 98 100 100 100 100 99 85 70 59 62 43 60 15 100 100 100
5 8 5 5 23 18 5 57 86 60 53 100 93 100 100 100 100 68 58 60 91 55 47 65 59 50 74 83 100 100 100 100 82 45 5 7 14 29 29 62 91 86 99 100
5 5 28 10 14 8 5 5 15 40 79 52 100 100 87 57 63 88 70 89 76 15 19 15 32 71 89 93 98 100 100 100 42 11 5 5 46 53 60 46 53 80 96 100
29 6 23 48 6 5 5 5 20 73 59 32 86 100 57 62 16 72 93 57 94 78 64 77 96 79 5 5 5 39 62 26 14 5 5 5 60 74 92 100 100 97 78 100
5 5 13 45 5 5 5 5 13 92 56 68 81 56 61 91 40 80 83 84 93 97 86 100 100 81 74 5 5 44 5 5 5 5 5 5 63 98 100 100 100 100 100 100
82 9 5 5 5 5 5 5 5 72 56 94 88 8 97 35 25 10 59 77 94 97 90 95 94 90 52 34 81 51 5 9 13 44 26 6 16 100 100 100 100 100 100 100
29 6 5 5 5 5 5 5 14 22 83 87 7 7 7 24 40 19 25 75 31 98 6 74 37 5 52 88 70 88 84 88 100 94 98 89 29 100 100 100 100 100 100 100
46 22 5 5 5 5 5 5 58 35 18 86 72 79 88 70 87 15 5 6 15 23 5 5 6 69 82 89 100 100 100 100 100 100 100 100 96 100 100 100 100 100 100 100

GFSNGP_prec_cloud_120.txt.gz
Cloud_Cover
100 100 99 100 94 100 100 100 100 100 100 100 100 100 100 100 100 100 100 100 100 100 100 100 100 100 100 100 100 100 100 100 100 100 100 100 100 100 100 100 100 100 100 100
100 100 88 55 89 100 100 100 100 100 100 100 100 100 100 100 100 100 100 100 100 100 100 100 100 100 100 100 100 100 100 100 100 100 100 100 100 100 100 100 100 100 100 100
11 4 18 57 97 95 91 94 83 51 98 100 100 100 100 100 100 100 100 100 100 100 100 100 100 100 100 100 100 100 100 100 100 100 100 100 100 100 100 100 100 100 100 100
4 6 39 79 100 100 100 100 100 100 100 98 100 100 100 100 100 100 100 100 100 100 100 100 100 100 100 100 100 100 100 100 100 100 100 100 100 100 100 100 100 100 100 100
5 1 7 6 28 78 98 28 80 100 100 100 100 100 100 100 100 100 100 100 100 100 100 100 100 100 100 100 100 100 100 100 100 100 100 100 100 100 100 100 100 100 100 100
4 5 67 6 14 44 26 100 6 81 11 66 6 25 99 100 100 100 100 100 100 100 100 100 100 100 100 100 100 100 100 100 100 100 100 100 100 100 100 100 100 100 100 100
4 4 1 0 3 36 62 92 5 5 4 4 6 4 6 19 89 100 100 100 100 100 100 100 100 100 100 100 100 100 100 100 100 100 100 100 100 100 100 100 100 100 100 100
0 2 3 0 0 3 36 16 0 0 0 0 0 2 5 5 5 72 100 100 100 100 100 100 100 100 100 100 100 100 100 100 100 100 100 100 100 100 99 100 100 100 100 100
0 0 0 0 0 0 8 5 3 0 0 0 3 3 3 4 4 5 89 100 100 100 100 100 100 100 100 100 100 100 100 100 100 100 100 100 100 100 100 100 100 100 100 100
23 40 3 0 0 0 0 0 0 0 0 0 0 0 4 5 5 5 5 5 8 45 89 98 100 100 100 100 100 100 100 100 100 100 100 100 100 100 100 90 100 100 100 100
56 5 19 32 12 0 0 0 0 0 0 0 0 0 0 1 5 5 5 5 5 5 5 5 5 5 5 5 14 4 2 18 60 95 88 79 89 100 100 100 100 100 100 100
16 26 14 30 96 27 8 0 0 0 0 0 0 0 0 0 4 5 4 5 5 5 5 5 5 5 5 5 5 5 5 5 2 9 18 80 100 100 100 100 100 100 100 100
28 5 40 88 72 72 10 5 7 6 1 0 1 0 0 0 0 2 5 5 5 5 56 98 100 47 5 5 5 5 5 5 60 35 17 5 37 96 100 100 100 100 100 100
9 5 43 6 42 10 72 56 18 5 19 71 5 5 3 3 0 0 2 3 8 23 90 100 45 6 5 5 5 5 15 93 87 91 58 95 98 100 100 100 100 100 100 100
7 5 5 5 5 5 7 10 33 73 16 12 8 1 1 3 2 4 4 5 7 7 5 5 5 8 5 5 5 5 5 51 73 99 100 100 100 100 100 100 100 100 100 100
8 5 20 5 5 5 5 5 7 13 27 7 38 5 5 6 5 5 5 5 5 5 6 5 5 5 5 5 8 12 5 5 5 5 64 100 100 100 100 100 100 100 100 100
64 5 17 10 5 5 5 5 5 10 22 25 65 9 17 59 26 64 94 100 94 9 5 5 5 5 5 12 94 100 5 5 5 7 100 100 100 100 100 100 100 100 100 100
18 21 7 71 5 5 5 5 5 5 10 69 23 24 65 100 73 87 100 94 5 5 5 6 5 18 5 34 92 100 7 5 9 94 100 100 100 100 100 100 100 100 100 100
66 65 45 59 6 5 5 5 5 4 5 5 25 69 33 38 47 74 74 48 5 5 5 5 11 42 37 26 16 100 9 5 52 100 100 100 100 100 100 99 94 37 100 100
29 11 18 37 5 5 5 5 5 5 5 5 9 63 50 5 92 100 23 9 5 5 5 11 58 21 64 5 21 100 5 5 93 100 100 100 100 100 95 30 6 12 69 84
5 5 5 5 13 5 5 5 5 5 5 5 5 25 8 11 100 82 8 17 22 67 18 61 40 30 23 5 40 93 5 6 61 95 100 99 83 10 16 5 5 5 5 12
5 5 5 5 5 5 5 5 4 4 5 5 5 5 29 100 47 20 8 45 54 5 5 5 20 83 19 5 73 34 5 5 5 5 6 5 7 5 5 5 5 5 21 87
98 75 28 6 5 5 5 2 4 5 5 5 5 5 16 33 15 56 65 16 5 8 9 5 27 65 74 63 9 7 41 31 52 61 5 5 5 38 58 48 13 6 86 97
100 100 100 100 86 28 5 5 6 5 5 5 5 15 96 60 7 93 46 34 5 6 18 34 80 80 76 27 69 78 49 78 92 26 5 12 61 63 65 52 13 71 100 84
98 100 100 100 88 59 34 26 25 28 15 38 25 18 46 89 26 21 14 9 7 19 42 87 67 89 96 94 87 44 81 95 28 31 34 67 94 100 61 60 16 99 100 100
88 92 100 76 77 62 34 47 42 32 25 30 91 91 91 56 9 5 24 13 39 57 42 48 7 5 48 29 23 97 97 51 89 92 84 99 100 100 100 100 77 98 100 100
96 100 100 88 78 83 37 17 88 77 72 96 100 100 100 95 5 38 93 95 100 20 5 5 5 5 11 65 89 80 77 95 100 97 97 92 99 100 100 100 100 100 100 100